     2              OBSERVATION DATA    GPS                 RINEX VERSION / TYPE
teqc 1998Mar9 19981223 22:46:44UTC                          PGM / RUN BY / DATE
                                                            COMMENT
Original Marker Name: 1107                                  COMMENT
Campaign Name: HPGN 1998                                    COMMENT
4-Character Station Name: 1107                              COMMENT
6-Character Antenna Code: ASHGD3                            COMMENT
Vertical Measurement Point: BPA                             COMMENT
Vertical Offset to Rinex Ref. Point: 0.0000                 COMMENT
Radial Measurement Point: RRP                               COMMENT
Radial Offset to Rinex Ref. Point: 0.0000                   COMMENT
Antenna Height from Field Measurement: 2.2200 m             COMMENT
Original XYZ: -2450315.0700 -4752517.0900 3466949.4100      COMMENT
New XYZ position is based on association with SCEC monument COMMENT
E1C8S6V7+0011. Position of that monument is believed to be  COMMENT
valid to within 1 m horizontally; vertical accuracy         COMMENT
should be no worse than 3-times this value.                 COMMENT
                                                            COMMENT
Revised Rinex header created by UCSD GPS archive for        COMMENT
GSAC on 01-Jun-1999 (1999:152) 23:23:32 GMT                 COMMENT
For assistance contact dagnew@ucsd.edu or hjohnson@ucsd.edu COMMENT
                                                            COMMENT
HPGN CA 11-07                                               MARKER NAME
CFW SAN DIEGO COUNTY                                        OBSERVER / AGENCY
184 ASHTECH Z12-XII3 2J00                                   REC # / TYPE / VERS
526 ASHTECH GEODETIC III                                    ANT # / TYPE
 -2450347.0000 -4752145.0000  3466027.0000                  APPROX POSITION XYZ
        2.2200        0.0000        0.0000                  ANTENNA: DELTA H/E/N
     1     1     0                                          WAVELENGTH FACT L1/2
     7    C1    L1    L2    P1    P2    S1    S2            # / TYPES OF OBSERV
     0                                                      INTERVAL
  1998     6    15    19    10   15.000000                  TIME OF FIRST OBS
  1998     6    16     1    21   15.000000                  TIME OF LAST OBS
                                                            END OF HEADER
 98  6 15 19 10 15.0000000  0  6G17G30G24G 5G 6G10
  22515925.079         217.000
        74.000
  19629377.891       -5460.83159     -2717.57457  19629383.368    19629396.153
       232.000         206.000
  21953693.244         223.000
        74.000
  20407607.209       32616.14359     15590.28357  20407615.187    20407629.519
       231.000         196.000
  21025581.042      -11052.78757                                  21025602.652
       227.000         197.000
  20188140.704       -4317.59159     -2639.09057  20188146.995    20188160.470
       231.000         204.000
 98  6 15 19 10 30.0000000  0  7G17G30G24G 5G 6G 8G10
  22506947.722         218.000
       176.000
  19628528.442       -9952.32659     -6217.44647  19628528.765    19628541.588
       232.000         206.000
  21959236.263         223.000
       174.000
  20412664.263       59148.57159     36264.88047  20412664.555    20412678.571
       231.000         196.000
  21017988.479      -68022.53259    -42138.86857  21017995.536    21018010.053
       227.000         196.000
  23695362.710         210.000
        74.000
  20187619.095       -7092.15149     -4801.09347  20187618.933    20187632.832
       231.000         204.000
 98  6 15 19 11 15.0010000  0  7G17G30G24G 5G 6G 8G10
  23679231.455     -248790.70949   -174736.71246  23679231.364    23679247.580
       219.000         179.000
  20825301.127      -22545.66049    -16030.42947  20825302.427    20825314.955
       232.000         206.000
  23175035.776      153388.74559    107913.01556  23175036.111    23175050.856
       223.000         182.000
  21627093.025      139335.17349     98747.90847  21627093.252    21627107.485
       230.000         195.000
  22194428.611     -187500.77849   -135238.73247  22194429.254    22194443.503
       228.000         196.000
  24913869.178      299792.458      299792.458
       207.000         152.000
  21385371.677      -14537.65149    -10602.76847  21385371.908    21385385.421
       232.000         204.000
 98  6 15 19 11 30.0010000  0  7G17G30G24G 5G 6G 8G10
  23670293.114     -295759.49949   -211335.72146  23670293.144    23670309.219
       219.000         179.000
  20824564.256      -26417.89949    -19047.75547  20824565.586    20824578.216
       232.000         206.000
  23180588.268      182568.76849    130650.69046  23180588.902    23180604.117
       223.000         183.000
  21632221.817      166286.39049    119748.84047  21632222.211    21632236.442
       230.000         195.000
  22186864.776     -227246.62249   -166209.49447  22186865.914    22186880.485
       227.000         196.000
  24920313.352      120175.36045    299792.458                    24920330.392
       207.000         151.000
  21384960.538      -16700.01649    -12287.71947  21384960.595    21384973.901
       232.000         204.000
 98  6 15 19 11 45.0010000  0  7G17G30G24G 5G 6G 8G10
  23661368.643     -342657.80949   -247879.81646  23661368.576    23661384.937
       219.000         179.000
  20823860.038      -30118.79349    -21931.56347  20823861.182    20823874.128
       232.000         206.000
  23186146.568      211779.18649    153412.04046  23186147.539    23186162.639
       221.000         182.000
  21637373.540      193359.74549    140844.95047  21637373.813    21637388.296
       229.000         194.000
  22179311.412     -266941.74849   -197140.73847  22179311.896    22179326.482
       228.000         195.000
  24926755.421      198118.47949    146555.29345  24926757.171    24926774.751
       204.000         151.000
  21384580.706      -18694.94549    -13842.20747  21384581.057    21384594.485
       231.000         204.000
 98  6 15 19 12  0.0010000  0  7G17G30G24G 5G 6G 8G10
  23652458.504     -389480.28849   -284364.82046  23652458.658    23652475.284
       218.000         179.000
  20823189.252      -33643.65649    -24678.20847  20823190.600    20823203.354
       232.000         206.000
  23191711.942      241026.88349    176202.43746  23191712.656    23191727.978
       220.000         181.000
  21642549.983      220558.89949    162039.08447  21642549.799    21642564.028
       230.000         195.000
  22171768.651     -306580.98049   -228028.42547  22171769.063    22171783.584
       228.000         196.000
  24933198.972      231976.72249    172938.26045  24933197.895    24933217.594
       202.000         149.000
  21384234.686      -20515.71149    -15260.97747  21384234.548    21384248.144
       231.000         204.000
 98  6 15 19 12 15.0010000  0  7G17G30G24G 5G 6G 8G10
  23643562.440     -436228.18649   -320791.70946  23643562.933    23643579.429
       219.000         179.000
  20822552.001      -36992.56049    -27287.73647  20822553.136    20822566.139
       233.000         206.000
  23197284.895      270311.08749    199021.29146  23197285.916    23197301.077
       221.000         182.000
  21647749.001      247884.79649    183331.97347  21647750.056    21647763.944
       230.000         195.000
  22164234.872     -346168.00849   -258875.43347  22164235.924    22164250.397
       228.000         196.000
  24939641.553      265839.29349    199324.59955  24939642.730    24939660.378
       201.000         147.000
  21383921.501      -22160.87949    -16542.92047  21383921.358    21383934.926
       231.000         204.000
 98  6 15 19 12 30.0010000  0  7G17G30G24G 5G 6G 8G10
  23634682.553     -482892.51449   -357153.47246  23634683.066    23634699.146
       219.000         179.000
  20821949.953      -40155.61349    -29752.44647  20821951.195    20821964.412
       232.000         206.000
  23202866.323      299639.08249    221874.26246  23202866.978    23202881.666
       222.000         182.000
  21652974.574      275346.18949    204730.45247  21652975.597    21652989.711
       229.000         195.000
  22156713.086     -385697.15549   -289677.33747  22156713.978    22156728.154
       228.000         196.000
  24946088.624      299715.60259    225721.66745  24946088.783    24946107.895
       198.000         144.000
  21383643.442      -23622.00549    -17681.45247  21383643.132    21383657.119
       232.000         204.000
 98  6 15 19 12 45.0010000  0  7G17G30G24G 5G 6G 8G10
  23625818.197     -529473.67049   -393450.42646  23625818.903    23625835.066
       219.000         180.000
  20821383.018      -43134.61149    -32073.74147  20821384.352    20821397.215
       233.000         206.000
  23208454.305      329006.86949    244758.23846  23208455.203    23208470.532
       220.000         181.000
  21658226.760      302943.59949    226234.91247  21658227.308    21658241.092
       230.000         195.000
  22149201.182     -425173.34449   -320437.98247  22149201.768    22149216.249
       228.000         196.000
  24952537.876      333606.58249    252130.15245  24952538.025    24952556.741
       195.000         142.000
  21383400.546      -24898.05749    -18675.77447  21383400.544    21383413.966
       231.000         204.000
 98  6 15 19 13  0.0010000  0  7G17G30G24G 5G 6G 8G10
  23616968.752     -575976.69249   -429686.49946  23616969.840    23616985.954
       220.000         180.000
  20820850.409      -45934.13849    -34255.18647  20820851.634    20820864.661
       232.000         206.000
  23214049.036      358407.09849    267667.48946  23214049.693    23214064.705
       221.000         180.000
  21663504.053      330674.55749    247843.44147  21663504.396    21663518.401
       230.000         195.000
  22141698.644     -464599.60549   -351159.71747  22141699.221    22141713.594
       229.000         196.000
  24958988.440      367509.97148    278548.28945  24958989.069    24959007.488
       194.000         136.000
  21383192.846      -25990.22349    -19526.80447  21383192.596    21383206.038
       232.000         204.000
 98  6 15 19 13 15.0010000  0  7G17G30G24G 5G 6G 8G10
  23608137.436     -622390.05049   -465852.69746  23608137.426    23608153.999
       220.000         180.000
  20820353.491      -48545.91449    -36290.33347  20820354.667    20820367.398
       232.000         206.000
  23219651.622      387849.28349    290609.44246  23219652.754    23219667.740
       221.000         180.000
  21668808.040      358548.52149    269563.40347  21668808.597    21668822.556
       230.000         195.000
  22134207.178     -503965.94649   -381834.76047  22134208.399    22134222.289
       228.000         196.000
  24965444.306      401435.37449    304983.61745  24965445.269    24965462.915
       196.000         135.000
  21383020.973      -26891.67749    -20229.23147  21383021.318    21383034.840
       232.000         204.000
 98  6 15 19 13 30.0010000  0  7G17G30G24G 5G 6G 8G10
  23599322.718     -668709.89649   -501946.03346  23599323.259    23599339.198
       220.000         181.000
  20819891.963      -50970.71449    -38179.78147  20819893.265    20819906.144
       232.000         206.000
  23225263.561      417337.82649    313587.51646  23225264.311    23225279.348
       221.000         181.000
  21674139.833      386565.14349    291394.52547  21674140.052    21674154.081
       230.000         195.000
  22126727.617     -543272.14149   -412462.94147  22126728.410    22126742.714
       228.000         197.000
  24971905.021      435385.55248    331438.24345  24971904.754    24971925.872
       194.000         133.000
  21382885.686      -27602.73249    -20783.29447  21382886.186    21382899.631
       232.000         204.000
 98  6 15 19 13 45.0010000  0  7G17G30G24G 5G 6G 8G10
  23590527.895     -714925.87949   -537958.44046  23590528.425    23590544.959
       221.000         181.000
  20819466.934      -53204.61249    -39920.47447  20819467.960    20819480.855
       232.000         206.000
  23230884.777      446879.21849    336606.77246  23230885.978    23230900.347
       221.000         180.000
  21679498.422      414727.57349    313339.26647  21679499.089    21679513.385
       230.000         195.000
  22119260.700     -582511.35849   -443038.92847  22119261.406    22119275.610
       229.000         197.000
  24978371.910      469368.52649    357918.42044  24978372.206    24978392.639
       196.000         128.000
  21382787.738      -28120.20049    -21186.51047  21382787.669    21382800.992
       232.000         205.000
 98  6 15 19 14  0.0010000  0  6G17G30G24G 5G 6G10
  23581752.482     -761041.08549   -573892.32246  23581752.743    23581768.911
       221.000         181.000
  20819077.372      -55252.83949    -41516.48647  20819078.374    20819091.386
       233.000         206.000
  23236515.734      476467.50949    359662.57246  23236516.130    23236531.569
       220.000         180.000
  21684883.554      443026.17249    335390.11147  21684884.276    21684898.453
       230.000         195.000
  22111805.328     -621690.05249   -473567.75047  22111806.204    22111819.989
       229.000         197.000
  21382725.331      -28447.42049    -21441.48147  21382725.515    21382738.807
       232.000         205.000
 98  6 15 19 14 15.0010000  0  6G17G30G24G 5G 6G10
  23572997.593     -807049.37349   -609742.88646  23572997.818    23573014.261
       220.000         181.000
  20818724.126      -57109.04349    -42962.87747  20818725.252    20818738.051
       233.000         206.000
  23242156.143      506106.27349    382757.69146  23242156.454    23242171.332
       221.000         180.000
  21690295.730      471464.29049    357549.66447  21690295.850    21690309.999
       230.000         195.000
  22104361.281     -660807.93949   -504049.19947  22104362.213    22104376.035
       229.000         197.000
  21382699.979      -28578.65249    -21543.74247  21382700.314    21382713.853
       232.000         204.000
 98  6 15 19 14 30.0010000  0  6G17G30G24G 5G 6G10
  23564263.953     -852947.47449   -645507.58746  23564263.823    23564279.733
       221.000         181.000
  20818408.734      -58766.31049    -44254.24947  20818410.007    20818422.709
       233.000         206.000
  23247806.206      535796.65949    405893.04646  23247806.756    23247820.983
       221.000         180.000
  21695734.605      500046.28849    379821.34247  21695734.743    21695749.034
       230.000         196.000
  22096929.728     -699862.49849   -534481.29747  22096930.295    22096944.375
       230.000         197.000
  21382713.129      -28510.88649    -21490.93347  21382712.885    21382726.854
       232.000         204.000
 98  6 15 19 14 45.0010000  0  6G17G30G24G 5G 6G10
  23555551.912     -898726.33049   -681179.37446  23555552.327    23555568.199
       220.000         181.000
  20818132.592      -60216.23849    -45384.06047  20818134.101    20818146.805
       233.000         206.000
  23253466.440      565545.12549    429073.66546  23253467.031    23253482.169
       221.000         180.000
  21701201.909      528778.85949    402210.34647  21701202.499    21701216.547
       230.000         196.000
  22089511.607     -738844.86249   -564857.13947  22089512.388    22089525.732
       230.000         197.000
  21382765.428      -28237.18449    -21277.65147  21382765.465    21382778.767
       232.000         204.000
 98  6 15 19 15  0.0010000  0  6G17G30G24G 5G 6G10
  23546863.181     -944386.07349   -716758.34646  23546863.470    23546879.684
       221.000         181.000
  20817896.479      -61459.24549    -46352.63347  20817897.268    20817910.428
       233.000         206.000
  23259138.414      595350.71549    452298.78746  23259138.805    23259154.159
       221.000         180.000
  21706698.278      557662.00949    424716.67747  21706698.816    21706712.940
       230.000         196.000
  22082107.772     -777751.19849   -595173.74347  22082108.709    22082122.282
       229.000         197.000
  21382856.182      -27759.25849    -20905.24347  21382856.289    21382870.074
       231.000         204.000
 98  6 15 19 15 15.0010000  0  6G17G30G24G 5G 6G10
  23538197.559     -989925.04449   -752243.20446  23538197.550    23538213.641
       220.000         181.000
  20817699.363      -62492.71149    -47157.92847  20817700.803    20817713.642
       232.000         206.000
  23264821.606      625216.73549    475570.99346  23264822.313    23264837.575
       220.000         180.000
  21712223.365      586696.82449    447341.19847  21712223.727    21712238.200
       230.000         196.000
  22074719.019     -816579.36849   -625429.43847  22074720.281    22074733.947
       230.000         198.000
  21382986.177      -27076.16749    -20372.96247  21382986.574    21383000.047
       232.000         204.000
 98  6 15 19 15 30.0010000  0  6G17G30G24G 5G 6G10
  23529553.954    -1035344.09549   -787634.62546  23529554.591    23529570.882
       219.000         180.000
  20817543.230      -63314.05549    -47797.92947  20817544.352    20817557.252
       233.000         206.000
  23270516.611      655144.54949    498891.35146  23270517.679    23270532.884
       221.000         180.000
  21717778.094      615883.29749    470083.88947  21717778.123    21717792.086
       231.000         196.000
  22067344.838     -855328.91149   -655623.86147  22067346.115    22067359.667
       230.000         198.000
  21383155.283      -26187.11049    -19680.18847  21383155.390    21383168.900
       231.000         204.000
 98  6 15 19 15 45.0010000  0  6G17G30G24G 5G 6G10
  23520932.869    -1080647.46449   -822935.90546  23520933.711    23520949.511
       220.000         181.000
  20817427.011      -63924.34349    -48273.47547  20817428.087    20817441.052
       233.000         206.000
  23276223.203      685133.15649    522259.08346  23276224.227    23276239.226
       220.000         179.000
  21723361.507      645224.05249    492946.80447  21723361.365    21723375.368
       231.000         196.000
  22059986.914     -893998.72449   -685756.15847  22059987.744    22060000.902
       230.000         198.000
  21383364.003      -25090.24749    -18825.48847  21383364.220    21383377.755
       232.000         204.000
 98  6 15 19 16  0.0010000  0  6G17G30G24G 5G 6G10
  23512335.226    -1125830.99749   -858143.81146  23512335.067    23512351.403
       221.000         181.000
  20817352.443      -64317.70749    -48579.99047  20817353.591    20817366.396
       233.000         207.000
  23281942.218      715185.68349    545676.62646  23281942.831    23281958.009
       220.000         179.000
  21728976.084      674729.86449    515938.33647  21728976.165    21728990.551
       231.000         196.000
  22052645.279     -932577.76949   -715817.72747  22052646.182    22052659.702
       230.000         198.000
  21383613.546      -23777.15649    -17802.30047  21383614.105    21383627.414
       232.000         204.000
 98  6 15 19 16 15.0010000  0  6G17G30G24G 5G 6G10
  23503758.147    -1170904.04149   -893265.61946  23503758.361    23503774.479
       220.000         181.000
  20817316.881      -64502.97249    -48724.34847  20817318.430    20817330.937
       233.000         207.000
  23287671.568      745292.90449    569136.78446  23287672.141    23287687.003
       222.000         179.000
  21734620.727      704394.47549    539053.60147  21734621.469    21734635.384
       231.000         196.000
  22045319.696     -971073.12949   -745814.08447  22045320.488    22045334.553
       230.000         198.000
  21383903.358      -22255.84749    -16616.86447  21383903.572    21383916.957
       232.000         204.000
 98  6 15 19 16 30.0010000  0  6G17G30G24G 5G 6G10
  23495201.681    -1215868.46549   -928302.77046  23495201.932    23495217.595
       222.000         180.000
  20817321.648      -64480.19749    -48706.59747  20817322.604    20817335.444
       233.000         206.000
  23293411.028      775454.87849    592639.60546  23293411.995    23293427.130
       224.000         179.000
  21740296.194      734219.35149    562293.75147  21740296.491    21740310.833
       231.000         195.000
  22038010.936    -1009482.11849   -775743.14847  22038011.999    22038025.612
       230.000         198.000
  21384232.353      -20527.89849    -15270.41347  21384232.490    21384245.824
       231.000         204.000
 98  6 15 19 16 45.0010000  0  6G17G30G24G 5G 6G10
  23486667.029    -1260719.12649   -963251.29846  23486667.031    23486683.235
       223.000         181.000
  20817365.735      -64245.19449    -48523.47347  20817367.186    20817379.957
       232.000         206.000
  23299162.610      805680.04549    616191.67546  23299163.968    23299178.731
       223.000         180.000
  21746002.855      764209.85049    585662.95947  21746003.724    21746017.767
       230.000         195.000
  22030720.474    -1047793.17349   -805595.89147  22030721.164    22030735.091
       230.000         198.000
  21384600.528      -18590.31849    -13760.61047  21384600.969    21384614.609
       231.000         204.000
 98  6 15 19 17  0.0010000  0  6G17G30G24G 5G 6G10
  23478152.127    -1305460.83749   -998114.91746  23478153.210    23478168.618
       221.000         182.000
  20817448.972      -63809.37149    -48183.86847  20817450.070    20817463.078
       232.000         206.000
  23304925.223      835964.12249    639789.64846  23304926.265    23304941.228
       221.000         179.000
  21751740.110      794358.85549    609155.67047  21751741.065    21751755.127
       230.000         195.000
  22023447.408    -1086010.81349   -835375.85047  22023448.639    22023462.657
       230.000         199.000
  21385007.775      -16449.72249    -12092.61547  21385008.145    21385022.256
       231.000         205.000
 98  6 15 19 17 15.0010000  0  6G17G30G24G 5G 6G10
  23469660.902    -1350085.45149  -1032887.29546  23469660.967    23469677.017
       221.000         182.000
  20817571.045      -63166.10149    -47682.61847  20817572.370    20817585.325
       233.000         206.000
  23310701.063      866317.21649    663441.38546  23310701.699    23310717.210
       220.000         179.000
  21757508.122      824672.78849    632776.90247  21757509.429    21757523.487
       229.000         195.000
  22016194.600    -1124128.18549   -865077.67947  22016195.184    22016209.163
       230.000         199.000
  21385456.107      -14095.20449    -10257.92847  21385456.251    21385470.113
       231.000         204.000
 98  6 15 19 17 30.0010000  0  6G17G30G24G 5G 6G10
  23461190.597    -1394594.56949  -1067569.67846  23461191.673    23461207.608
       220.000         182.000
  20817733.049      -62315.34449    -47019.68647  20817734.122    20817747.338
       233.000         207.000
  23316490.238      896738.57049    687146.33046  23316491.246    23316506.269
       222.000         178.000
  21763307.912      855149.83249    656525.22947  21763308.601    21763323.101
       229.000         194.000
  22008959.159    -1162148.21349   -894703.64747  22008960.170    22008974.280
       230.000         199.000
  21385944.948      -11525.61849     -8255.65647  21385945.129    21385959.218
       231.000         204.000
 98  6 15 19 17 45.0010000  0  6G17G30G24G 5G 6G10
  23452743.866    -1438980.61949  -1102156.16046  23452744.858    23452760.730
       220.000         182.000
  20817935.126      -61253.58949    -46192.34347  20817936.261    20817949.535
       233.000         206.000
  23322293.367      927234.46649    710909.34946  23322294.684    23322308.860
       222.000         178.000
  21769139.512      885795.56549    680405.00847  21769140.303    21769154.528
       230.000         195.000
  22001743.458    -1200064.84049   -924249.04947  22001744.845    22001758.642
       230.000         198.000
  21386475.582       -8735.52849     -6081.56247  21386476.046    21386489.940
       231.000         204.000
 98  6 15 19 18  0.0010000  0  6G17G30G24G 5G 6G10
  23444319.828    -1483250.32449  -1136651.99746  23444320.654    23444336.696
       220.000         182.000
  20818174.976      -59991.93649    -45209.23547  20818176.493    20818189.771
       232.000         206.000
  23328107.662      957791.65449    734720.13646  23328108.564    23328124.643
       220.000         178.000
  21775002.085      916600.10649    704408.53147  21775002.548    21775016.894
       229.000         194.000
  21994545.761    -1237889.49849   -953722.78947  21994546.740    21994560.379
       230.000         199.000
  21387046.417       -5736.50449     -3744.66347  21387046.839    21387061.034
       231.000         204.000
 98  6 15 19 18 15.0010000  0  6G17G30G24G 5G 6G10
  23435919.512    -1527395.06149  -1171050.44546  23435919.713    23435935.927
       220.000         182.000
  20818454.468      -58522.97249    -44064.58447  20818455.865    20818468.966
       232.000         206.000
  23333935.373      988415.43349    758582.79946  23333936.176    23333952.138
       221.000         178.000
  21780893.997      947565.96349    728537.75747  21780895.094    21780909.773
       228.000         193.000
  21987365.460    -1275621.25849   -983124.14247  21987366.665    21987380.627
       230.000         199.000
  21387657.068       -2526.63349     -1243.46647  21387657.483    21387671.634
       230.000         204.000
 98  6 15 19 18 30.0010000  0  6G17G30G24G 5G 6G10
  23427542.857    -1571415.28449  -1205351.87946  23427542.583    23427559.057
       220.000         182.000
  20818773.556      -56846.24549    -42758.04247  20818775.129    20818787.963
       233.000         207.000
  23339775.738     1019107.30149    782498.52946  23339777.120    23339792.624
       219.000         179.000
  21786817.500      978691.50349    752791.40647  21786818.236    21786832.519
       228.000         193.000
  21980202.628    -1313263.88649  -1012456.03347  21980203.703    21980217.375
       230.000         199.000
  21388307.569         892.90549      1421.10347  21388308.232    21388322.546
       230.000         204.000
 98  6 15 19 18 45.0010000  0  6G17G30G24G 5G 6G10
  23419189.482    -1615311.49249  -1239556.67446  23419189.796    23419205.838
       221.000         182.000
  20819132.771      -54959.89849    -41288.16247  20819134.231    20819147.122
       233.000         207.000
  23345630.432     1049869.60149    806469.12746  23345631.071    23345646.386
       221.000         177.000
  21792770.779     1009976.64949    777169.42747  21792771.287    21792785.995
       228.000         193.000
  21973056.590    -1350816.89549  -1041718.09847  21973057.424    21973071.210
       231.000         199.000
  21388999.380        4524.72049      4251.08547  21388999.455    21389013.348
       231.000         204.000
 98  6 15 19 19  0.0010000  0  6G17G30G24G 5G 6G10
  23410859.169    -1659089.26549  -1273669.17746  23410859.497    23410875.397
       220.000         182.000
  20819530.221      -52871.88849    -39661.13847  20819531.320    20819544.392
       233.000         207.000
  23351496.313     1080694.37549    830488.43246  23351496.904    23351511.826
       221.000         177.000
  21798752.375     1041411.53149    801664.12247  21798753.473    21798767.993
       228.000         193.000
  21965925.460    -1388291.52849  -1070919.08547  21965926.407    21965940.328
       231.000         199.000
  21389729.998        8364.82849      7243.37347  21389730.385    21389744.666
       231.000         204.000
 98  6 15 19 19 15.0010000  0  6G17G30G24G 5G 6G10
  23402551.623    -1702744.15649  -1307685.93746  23402552.313    23402568.192
       221.000         182.000
  20819966.975      -50576.14849    -37872.25247  20819968.567    20819981.161
       233.000         207.000
  23357374.235     1111584.28249    854558.47046  23357375.086    23357390.578
       219.000         177.000
  21804763.766     1073001.99749    826280.05147  21804764.949    21804779.016
       228.000         193.000
  21958809.795    -1425685.56849  -1100057.27547  21958810.724    21958824.456
       231.000         199.000
  21390501.526       12420.69449     10403.78247  21390501.791    21390516.412
       230.000         204.000
 98  6 15 19 19 30.0010000  0  6G17G30G24G 5G 6G10
  23394266.850    -1746279.48249  -1341609.52246  23394267.905    23394283.140
       220.000         183.000
  20820443.880      -48070.78649    -35920.02247  20820445.162    20820457.975
       234.000         207.000
  23363264.066     1142536.18849    878676.82946  23363264.881    23363280.717
       219.000         178.000
  21810805.824     1104748.91249    851017.88947  21810806.288    21810820.472
       228.000         193.000
  21951708.567    -1463000.49849  -1129133.82247  21951709.596    21951723.399
       230.000         199.000
  21391313.651       16687.88049     13728.86347  21391313.993    21391328.186
       231.000         205.000
 98  6 15 19 19 45.0010000  0  6G17G30G24G 5G 6G10
  23386005.969    -1789691.30849  -1375436.88246  23386006.820    23386022.623
       219.000         183.000
  20820961.127      -45352.55749    -33801.92147  20820962.551    20820975.268
       234.000         207.000
  23369166.436     1173551.62949    902844.69046  23369166.926    23369182.825
       219.000         178.000
  21816877.960     1136658.33649    875882.35747  21816878.437    21816892.583
       228.000         193.000
  21944623.661    -1500232.16949  -1158145.49447  21944624.678    21944638.375
       230.000         199.000
  21392166.224       21167.07449     17219.14247  21392166.083    21392180.896
       230.000         204.000
 98  6 15 19 20  0.0010000  0  6G17G30G24G 5G 6G10
  23377768.369    -1832980.78949  -1409168.90146  23377768.988    23377784.480
       223.000         183.000
  20821519.205      -42420.85849    -31517.47847  20821520.186    20821533.264
       234.000         207.000
  23375081.026     1204632.20949    927063.30246  23375081.896    23375096.928
       220.000         177.000
  21822981.334     1168732.20149    900874.95947  21822981.528    21822995.925
       228.000         192.000
  21937554.711    -1537380.77849  -1187092.44447  21937555.666    21937569.507
       230.000         199.000
  21393058.235       25856.08349     20872.91347  21393058.622    21393072.978
       230.000         205.000
 98  6 15 19 20 15.0010000  0  6G17G30G24G 5G 6G10
  23369554.636    -1876144.90449  -1442803.23646  23369555.243    23369570.809
       223.000         183.000
  20822119.267      -39267.42949    -29060.26247  20822120.552    20822133.320
       234.000         207.000
  23381009.430     1235785.57649    951338.64146  23381009.889    23381025.756
       220.000         176.000
  21829117.757     1200978.12149    926001.62447  21829118.335    21829132.622
       229.000         193.000
  21930503.162    -1574437.19349  -1215967.54547  21930503.909    21930517.875
       230.000         199.000
  21393991.963       30760.69149     24694.68247  21393992.153    21394006.361
       231.000         205.000
 98  6 15 19 20 30.0010000  0  6G17G30G24G 5G 6G10
  23361362.981    -1919194.18049  -1476348.08746  23361363.090    23361378.737
       223.000         183.000
  20822759.700      -35901.40749    -26437.38447  20822760.865    20822773.677
       234.000         207.000
  23386949.917     1267006.66349    975666.74646  23386951.373    23386966.364
       216.000         175.000
  21835284.915     1233387.03249    951255.29947  21835285.427    21835299.803
       228.000         192.000
  21923468.511    -1611404.15149  -1244772.94247  21923469.277    21923483.116
       230.000         199.000
  21394964.968       35874.24649     28679.27147  21394965.126    21394979.447
       231.000         205.000
 98  6 15 19 20 45.0010000  0  6G17G30G24G 5G 6G10
  23353191.863    -1962133.59549  -1509807.33046  23353192.049    23353208.083
       222.000         183.000
  20823440.190      -32326.37749    -23651.65347  20823441.555    20823454.076
       234.000         207.000
  23392903.472     1298291.10249   1000044.20446  23392904.583    23392919.494
       217.000         175.000
  21841482.428     1265953.91849    976632.06747  21841482.906    21841497.168
       229.000         192.000
  21916450.999    -1648280.64449  -1273507.85547  21916451.997    21916465.670
       230.000         199.000
  21395977.865       41195.46249     32825.66647  21395978.014    21395992.055
       231.000         205.000
 98  6 15 19 21  0.0010000  0  6G17G30G24G 5G 6G10
  23345042.157    -2004960.16849  -1543178.64046  23345042.361    23345058.357
       223.000         184.000
  20824160.602      -28542.42549    -20703.12647  20824161.751    20824174.284
       234.000         208.000
  23398869.490     1329639.97549   1024471.88246  23398870.218    23398885.188
       218.000         176.000
  21847709.153     1298676.91249   1002130.48447  21847709.572    21847724.100
       229.000         193.000
  21909450.870    -1685066.15549  -1302171.86947  21909452.158    21909465.662
       229.000         199.000
  21397029.487       46723.19549     37132.98647  21397029.733    21397044.032
       231.000         205.000
 98  6 15 19 21 15.0010000  0  6G17G30G24G 5G 6G10
  23336914.420    -2047668.36949  -1576457.72446  23336915.530    23336931.113
       222.000         184.000
  20824921.122      -24544.87349    -17588.15047  20824922.245    20824934.835
       234.000         207.000
  23404847.787     1361057.72049   1048953.22146  23404848.460    23404863.431
       218.000         175.000
  21853967.085     1331563.78949   1027756.60447  21853967.917    21853982.288
       227.000         192.000
  21902469.966    -1721752.65749  -1330758.73447  21902470.729    21902484.280
       229.000         198.000
  21398120.929       52459.20749     41602.60747  21398121.228    21398135.585
       230.000         205.000
 98  6 15 19 21 30.0010000  0  6G17G30G24G 5G 6G10
  23328809.977    -2090259.28249  -1609645.40946  23328810.503    23328825.859
       223.000         184.000
  20825722.017      -20334.89749    -14307.64847  20825723.360    20825736.174
       234.000         207.000
  23410839.981     1392544.91549   1073488.68846  23410840.460    23410855.621
       217.000         175.000
  21860257.664     1364616.14149   1053511.66547  21860257.435    21860271.917
       228.000         193.000
  21895507.720    -1758337.51149  -1359266.38447  21895508.632    21895522.289
       229.000         198.000
  21399251.767       58399.70049     46231.56247  21399251.805    21399265.939
       230.000         205.000
 98  6 15 19 21 45.0010000  0  6G17G30G24G 5G 6G10
  23320727.669    -2132728.34649  -1642738.15346  23320728.907    23320744.672
       221.000         184.000
  20826564.456      -15908.67249    -10858.64447  20826565.720    20826578.432
       234.000         207.000
  23416846.167     1424107.63949   1098082.99246  23416846.977    23416862.337
       218.000         176.000
  21866578.545     1397834.80049   1079396.31247  21866579.294    21866593.402
       228.000         193.000
  21888566.155    -1794817.55249  -1387692.37547  21888567.271    21888581.050
       229.000         198.000
  21400421.631       64550.64849     51024.50747  21400422.268    21400436.522
       230.000         205.000
 98  6 15 19 22  0.0010000  0  6G17G30G24G 5G 6G10
  23312669.184    -2175078.79249  -1675738.45646  23312669.327    23312685.629
       223.000         184.000
  20827447.267      -11268.69449     -7243.07847  20827448.560    20827461.486
       234.000         207.000
  23422866.571     1455744.91049   1122735.39146  23422867.147    23422882.381
       218.000         176.000
  21872930.589     1431215.14449   1105406.95147  21872930.876    21872945.528
       228.000         193.000
  21881644.257    -1831193.51349  -1416037.25447  21881644.793    21881658.989
       230.000         199.000
  21401632.043       70909.97549     55979.82547  21401632.414    21401646.955
       230.000         205.000
 98  6 15 19 22 15.0010000  0  6G17G30G24G 5G 6G10
  23304631.612    -2217316.11649  -1708650.62846  23304632.079    23304648.434
       222.000         184.000
  20828369.773       -6420.95749     -3465.62147  20828370.997    20828383.734
       234.000         207.000
  23428899.976     1487451.16449   1147441.54746  23428900.408    23428916.086
       217.000         176.000
  21879311.445     1464748.80549   1131537.06047  21879312.345    21879326.705
       228.000         192.000
  21874740.793    -1867469.43349  -1444304.18147  21874741.701    21874755.758
       230.000         199.000
  21402880.890       77473.84049     61094.52847  21402881.352    21402895.667
       230.000         205.000
 98  6 15 19 22 30.0010000  0  6G17G30G24G 5G 6G10
  23296617.097    -2259431.48449  -1741467.76146  23296617.489    23296633.854
       221.000         184.000
  20829332.930       -1359.72249       478.19547  20829334.171    20829346.778
       234.000         207.000
  23434947.250     1519230.53449   1172204.68046  23434947.797    23434962.858
       217.000         177.000
  21885722.350     1498438.62249   1157788.84647  21885722.938    21885737.638
       229.000         192.000
  21867857.991    -1903637.18349  -1472486.82647  21867858.972    21867873.087
       230.000         199.000
  21404171.070       84251.94849     66376.16747  21404171.057    21404185.428
       230.000         205.000
 98  6 15 19 22 45.0010000  0  6G17G30G24G 5G 6G10
  23288624.700    -2301432.75349  -1774195.98746  23288624.632    23288641.049
       222.000         184.000
  20830334.789        3906.27049      4581.56447  20830336.249    20830348.954
       234.000         207.000
  23441006.576     1551072.48049   1197016.57046  23441007.498    23441022.595
       217.000         176.000
  21892161.020     1532273.83249   1184153.92947  21892161.626    21892176.073
       227.000         192.000
  21860993.921    -1939709.07649  -1500594.77747  21860994.813    21861008.825
       230.000         199.000
  21405500.460       91238.06149     71819.89447  21405500.528    21405514.884
       230.000         205.000
 98  6 15 19 23  0.0010000  0  6G17G30G24G 5G 6G10
  23280655.365    -2343313.48049  -1806830.28746  23280655.403    23280671.723
       222.000         184.000
  20831376.754        9382.49549      8848.75047  20831378.264    20831391.235
       234.000         207.000
  23447078.821     1582983.25549   1221882.08346  23447079.432    23447094.776
       216.000         176.000
  21898628.435     1566260.46349   1210637.00347  21898629.167    21898643.796
       227.000         192.000
  21854148.341    -1975684.53649  -1528627.57947  21854149.332    21854163.029
       230.000         199.000
  21406870.531       98438.49949     77430.62747  21406870.884    21406884.972
       230.000         205.000
 98  6 15 19 23 15.0010000  0  6G17G30G24G 5G 6G10
  23272709.193    -2385070.18549  -1839367.95046  23272709.449    23272725.733
       223.000         185.000
  20832459.430       15070.62249     13281.05347  20832460.563    20832473.669
       234.000         207.000
  23453165.138     1614964.24649   1246802.31046  23453165.817    23453180.594
       217.000         176.000
  21905125.479     1600401.34649   1237240.26647  21905126.537    21905140.922
       227.000         192.000
  21847320.873    -2011563.03149  -1556584.83047  21847321.654    21847335.533
       231.000         199.000
  21408282.245      105854.56949     83209.38247  21408282.072    21408296.417
       231.000         205.000
 98  6 15 19 23 30.0010000  0  6G17G30G24G 5G 6G10
  23264786.187    -2426707.86749  -1871812.86146  23264786.175    23264801.733
       223.000         185.000
  20833581.399       20966.59449     17875.31847  20833582.836    20833595.602
       234.000         207.000
  23459262.792     1647009.83849   1271772.88546  23459263.518    23459279.309
       217.000         176.000
  21911650.895     1634691.74449   1263960.04047  21911651.416    21911665.958
       227.000         192.000
  21840510.654    -2047349.24249  -1584470.16847  21840511.751    21840525.936
       231.000         199.000
  21409733.872      113482.32849     89153.09747  21409733.659    21409748.027
       231.000         205.000
 98  6 15 19 23 45.0010000  0  6G17G30G24G 5G 6G10
  23256885.454    -2468225.33449  -1904164.10146  23256885.796    23256901.768
       223.000         185.000
  20834743.572       27071.99549     22632.76847  20834744.636    20834757.390
       234.000         207.000
  23465374.240     1679121.57149   1296795.00046  23465375.111    23465389.568
       218.000         176.000
  21918204.765     1669130.76449   1290795.62347  21918204.918    21918219.639
       227.000         192.000
  21833718.339    -2083044.19849  -1612284.40147  21833719.174    21833732.654
       231.000         199.000
  21411225.929      121323.63949     95263.21047  21411225.918    21411240.003
       231.000         206.000
 98  6 15 19 24  0.0010000  0  6G17G30G24G 5G 6G10
  23249007.709    -2509620.54149  -1936420.07146  23249008.715    23249024.324
       223.000         186.000
  20835945.673       33390.61149     27556.36047  20835947.071    20835959.788
       235.000         207.000
  23471496.704     1711298.43949   1321867.86846  23471497.641    23471512.902
       218.000         176.000
  21924786.455     1703720.16449   1317748.38547  21924787.109    21924801.447
       227.000         192.000
  21826944.309    -2118643.15049  -1640023.82747  21826945.102    21826959.008
       231.000         199.000
  21412758.919      129380.68149    101541.42647  21412759.247    21412773.254
       231.000         206.000
 98  6 15 19 24 15.0010000  0  6G17G30G24G 5G 6G10
  23241153.910    -2550896.69049  -1968583.27346  23241154.285    23241169.368
       224.000         185.000
  20837187.978       39918.54249     32643.05947  20837189.322    20837201.732
       234.000         207.000
  23477631.370     1743535.80149   1346987.87046  23477632.174    23477647.387
       218.000         175.000
  21931396.882     1738457.90149   1344816.72847  21931397.886    21931411.809
       228.000         192.000
  21820187.897    -2154147.38349  -1667689.44447  21820188.822    21820202.528
       231.000         199.000
  21414332.281      137647.85249    107983.38147  21414332.422    21414346.501
       231.000         206.000
 98  6 15 19 24 30.0010000  0  6G17G30G24G 5G 6G10
  23233321.964    -2592051.73849  -2000652.11046  23233322.403    23233337.654
       224.000         185.000
  20838470.083       46657.00449     37893.81247  20838471.530    20838484.451
       234.000         207.000
  23483777.547     1775833.68749   1372155.04246  23483778.618    23483792.609
       218.000         175.000
  21938035.835     1773343.47449   1372000.27647  21938036.333    21938050.314
       228.000         192.000
  21813449.605    -2189557.71049  -1695281.88947  21813450.455    21813464.078
       231.000         200.000
  21415945.835      146126.70749    114590.29147  21415945.783    21415960.023
       231.000         206.000
 98  6 15 19 24 45.0010000  0  6G17G30G24G 5G 6G10
  23225512.747    -2633089.67949  -2032629.69446  23225513.057    23225528.642
       223.000         185.000
  20839792.329       53603.96749     43307.02547  20839793.562    20839806.081
       234.000         207.000
  23489934.947     1808189.68449   1397367.49446  23489935.460    23489950.558
       218.000         177.000
  21944702.337     1808376.88549   1399299.02047  21944703.071    21944717.069
       228.000         192.000
  21806728.757    -2224878.00549  -1722804.17847  21806729.469    21806743.043
       232.000         199.000
  21417598.269      154809.90049    121356.41647  21417598.154    21417612.137
       231.000         206.000
 98  6 15 19 25  0.0010000  0  6G17G30G24G 5G 6G10
  23217724.623    -2674015.20049  -2064519.67546  23217725.273    23217740.876
       223.000         185.000
  20841153.726       60757.64349     48881.31547  20841154.917    20841167.573
       235.000         207.000
  23496102.279     1840600.46449   1422622.63746  23496103.268    23496118.069
       218.000         176.000
  21951396.881     1843554.28649   1426709.96847  21951396.706    21951411.126
       228.000         192.000
  21800023.715    -2260111.69849  -1750258.98547  21800024.560    21800037.890
       232.000         200.000
  21419287.947      163689.02749    128275.22147  21419288.081    21419302.013
       231.000         206.000
 98  6 15 19 25 15.0010000  0  6G17G30G24G 5G 6G10
  23209960.255    -2714818.50249  -2096314.42446  23209960.361    23209975.808
       223.000         185.000
  20842555.911       68127.71349     54624.22547  20842557.179    20842570.245
       234.000         207.000
  23502281.051     1873073.15249   1447926.01246  23502282.347    23502297.886
       218.000         176.000
  21958120.059     1878885.78949   1454240.99047  21958120.186    21958134.624
       228.000         191.000
  21793337.335    -2295247.63949  -1777637.62547  21793338.559    21793351.979
       232.000         200.000
  21421015.206      172766.24549    135348.38547  21421015.352    21421029.209
       231.000         206.000
 98  6 15 19 25 30.0010000  0  6G17G30G24G 5G 6G10
  23202218.056    -2755502.89149  -2128016.51346  23202218.446    23202234.177
       224.000         186.000
  20843999.505       75712.13749     60534.15947  20844000.754    20844013.176
       235.000         207.000
  23508472.008     1905605.58749   1473275.94546  23508472.815    23508488.126
       217.000         174.000
  21964872.115     1914370.72349   1481891.57147  21964872.954    21964886.602
       227.000         192.000
  21786670.321    -2330285.34649  -1804939.71447  21786670.939    21786684.697
       232.000         200.000
  21422779.306      182037.72149    142572.91947  21422779.393    21422793.513
       231.000         206.000
 98  6 15 19 25 45.0010000  0  6G17G30G24G 5G 6G10
  23194497.724    -2796075.61449  -2159631.58646  23194497.660    23194513.394
       224.000         185.000
  20845482.861       83506.00249     66607.30147  20845483.857    20845496.627
       235.000         207.000
  23514673.145     1938192.78849   1498668.55746  23514674.239    23514689.010
       216.000         174.000
  21971653.288     1950004.62949   1509658.23647  21971654.025    21971668.182
       228.000         191.000
  21780021.095    -2365226.21949  -1832166.35247  21780022.147    21780035.450
       232.000         200.000
  21424580.336      191500.19049    149946.27847  21424580.230    21424594.049
       233.000         206.000
 98  6 15 19 26  0.0010000  0  6G17G30G24G 5G 6G10
  23186797.136    -2836541.28349  -2191163.24446  23186797.587    23186813.439
       225.000         185.000
  20847004.695       91505.35849     72840.56547  20847006.031    20847018.650
       234.000         207.000
  23520883.473     1970828.48649   1524098.95346  23520884.432    23520899.737
       217.000         174.000
  21978461.021     1985782.94049   1537537.41947  21978461.997    21978476.167
       228.000         191.000
  21773390.214    -2400072.66049  -1859319.40347  21773390.753    21773404.330
       232.000         200.000
  21426416.332      201150.50649    157466.00647  21426416.604    21426430.490
       231.000         206.000
 98  6 15 19 26 15.0010000  0  6G17G30G24G 5G 6G10
  23179116.985    -2876898.37749  -2222610.29446  23179117.271    23179133.034
       224.000         186.000
  20848566.155       99711.37749     79234.86047  20848567.583    20848580.394
       234.000         207.000
  23527103.515     2003513.83849   1549568.04046  23527104.880    23527119.373
       217.000         174.000
  21985297.264     2021704.68649   1565528.37247  21985298.221    21985312.026
       227.000         191.000
  21766776.656    -2434824.07049  -1886398.40747  21766777.725    21766791.105
       232.000         200.000
  21428288.942      210989.85949    165133.04447  21428289.111    21428303.134
       232.000         206.000
 98  6 15 19 26 30.0010000  0  6G17G30G24G 5G 6G10
  23171457.962    -2917146.56849  -2253972.48846  23171459.102    23171474.651
       224.000         186.000
  20850167.431      108124.37249     85790.43647  20850168.262    20850181.260
       234.000         207.000
  23533334.209     2036254.17649   1575079.98646  23533335.073    23533349.813
       217.000         174.000
  21992160.424     2057769.52849   1593630.83247  21992161.355    21992174.664
       227.000         190.000
  21760181.952    -2469483.14849  -1913405.46147  21760182.502    21760196.145
       233.000         200.000
  21430197.603      221019.54849    172948.39247  21430197.802    21430211.673
       232.000         207.000
 98  6 15 19 26 45.0000000  0  6G17G30G24G 5G 6G10
  23163819.642    -2957287.93649  -2285251.44346  23163820.233    23163835.447
       224.000         186.000
  20851806.738      116739.73749     92503.70647  20851807.949    20851820.615
       235.000         207.000
  23539573.913     2069043.76549   1600630.29546  23539574.675    23539589.517
       216.000         172.000
  21999049.349     2093971.83649   1621840.40447  21999050.018    21999064.107
       227.000         191.000
  21753604.307    -2504049.66849  -1940340.39547  21753605.062    21753618.341
       233.000         201.000
  21432141.834      231236.88149    180909.95847  21432142.156    21432155.770
       232.000         206.000
 98  6 15 19 27  0.0000000  0  6G17G30G24G 5G 6G10
  23156201.222    -2997322.21049  -2316446.94846  23156201.310    23156217.613
       224.000         187.000
  20853485.823      125562.01849     99378.20247  20853486.852    20853499.765
       235.000         207.000
  23545824.156     2101890.08949   1626224.81346  23545825.026    23545840.469
       214.000         173.000
  22005966.548     2130320.70849   1650164.17947  22005966.495    22005980.945
       227.000         191.000
  21747043.766    -2538523.30849  -1967202.95747  21747044.585    21747058.020
       232.000         200.000
  21434123.183      241649.25149    189023.49347  21434123.517    21434137.556
       232.000         206.000
 98  6 15 19 27 15.0000000  0  6G17G30G24G 5G 6G10
  23148604.111    -3037247.10649  -2347557.21346  23148603.973    23148619.823
       224.000         186.000
  20855202.618      134585.37849    106409.39047  20855203.831    20855216.650
       235.000         208.000
  23552084.192     2134787.92349   1651859.46446  23552084.990    23552099.543
       215.000         171.000
  22012909.988     2166809.59649   1678597.06647  22012910.463    22012924.818
       226.000         190.000
  21740501.105    -2572904.57449  -1993993.53147  21740502.219    21740515.545
       232.000         200.000
  21436141.991      252257.80849    197289.91147  21436142.329    21436155.717
       232.000         206.000
 98  6 15 19 27 30.0000000  0  6G17G30G24G 5G 6G10
  23141028.011    -3077058.83349  -2378579.29846  23141028.397    23141043.566
       224.000         187.000
  20856957.471      143807.06049    113595.11447  20856958.719    20856971.157
       235.000         207.000
  23558354.944     2167740.24749   1677536.59246  23558355.447    23558371.445
       215.000         171.000
  22019880.220     2203439.16349   1707139.57347  22019880.477    22019894.551
       226.000         190.000
  21733976.453    -2607192.03249  -2020711.01347  21733976.974    21733990.680
       233.000         200.000
  21438198.953      263068.66649    205713.96247  21438199.252    21438213.027
       232.000         206.000
 98  6 15 19 27 45.0000000  0  6G17G30G24G 5G 6G10
  23133474.545    -3116756.14549  -2409512.22746  23133474.491    23133490.207
       225.000         187.000
  20858749.495      153226.02949    120934.56547  20858750.643    20858763.599
       234.000         208.000
  23564636.645     2200748.14749   1703257.02546  23564636.894    23564652.403
       217.000         172.000
  22026876.709     2240206.80449   1735789.66647  22026877.360    22026891.598
       227.000         190.000
  21727469.760    -2641385.25049  -2047355.05947  21727470.579    21727483.934
       233.000         200.000
  21440295.962      274087.12549    214299.78047  21440296.099    21440309.712
       232.000         206.000
 98  6 15 19 28  0.0000000  0  6G17G30G24G 5G 6G10
  23125942.065    -3156337.73849  -2440354.99046  23125942.278    23125957.734
       225.000         187.000
  20860579.673      162841.97649    128427.50447  20860580.813    20860593.950
       235.000         208.000
  23570927.677     2233810.16949   1729019.62846  23570928.185    23570943.270
       215.000         171.000
  22033899.336     2277108.88349   1764544.51647  22033899.774    22033914.113
       227.000         189.000
  21720980.533    -2675486.73749  -2073927.62747  21720981.342    21720994.595
       232.000         201.000
  21442431.699      285311.70449    223046.21447  21442432.152    21442445.856
       232.000         206.000
 98  6 15 19 28 15.0000000  0  6G17G30G24G 5G 6G10
  23118431.731    -3195800.96149  -2471105.52446  23118432.667    23118447.967
       225.000         187.000
  20862446.698      172653.52349    136072.85947  20862448.111    20862460.838
       235.000         208.000
  23577229.754     2266929.04949   1754826.53446  23577230.470    23577245.720
       214.000         169.000
  22040946.983     2314144.79249   1793403.63747  22040947.478    22040961.827
       226.000         189.000
  21714507.494    -2709499.07249  -2100430.73147  21714508.605    21714522.314
       232.000         200.000
  21444607.439      296742.06749    231952.99047  21444607.358    21444620.995
       233.000         206.000
 98  6 15 19 28 30.0000000  0  6G17G30G24G 5G 6G10
  23110946.016    -3235142.16149  -2501760.97346  23110946.240    23110961.317
       225.000         187.000
  20864351.056      182659.55249    143869.76047  20864352.191    20864364.797
       235.000         208.000
  23583544.085     2300108.09749   1780680.32446  23583544.409    23583560.123
       214.000         170.000
  22048020.804     2351316.27749   1822368.41747  22048021.524    22048035.052
       227.000         188.000
  21708052.828    -2743421.96849  -2126864.14147  21708053.280    21708067.089
       233.000         200.000
  21446821.705      308379.63049    241021.22247  21446821.909    21446835.521
       233.000         207.000
 98  6 15 19 28 45.0000000  0  6G17G30G24G 5G 6G10
  23103482.137    -3274364.67049  -2532323.92246  23103482.431    23103497.810
       225.000         187.000
  20866291.099      192854.83749    151814.13347  20866292.220    20866305.041
       234.000         208.000
  23589867.677     2333340.90849   1806575.99346  23589868.621    23589884.549
       214.000         170.000
  22055119.215     2388621.69049   1851437.53947  22055119.710    22055134.261
       226.000         189.000
  21701613.279    -2777259.94949  -2153231.37847  21701614.204    21701627.705
       232.000         200.000
  21449074.880      320219.76749    250247.30847  21449075.005    21449088.599
       233.000         207.000
 98  6 15 19 29  0.0000000  0  6G17G30G24G 5G 6G10
  23096039.843    -3313473.42149  -2562798.23146  23096040.062    23096055.692
       224.000         187.000
  20868265.882      203231.70449    159899.99947  20868266.894    20868279.800
       235.000         208.000
  23596199.522     2366614.91749   1832503.77446  23596200.412    23596215.894
       214.000         169.000
  22062242.397     2426052.51149   1880604.39847  22062242.755    22062257.346
       227.000         188.000
  21695189.011    -2811020.64849  -2179538.39847  21695189.652    21695203.307
       233.000         201.000
  21451364.980      332254.45749    259624.99447  21451364.995    21451378.743
       233.000         206.000
 98  6 15 19 29 15.0000000  0  6G17G30G24G 5G 6G10
  23088621.171    -3352457.57949  -2593175.45746  23088621.625    23088636.882
       225.000         187.000
  20870276.954      213799.48849    168134.63447  20870277.871    20870290.603
       235.000         208.000
  23602541.243     2399940.01449   1858471.36846  23602541.989    23602556.905
       216.000         169.000
  22069390.858     2463615.96449   1909874.59747  22069391.409    22069404.924
       226.000         188.000
  21688780.602    -2844697.38249  -2205779.99347  21688781.352    21688794.545
       233.000         201.000
  21453693.824      344491.59049    269160.42647  21453693.864    21453707.493
       233.000         206.000
 98  6 15 19 29 30.0000000  0  6G17G30G24G 5G 6G10
  23081223.782    -3391329.03349  -2623464.86447  23081224.597    23081239.854
       223.000         188.000
  20872321.928      224546.78649    176509.14947  20872322.926    20872335.866
       235.000         208.000
  23608890.337     2433306.35649   1884471.10446  23608891.768    23608906.884
       214.000         170.000
  22076561.616     2501301.60249   1939240.01047  22076562.023    22076576.889
       226.000         188.000
  21682385.934    -2878300.86949  -2231964.51147  21682386.876    21682400.526
       232.000         201.000
  21456058.478      356919.17049    278844.25647  21456058.645    21456072.093
       233.000         206.000
 98  6 15 19 29 45.0000000  0  6G17G30G24G 5G 6G10
  23073849.404    -3430086.02449  -2653665.07546  23073849.377    23073864.742
       224.000         187.000
  20874402.159      235480.42149    185028.85847  20874403.586    20874416.592
       235.000         208.000
  23615248.757     2466718.39549   1910506.44246  23615249.309    23615265.066
       214.000         168.000
  22083758.148     2539115.81349   1968705.60347  22083758.053    22083772.194
       227.000         188.000
  21676006.237    -2911826.85649  -2258088.63947  21676006.947    21676020.737
       232.000         201.000
  21458460.507      369540.19749    288678.82447  21458460.521    21458473.790
       234.000         206.000
 98  6 15 19 30  0.0000000  0  6G17G30G24G 5G 6G10
  23066495.618    -3468729.04849  -2683776.48247  23066496.113    23066510.948
       224.000         188.000
  20876519.637      246605.92649    193698.08047  20876520.708    20876533.682
       235.000         208.000
  23621616.015     2500178.28749   1936579.08046  23621616.695    23621631.710
       214.000         167.000
  22090978.922     2577064.35549   1998275.87547  22090979.697    22090993.632
       226.000         188.000
  21669641.912    -2945273.08849  -2284150.62447  21669642.635    21669655.794
       232.000         201.000
  21460899.083      382356.37349    298665.45847  21460899.366    21460912.690
       233.000         206.000
 98  6 15 19 30 15.0000000  0  6G17G30G24G 5G 6G10
  23059162.504    -3507265.40549  -2713804.77646  23059162.617    23059177.885
       224.000         187.000
  20878672.137      257918.97649    202513.44247  20878673.532    20878686.358
       235.000         208.000
  23627990.153     2533678.07649   1962682.78546  23627991.108    23628006.691
       214.000         168.000
  22098225.354     2615142.32649   2027947.00947  22098226.143    22098239.637
       226.000         188.000
  21663291.238    -2978645.63749  -2310155.19047  21663291.735    21663305.338
       232.000         201.000
  21463373.605      395361.19349    308799.07947  21463373.970    21463387.355
       234.000         207.000
 98  6 15 19 30 30.0000000  0  6G17G30G24G 5G 6G10
  23051850.023    -3545692.28149  -2743747.75646  23051850.235    23051865.384
       225.000         187.000
  20880861.600      269422.01849    211476.84647  20880862.536    20880875.446
       235.000         208.000
  23634373.241     2567219.90149   1988819.25046  23634374.672    23634389.349
       214.000         170.000
  22105497.425     2653355.72549   2057723.66546  22105497.309    22105511.443
       227.000         187.000
  21656955.503    -3011939.78649  -2336098.66447  21656956.077    21656969.964
       232.000         201.000
  21465885.397      408558.26149    319082.51247  21465885.176    21465898.821
       234.000         206.000
 98  6 15 19 30 45.0000000  0  6G17G30G24G 5G 6G10
  23044557.066    -3584014.10149  -2773608.87746  23044557.889    23044572.837
       224.000         187.000
  20883087.080      281117.20749    220589.97547  20883087.997    20883101.099
       235.000         208.000
  23640764.508     2600803.10849   2014987.95246  23640764.751    23640780.143
       216.000         172.000
  22112794.699     2691706.21449   2087607.14847  22112795.448    22112809.461
       226.000         188.000
  21650634.596    -3045154.38349  -2361980.15247  21650635.603    21650649.122
       232.000         200.000
  21468432.834      421945.90949    329514.44547  21468432.806    21468446.336
       233.000         206.000
 98  6 15 19 31  0.0000000  0  6G17G30G24G 5G 6G10
  23037282.526    -3622243.14149  -2803397.69747  23037282.972    23037298.030
       224.000         188.000
  20885348.085      292998.88949    229848.42847  20885349.174    20885361.936
       235.000         208.000
  23647161.307     2634417.85549   2041181.25546  23647162.021    23647176.942
       215.000         171.000
  22120117.024     2730184.40349   2117590.13447  22120117.343    22120131.885
       225.000         188.000
  21644328.196    -3078296.16849  -2387804.90247  21644328.997    21644342.356
       232.000         201.000
  21471014.746      435514.90149    340087.68447  21471015.073    21471028.267
       233.000         206.000
 98  6 15 19 31 15.0000000  0  6G17G30G24G 5G 6G10
  23030024.834    -3660382.85449  -2833116.91247  23030025.230    23030040.324
       225.000         188.000
  20887643.767      305062.79549    239248.87447  20887644.976    20887657.744
       235.000         208.000
  23653563.155     2668062.51949   2067397.86146  23653563.828    23653580.209
       214.000         171.000
  22127463.455     2768786.63349   2147669.76947  22127463.279    22127477.642
       227.000         188.000
  21638035.111    -3111365.76049  -2413573.39447  21638036.075    21638049.479
       231.000         201.000
  21473631.212      449262.33349    350799.97247  21473631.378    21473644.660
       233.000         206.000
 98  6 15 19 31 30.0000000  0  6G17G30G24G 5G 6G10
  23022783.213    -3698437.37349  -2862769.74947  23022784.046    23022799.126
       225.000         189.000
  20889973.967      317307.25849    248790.00947  20889974.741    20889987.682
       235.000         208.000
  23659971.841     2701739.10349   2093639.32246  23659973.083    23659987.692
       216.000         171.000
  22134832.293     2807514.55049   2177847.34546  22134832.801    22134847.062
       225.000         187.000
  21631755.840    -3144363.54949  -2439285.94747  21631756.549    21631770.288
       232.000         200.000
  21476280.697      463186.42249    361649.91447  21476280.947    21476294.393
       234.000         206.000
 98  6 15 19 31 45.0000000  0  6G17G30G24G 5G 6G10
  23015558.706    -3736402.80949  -2892353.16747  23015559.285    23015574.384
       225.000         189.000
  20892339.070      329737.80049    258476.14347  20892340.319    20892353.125
       236.000         208.000
  23666387.275     2735452.83149   2119909.75146  23666388.110    23666403.120
       216.000         170.000
  22142227.029     2846373.05549   2208126.67346  22142227.399    22142241.716
       225.000         187.000
  21625491.704    -3177283.34949  -2464937.72247  21625492.161    21625505.700
       232.000         200.000
  21478964.465      477291.00649    372640.49747  21478964.711    21478977.934
       233.000         206.000
 98  6 15 19 32  0.0000000  0  6G17G30G24G 5G 6G10
  23008350.809    -3774281.97949  -2921869.36647  23008350.931    23008366.188
       225.000         189.000
  20894739.821      342352.85649    268306.05047  20894740.837    20894753.382
       236.000         208.000
  23672809.483     2769202.03849   2146207.81346  23672810.318    23672826.010
       215.000         171.000
  22149645.823     2885357.54449   2238504.16646  22149645.908    22149660.322
       225.000         187.000
  21619241.610    -3210126.16649  -2490529.51247  21619242.137    21619256.023
       231.000         200.000
  21481682.321      491573.41449    383769.64047  21481682.536    21481696.057
       233.000         206.000
 98  6 15 19 32 15.0000000  0  6G17G30G24G 5G 6G10
  23001160.261    -3812070.85449  -2951315.20847  23001160.383    23001175.141
       225.000         189.000
  20897175.984      355155.24549    278281.93347  20897177.158    20897189.761
       236.000         208.000
  23679239.724     2802988.59749   2172534.99246  23679239.875    23679255.266
       217.000         173.000
  22157087.258     2924466.23649   2268978.45746  22157088.048    22157102.806
       225.000         187.000
  21613006.933    -3242888.45349  -2516058.55247  21613007.796    21613021.360
       231.000         200.000
  21484433.600      506031.82949    395035.93747  21484433.997    21484447.314
       233.000         206.000
 98  6 15 19 32 30.0000000  0  6G17G30G24G 5G 6G10
  22993985.226    -3849773.05849  -2980693.50847  22993985.118    22994000.541
       225.000         189.000
  20899646.452      368137.45249    288397.93547  20899647.273    20899660.297
       236.000         208.000
  23685674.682     2836806.95849   2198886.94246  23685675.524    23685690.917
       216.000         173.000
  22164552.877     2963691.58049   2299543.63746  22164552.302    22164566.795
       225.000         187.000
  21606786.389    -3275577.38949  -2541530.43347  21606787.370    21606800.861
       231.000         200.000
  21487217.197      520658.40749    406433.27047  21487217.352    21487230.716
       233.000         205.000
 98  6 15 19 32 45.0000000  0  6G17G30G24G 5G 6G10
  22986827.746    -3887385.05149  -3010001.51347  22986828.197    22986842.927
       225.000         189.000
  20902151.390      381302.04449    298656.06047  20902152.770    20902165.468
       235.000         208.000
  23692117.309     2870662.85049   2225268.13246  23692117.817    23692133.300
       216.000         174.000
  22172038.883     3003034.47049   2330200.40546  22172038.821    22172053.731
       225.000         187.000
  21600580.426    -3308190.25649  -2566943.03747  21600581.376    21600594.594
       230.000         200.000
  21490032.707      535453.07849    417961.58847  21490032.651    21490045.775
       233.000         206.000
 98  6 15 19 33  0.0000000  0  6G17G30G24G 5G 6G10
  22979688.102    -3924905.22249  -3039237.97947  22979688.248    22979703.557
       225.000         189.000
  20904691.504      394649.47549    309056.64847  20904692.650    20904705.318
       236.000         208.000
  23698567.912     2904558.12849   2251680.00946  23698568.004    23698583.265
       216.000         173.000
  22179547.399     3042493.46749   2360947.65746  22179547.709    22179562.564
       225.000         187.000
  21594388.616    -3340728.53049  -2592297.52547  21594389.627    21594402.829
       231.000         200.000
  21492879.783      550416.03449    429621.03147  21492880.073    21492893.323
       233.000         205.000
 98  6 15 19 33 15.0000000  0  6G17G30G24G 5G 6G10
  22972564.371    -3962338.65549  -3068406.85347  22972564.584    22972579.854
       225.000         190.000
  20907264.055      408168.26449    319590.76347  20907265.214    20907277.984
       236.000         208.000
  23705022.670     2938481.62149   2278113.87646  23705023.188    23705038.946
       215.000         172.000
  22187076.208     3082056.20449   2391775.73246  22187076.311    22187091.109
       224.000         187.000
  21588209.721    -3373201.29049  -2617600.95347  21588210.320    21588223.682
       232.000         200.000
  21495757.776      565538.79549    441405.00147  21495757.832    21495771.288
       233.000         206.000
 98  6 15 19 33 30.0000000  0  6G17G30G24G 5G 6G10
  22965458.803    -3999679.20549  -3097503.34547  22965458.974    22965474.621
       225.000         190.000
  20909870.502      421864.37049    330263.05647  20909871.666    20909884.313
       236.000         208.000
  23711484.953     2972440.90049   2304575.62546  23711485.825    23711500.856
       215.000         172.000
  22194625.346     3121727.79449   2422688.64046  22194625.691    22194640.692
       224.000         187.000
  21582043.429    -3405603.96549  -2642849.77447  21582044.051    21582057.502
       230.000         200.000
  21498666.915      580828.25749    453318.87147  21498667.112    21498680.681
       232.000         205.000
 98  6 15 19 33 45.0000000  0  6G17G30G24G 5G 6G10
  22958371.828    -4036921.93349  -3126523.61747  22958371.954    22958387.286
       225.000         190.000
  20912511.533      435742.99849    341077.56547  20912512.571    20912525.314
       236.000         208.000
  23717954.528     3006439.62349   2331068.11346  23717955.514    23717970.925
       216.000         172.000
  22202195.751     3161510.56349   2453688.17246  22202196.342    22202210.833
       224.000         187.000
  21575891.568    -3437931.78549  -2668040.27247  21575892.263    21575905.594
       230.000         200.000
  21501609.212      596288.42749    465365.74847  21501609.276    21501622.757
       233.000         205.000
 98  6 15 19 34  0.0000000  0  6G17G30G24G 5G 6G10
  22951302.059    -4074073.06849  -3155472.51947  22951302.455    22951317.547
       225.000         189.000
  20915185.865      449798.36049    352029.79247  20915187.386    20915199.799
       236.000         208.000
  23724430.501     3040469.54549   2357584.93046  23724431.004    23724446.100
       216.000         171.000
  22209785.570     3201395.36149   2484767.20547  22209785.941    22209800.685
       223.000         188.000
  21569752.870    -3470190.81749  -2693177.16347  21569753.571    21569767.139
       231.000         200.000
  21504582.230      611911.99449    477539.95847  21504582.340    21504595.899
       233.000         205.000
 98  6 15 19 34 15.0000000  0  6G17G30G24G 5G 6G10
  22944251.764    -4111121.58049  -3184341.44947  22944252.651    22944267.421
       225.000         190.000
  20917895.991      464038.95949    363126.36447  20917896.782    20917909.781
       236.000         208.000
  23730913.382     3074539.78149   2384133.15046  23730914.406    23730929.522
       214.000         171.000
  22217397.045     3241393.02049   2515934.19446  22217397.084    22217411.908
       224.000         186.000
  21563628.787    -3502372.47749  -2718253.75947  21563629.493    21563643.039
       229.000         200.000
  21507587.899      627708.79849    489849.15947  21507588.383    21507601.728
       233.000         204.000
 98  6 15 19 34 30.0000000  0  6G17G30G24G 5G 6G10
  22937220.893    -4148071.76149  -3213133.76847  22937221.003    22937236.208
       225.000         190.000
  20920639.581      478457.52349    374361.60047  20920640.827    20920653.430
       236.000         208.000
  23737403.423     3108644.58649   2410708.31046  23737404.010    23737420.068
       213.000         170.000
  22225029.180     3281500.41449   2547186.67346  22225029.248    22225044.610
       223.000         187.000
  21557518.383    -3534482.92849  -2743274.87447  21557519.041    21557532.716
       230.000         200.000
  21510626.051      643674.58949    502290.02547  21510626.241    21510639.884
       232.000         205.000
 98  6 15 19 34 45.0000000  0  6G17G30G24G 5G 6G10
  22930207.161    -4184927.62149  -3241852.58047  22930207.484    22930222.447
       225.000         190.000
  20923416.406      493048.48049    385731.17647  20923417.470    20923430.269
       236.000         209.000
  23743900.240     3142781.48649   2437308.46046  23743900.771    23743916.038
       215.000         170.000
  22232681.844     3321715.43749   2578523.03746  22232682.582    22232696.659
       223.000         187.000
  21551421.537    -3566522.33149  -2768240.62247  21551422.609    21551435.472
       230.000         200.000
  21513697.095      659811.49249    514864.23947  21513697.199    21513710.707
       233.000         204.000
 98  6 15 19 35  0.0000000  0  6G17G30G24G 5G 6G10
  22923210.072    -4221694.80849  -3270502.30547  22923210.805    22923225.673
       225.000         190.000
  20926225.036      507808.85949    397232.76347  20926226.169    20926239.004
       236.000         209.000
  23750402.092     3176947.77349   2463931.51246  23750402.518    23750416.923
       214.000         169.000
  22240354.938     3362036.58349   2609942.08846  22240355.547    22240369.706
       224.000         186.000
  21545338.677    -3598489.40249  -2793150.01847  21545339.384    21545352.667
       231.000         200.000
  21516800.559      676120.15949    527572.28947  21516800.678    21516813.885
       232.000         204.000
 98  6 15 19 35 15.0000000  0  6G17G30G24G 5G 6G10
  22916231.168    -4258371.09549  -3299081.19247  22916231.375    22916246.889
       225.000         190.000
  20929066.903      522741.84049    408868.85547  20929067.758    20929080.659
       236.000         209.000
  23756909.324     3211145.96149   2490579.42146  23756909.887    23756925.065
       215.000         170.000
  22248048.034     3402467.38549   2641446.59746  22248048.794    22248062.820
       223.000         187.000
  21539270.024    -3630378.46049  -2817998.61247  21539271.330    21539284.493
       231.000         201.000
  21519937.694      692608.20549    540420.12047  21519938.032    21519951.798
       232.000         204.000
 98  6 15 19 35 30.0000000  0  6G17G30G24G 5G 6G10
  22909268.456    -4294961.05549  -3327592.81447  22909268.722    22909283.650
       225.000         190.000
  20931940.800      537844.86049    420637.43247  20931941.744    20931954.727
       236.000         209.000
  23763422.664     3245372.54249   2517249.46146  23763423.263    23763437.777
       214.000         170.000
  22255762.425     3443003.85149   2673033.42646  22255762.692    22255777.208
       224.000         186.000
  21533216.359    -3662191.82349  -2842788.23047  21533217.145    21533230.662
       231.000         201.000
  21523109.178      709272.53649    553405.30847  21523109.126    21523122.821
       232.000         204.000
 98  6 15 19 35 45.0000000  0  6G17G30G24G 5G 6G10
  22902322.570    -4331459.55949  -3356033.17147  22902323.242    22902338.597
       225.000         191.000
  20934847.891      553123.91649    432543.19447  20934849.218    20934862.062
       236.000         209.000
  23769941.672     3279634.72549   2543947.24746  23769943.243    23769958.278
       214.000         169.000
  22263497.683     3483655.10749   2704709.70946  22263498.642    22263512.876
       224.000         185.000
  21527177.583    -3693923.68749  -2867514.34047  21527178.343    21527192.200
       231.000         201.000
  21526314.108      726116.28149    566530.30547  21526314.407    21526328.143
       232.000         204.000
 98  6 15 19 36  0.0000000  0  6G17G30G24G 5G 6G10
  22895393.940    -4367871.95349  -3384406.43947  22895394.129    22895409.405
       226.000         191.000
  20937787.574      568571.09149    444579.94147  20937788.913    20937801.541
       235.000         209.000
  23776468.245     3313926.22849   2570667.88246  23776468.408    23776483.856
       213.000         168.000
  22271254.559     3524414.82849   2736470.50146  22271254.918    22271269.045
       224.000         185.000
  21521153.985    -3725578.52249  -2892180.43547  21521155.166    21521168.308
       231.000         201.000
  21529551.713      743128.57549    579786.62947  21529551.772    21529565.284
       232.000         204.000
 98  6 15 19 36 15.0000000  0  6G17G30G24G 5G 6G10
  22888480.064    -4404204.69249  -3412717.63347  22888480.086    22888495.105
       226.000         191.000
  20940757.565      584179.41549    456742.27047  20940759.089    20940771.912
       236.000         208.000
  23782997.314     3348242.61949   2597407.91346  23782998.035    23783013.627
       211.000         166.000
  22279030.423     3565278.38449   2768312.20846  22279031.082    22279045.894
       224.000         186.000
  21515143.790    -3757162.59849  -2916791.38947  21515144.785    21515157.975
       231.000         201.000
  21532820.124      760304.88949    593170.77447  21532820.306    21532834.172
       232.000         203.000
 98  6 15 19 36 30.0000000  0  6G17G30G24G 5G 6G10
  22881582.218    -4440453.59049  -3440963.49747  22881582.454    22881597.456
       226.000         191.000
  20943759.533      599952.46049    469032.94847  20943760.536    20943773.421
       237.000         209.000
  23789532.562     3382585.55149   2624168.61246  23789533.313    23789549.579
       210.000         165.000
  22286827.230     3606249.95249   2800238.08346  22286827.264    22286841.682
       223.000         185.000
  21509148.432    -3788668.20349  -2941341.20247  21509149.562    21509162.971
       231.000         201.000
  21536120.850      777649.86649    606686.33647  21536121.099    21536134.697
       232.000         204.000
 98  6 15 19 36 45.0000000  0  6G17G30G24G 5G 6G10
  22874698.684    -4476625.43049  -3469149.31647  22874698.884    22874714.187
       225.000         191.000
  20946791.572      615886.67049    481449.21447  20946792.739    20946805.593
       236.000         209.000
  23796071.289     3416948.32249   2650944.76446  23796072.868    23796089.143
       209.000         166.000
  22294643.072     3647321.48849   2832241.85346  22294642.837    22294657.612
       224.000         185.000
  21503167.869    -3820097.30149  -2965831.38647  21503168.698    21503182.234
       232.000         201.000
  21539452.831      795160.18449    620330.74047  21539452.966    21539466.780
       232.000         204.000
 98  6 15 19 37  0.0000000  0  6G17G30G24G 5G 6G10
  22867828.344    -4512729.47749  -3497282.30747  22867828.546    22867843.538
       225.000         191.000
  20949853.561      631977.17449    493987.26447  20949854.803    20949867.668
       236.000         209.000
  23802612.453     3451320.88249   2677728.55446  23802614.113    23802628.947
       211.000         165.000
  22302475.770     3688483.12049   2864315.83146  22302476.264    22302490.747
       223.000         185.000
  21497200.317    -3851457.25049  -2990267.69847  21497200.962    21497214.238
       232.000         202.000
  21542814.408      812826.06049    634096.35247  21542814.696    21542828.775
       231.000         204.000
 98  6 15 19 37 15.0000000  0  6G17G30G24G 5G 6G10
  22860972.500    -4548755.36449  -3525354.38947  22860973.015    22860987.799
       226.000         190.000
  20952947.218      648235.27049    506655.90847  20952948.437    20952961.482
       236.000         209.000
  23809157.587     3485710.19749   2704525.39046  23809158.407    23809173.132
       213.000         167.000
  22310326.946     3729743.18049   2896466.50446  22310328.095    22310342.064
       224.000         185.000
  21491247.164    -3882742.80049  -3014646.03447  21491247.747    21491260.974
       233.000         202.000
  21546207.146      830654.37849    647988.55147  21546207.311    21546220.899
       231.000         204.000
 98  6 15 19 37 30.0000000  0  6G17G30G24G 5G 6G10
  22854132.222    -4584703.04049  -3553365.53447  22854132.017    22854147.326
       225.000         190.000
  20956072.889      664659.34749    519453.88547  20956073.909    20956086.750
       236.000         209.000
  23815704.451     3520112.95949   2731332.72246  23815704.395    23815719.452
       214.000         167.000
  22318196.686     3771096.61149   2928689.93246  22318196.536    22318211.103
       224.000         185.000
  21485307.103    -3913957.85149  -3038969.43747  21485308.044    21485321.105
       232.000         202.000
  21549629.510      848637.89749    662001.68147  21549629.524    21549643.387
       231.000         203.000
 98  6 15 19 37 45.0000000  0  6G17G30G24G 5G 6G10
  22847305.934    -4620572.02849  -3581315.36647  22847306.452    22847321.647
       224.000         190.000
  20959228.925      681244.64549    532377.48547  20959230.061    20959243.067
       236.000         209.000
  23822252.299     3554524.97349   2758147.25146  23822252.842    23822267.721
       214.000         166.000
  22326083.340     3812542.26749   2960985.22346  22326083.909    22326098.365
       224.000         185.000
  21479379.832    -3945104.86649  -3063239.83047  21479380.802    21479393.737
       232.000         202.000
  21553079.569      866769.07949    676129.86847  21553079.566    21553093.804
       231.000         203.000
 98  6 15 19 38  0.0000000  0  6G17G30G24G 5G 6G10
  22840497.038    -4656356.74949  -3609199.52147  22840497.604    22840512.017
       225.000         190.000
  20962416.265      697993.98749    545428.91947  20962417.348    20962430.347
       236.000         209.000
  23828803.484     3588952.27349   2784973.70646  23828803.932    23828819.023
       213.000         164.000
  22333988.718     3854085.84049   2993356.81846  22333989.335    22334004.110
       224.000         185.000
  21473467.449    -3976176.14249  -3087451.19647  21473468.227    21473481.434
       233.000         202.000
  21556559.478      885054.38849    690378.16547  21556559.536    21556573.105
       232.000         204.000
 98  6 15 19 38 15.0000000  0  6G17G30G24G 5G 6G10
  22833702.017    -4692060.88149  -3637020.89147  22833702.854    22833717.728
       225.000         190.000
  20965633.707      714903.01849    558604.78447  20965634.958    20965647.856
       236.000         209.000
  23835356.348     3623387.71149   2811806.50146  23835356.654    23835372.530
       212.000         163.000
  22341911.173     3895718.70149   3025797.98446  22341912.329    22341927.027
       224.000         185.000
  21467568.136    -4007176.68949  -3111607.45247  21467568.963    21467582.020
       233.000         202.000
  21560068.006      903492.49749    704745.52447  21560067.803    21560081.774
       231.000         203.000
 98  6 15 19 38 30.0000000  0  6G17G30G24G 5G 6G10
  22826922.966    -4727687.02749  -3664781.49247  22826923.473    22826938.298
       225.000         191.000
  20968881.440      731970.61349    571904.20447  20968882.921    20968895.715
       236.000         209.000
  23841909.467     3657826.70549   2838642.06545  23841910.396    23841925.286
       211.000         162.000
  22349851.315     3937438.71349   3058307.05646  22349850.961    22349865.602
       224.000         185.000
  21461681.129    -4038112.14049  -3135712.98247  21461681.998    21461695.134
       232.000         202.000
  21563605.656      922083.33849    719231.89347  21563605.639    21563619.511
       231.000         203.000
 98  6 15 19 38 45.0000000  0  6G17G30G24G 5G 6G10
  22820157.634    -4763236.31649  -3692482.20247  22820158.191    22820173.441
       224.000         190.000
  20972159.723      749197.36249    585327.63847  20972161.040    20972173.904
       236.000         209.000
  23848463.854     3692267.71349   2865479.18546  23848464.139    23848479.783
       214.000         163.000
  22357805.730     3979244.04249   3090882.60946  22357806.304    22357820.655
       223.000         185.000
  21455805.942    -4068986.17749  -3159770.66147  21455806.744    21455820.111
       232.000         202.000
  21567171.788      940824.32349    733835.25647  21567171.785    21567185.435
       231.000         203.000
 98  6 15 19 39  0.0000000  0  6G17G30G24G 5G 6G10
  22813408.222    -4798706.58949  -3720121.34447  22813408.532    22813423.795
       225.000         190.000
  20975467.859      766582.10849    598874.19247  20975469.060    20975482.170
       236.000         209.000
  23855018.845     3726715.56149   2892321.63646  23855019.612    23855034.669
       215.000         165.000
  22365777.856     4021137.51649   3123526.85646  22365778.251    22365792.818
       224.000         185.000
  21449941.779    -4099802.80449  -3183783.60147  21449942.684    21449955.924
       232.000         203.000
  21570765.760      959713.23849    748553.89347  21570766.292    21570780.213
       231.000         204.000
 98  6 15 19 39 15.0000000  0  6G17G30G24G 5G 6G10
  22806674.064    -4834092.78549  -3747694.96947  22806675.085    22806689.767
       224.000         190.000
  20978806.386      784125.73949    612544.54847  20978807.601    20978820.548
       236.000         209.000
  23861576.506     3761174.68149   2919172.88246  23861577.246    23861591.929
       216.000         166.000
  22373767.967     4063125.20749   3156244.51246  22373768.415    22373782.882
       223.000         185.000
  21444088.277    -4130563.37149  -3207752.86047  21444089.071    21444102.330
       232.000         202.000
  21574388.771      978750.29449    763387.96147  21574388.799    21574402.921
       231.000         204.000
 98  6 15 19 39 30.0000000  0  6G17G30G24G 5G 6G10
  22799957.306    -4869393.32649  -3775201.85147  22799957.181    22799972.211
       225.000         190.000
  20982174.621      801825.63649    626336.66847  20982175.553    20982188.922
       237.000         209.000
  23868136.720     3795648.98049   2946035.96346  23868137.575    23868152.725
       218.000         168.000
  22381775.779     4105207.82049   3189036.13646  22381776.493    22381790.958
       223.000         185.000
  21438244.997    -4161268.50849  -3231678.93247  21438245.970    21438259.559
       232.000         202.000
  21578039.623      997933.74949    778336.10647  21578039.440    21578053.416
       231.000         203.000
 98  6 15 19 39 45.0000000  0  6G17G30G24G 5G 6G10
  22793256.017    -4904609.00649  -3802642.60747  22793256.350    22793270.776
       225.000         190.000
  20985571.696      819677.24349    640247.01047  20985573.066    20985585.710
       236.000         208.000
  23874700.205     3830137.46549   2972910.08246  23874700.930    23874715.946
       216.000         169.000
  22389801.857     4147383.90949   3221900.59946  22389801.804    22389816.960
       223.000         184.000
  21432412.391    -4191919.62849  -3255562.90647  21432413.296    21432426.508
       232.000         202.000
  21581717.007     1017260.84549    793396.18047  21581717.404    21581731.222
       231.000         203.000
 98  6 15 19 40  0.0000000  0  6G17G30G24G 5G 6G10
  22786569.190    -4939745.70149  -3830021.81247  22786569.587    22786584.402
       225.000         190.000
  20988997.093      837677.03449    654272.81747  20988998.184    20989011.106
       236.000         208.000
  23881265.094     3864637.28549   2999793.02746  23881265.810    23881281.242
       216.000         168.000
  22397845.163     4189649.85049   3254835.07346  22397845.282    22397859.889
       223.000         185.000
  21426589.096    -4222520.79449  -3279407.95947  21426589.988    21426603.241
       232.000         202.000
  21585422.637     1036732.48749    808568.88647  21585422.682    21585436.221
       231.000         204.000
 98  6 15 19 40 15.0000000  0  6G17G30G24G 5G 6G10
  22779898.075    -4974801.61549  -3857338.07047  22779898.373    22779913.341
       225.000         190.000
  20992451.760      855832.50649    668419.93547  20992452.969    20992465.691
       236.000         209.000
  23887832.176     3899152.54449   3026688.02746  23887833.729    23887848.980
       214.000         165.000
  22405905.327     4232007.38449   3287840.91546  22405905.609    22405920.618
       223.000         184.000
  21420776.195    -4253068.13449  -3303211.06347  21420777.019    21420790.053
       232.000         202.000
  21589156.761     1056354.92249    823859.09847  21589157.033    21589170.763
       232.000         204.000
 98  6 15 19 40 30.0000000  0  6G17G30G24G 5G 6G10
  22773243.265    -5009773.41149  -3884588.78947  22773243.718    22773259.088
       225.000         190.000
  20995937.650      874150.14449    682693.41447  20995938.550    20995951.474
       236.000         208.000
  23894404.284     3933687.80749   3053598.60946  23894405.598    23894421.228
       214.000         166.000
  22413984.236     4274462.17149   3320922.54146  22413984.858    22413999.685
       223.000         185.000
  21414973.568    -4283559.66849  -3326970.68847  21414974.682    21414987.860
       232.000         202.000
  21592920.139     1076131.05949    839269.07647  21592920.028    21592934.145
       232.000         204.000
 98  6 15 19 40 45.0000000  0  6G17G30G24G 5G 6G10
  22766602.063    -5044673.11749  -3911783.33047  22766602.786    22766617.578
       225.000         190.000
  20999451.715      892617.47549    697083.53847  20999452.910    20999465.813
       236.000         208.000
  23900978.750     3968235.35849   3080518.74746  23900979.671    23900995.679
       214.000         167.000
  22422079.794     4317006.97149   3354074.31146  22422080.597    22422095.565
       222.000         184.000
  21409180.430    -4314004.26049  -3350693.72747  21409181.239    21409194.815
       231.000         202.000
  21596710.790     1096052.27949    854792.10647  21596710.651    21596724.782
       232.000         203.000
 98  6 15 19 41  0.0000000  0  6G17G30G24G 5G 6G10
  22759975.528    -5079496.33149  -3938918.27247  22759975.891    22759990.516
       225.000         190.000
  21002994.316      911234.19349    711590.06347  21002995.400    21003008.357
       235.000         208.000
  23907556.932     4002798.50849   3107451.05646  23907556.684    23907572.042
       217.000         168.000
  22430193.290     4359642.06849   3387296.43346  22430193.963    22430208.707
       223.000         185.000
  21403397.128    -4344394.06749  -3374374.08547  21403398.006    21403411.660
       231.000         202.000
  21600529.853     1116122.04849    870430.88247  21600530.074    21600543.991
       232.000         204.000
 98  6 15 19 41 15.0000000  0  6G17G30G24G 5G 6G10
  22753363.426    -5114243.07449  -3965993.62347  22753363.943    22753378.727
       225.000         191.000
  21006565.053      929999.60249    726212.45547  21006566.393    21006579.506
       236.000         208.000
  23914136.688     4037376.41549   3134394.86246  23914137.582    23914152.832
       215.000         169.000
  22438323.005     4402364.84949   3420586.89046  22438323.596    22438338.854
       223.000         184.000
  21397625.268    -4374725.53349  -3398008.97847  21397625.991    21397639.528
       231.000         202.000
  21604377.576     1136342.44249    886187.03347  21604377.679    21604391.982
       232.000         204.000
 98  6 15 19 41 30.0000000  0  6G17G30G24G 5G 6G10
  22746764.658    -5148918.22649  -3993013.19247  22746765.116    22746780.079
       225.000         191.000
  21010164.059      948913.82049    740950.80047  21010165.611    21010178.576
       236.000         208.000
  23920718.607     4071966.19349   3161347.91346  23920719.165    23920734.569
       214.000         169.000
  22446468.749     4445171.25249   3453942.50946  22446469.450    22446484.473
       222.000         185.000
  21391864.612    -4404997.35449  -3421597.39447  21391865.663    21391879.066
       231.000         202.000
  21608254.067     1156714.50349    902061.36547  21608254.687    21608268.416
       232.000         204.000
 98  6 15 19 41 45.0000000  0  6G17G30G24G 5G 6G10
  22740180.328    -5183519.44749  -4019975.13947  22740181.012    22740195.886
       225.000         191.000
  21013792.522      967979.70249    755807.32847  21013793.493    21013806.711
       236.000         208.000
  23927303.023     4106569.75749   3188311.70446  23927304.041    23927319.769
       214.000         168.000
  22454630.963     4488062.89749   3487364.54446  22454631.628    22454646.403
       222.000         184.000
  21386116.956    -4435202.61649  -3445133.94347  21386117.919    21386131.293
       232.000         202.000
  21612160.721     1177241.75549    918056.62647  21612161.161    21612174.927
       232.000         204.000
 98  6 15 19 42  0.0000000  0  6G17G30G24G 5G 6G10
  22733608.682    -5218056.93349  -4046887.43647  22733608.595    22733623.149
       225.000         191.000
  21017448.156      987190.16949    770776.51647  21017449.294    21017462.271
       236.000         208.000
  23933888.271     4141175.30949   3215277.04046  23933889.157    23933905.359
       213.000         168.000
  22462807.479     4531031.18849   3520846.30046  22462808.017    22462823.296
       222.000         184.000
  21380380.189    -4465347.89349  -3468623.75847  21380381.154    21380394.490
       231.000         202.000
  21616095.531     1197918.17749    934168.11947  21616095.280    21616109.289
       233.000         205.000
 98  6 15 19 42 15.0000000  0  6G17G30G24G 5G 6G10
  22727048.641    -5252527.52949  -4073747.60647  22727048.996    22727064.427
       225.000         190.000
  21021132.467     1006551.49749    785863.26047  21021133.521    21021146.554
       236.000         208.000
  23940475.163     4175788.09149   3242248.00346  23940475.503    23940491.153
       210.000         167.000
  22470999.521     4574081.34849   3554391.84946  22470999.958    22471015.247
       222.000         183.000
  21374656.611    -4495426.75849  -3492061.81947  21374657.324    21374671.182
       231.000         201.000
  21620059.059     1218748.28949    950399.37647  21620059.331    21620073.334
       232.000         204.000
 98  6 15 19 42 30.0000000  0  6G17G30G24G 5G 6G10
  22720502.058    -5286931.96249  -4100556.22347  22720502.075    22720516.627
       225.000         191.000
  21024844.627     1026059.77749    801064.51047  21024845.935    21024858.946
       236.000         208.000
  23947062.026     4210405.78549   3269222.79946  23947063.037    23947079.209
       212.000         167.000
  22479207.249     4617212.89549   3588000.81246  22479207.383    22479222.710
       222.000         183.000
  21368944.634    -4525441.39749  -3515449.83447  21368945.678    21368959.260
       231.000         201.000
  21624050.937     1239725.39549    966745.16947  21624050.917    21624064.652
       232.000         204.000
 98  6 15 19 42 45.0000000  0  6G17G30G24G 5G 6G10
  22713967.952    -5321267.95449  -4127311.50547  22713968.247    22713983.240
       226.000         192.000
  21028584.884     1045714.90249    816380.18647  21028586.156    21028599.168
       235.000         208.000
  23953650.837     4245027.61049   3296200.81946  23953651.800    23953667.403
       212.000         166.000
  22487430.716     4660425.36549   3621672.84046  22487431.613    22487446.144
       221.000         183.000
  21363246.115    -4555390.66249  -3538786.91447  21363246.730    21363259.983
       232.000         201.000
  21628070.723     1260849.86649    983205.79547  21628070.936    21628084.671
       232.000         205.000
 98  6 15 19 43  0.0000000  0  6G17G30G24G 5G 6G10
  22707446.188    -5355538.27149  -4154015.61247  22707446.729    22707461.356
       225.000         191.000
  21032352.549     1065513.34049    831807.53447  21032353.737    21032366.659
       236.000         208.000
  23960238.611     4279647.40349   3323177.25646  23960239.797    23960254.812
       212.000         165.000
  22495667.809     4703711.25049   3655402.07146  22495667.828    22495682.815
       221.000         182.000
  21357558.944    -4585274.93949  -3562073.34947  21357559.733    21357572.954
       231.000         202.000
  21632117.214     1282115.30249    999776.26647  21632117.703    21632131.334
       233.000         205.000
 98  6 15 19 43 15.0000000  0  6G17G30G24G 5G 6G10
  22700937.365    -5389744.18549  -4180669.54247  22700938.134    22700952.560
       226.000         192.000
  21036147.451     1085455.71849    847347.04047  21036148.567    21036161.531
       236.000         207.000
  23966826.488     4314262.77449   3350150.26246  23966827.092    23966842.130
       212.000         165.000
  22503917.916     4747066.93249   3689185.68646  22503918.612    22503933.248
       222.000         182.000
  21351883.771    -4615097.28549  -3585311.52547  21351884.696    21351898.633
       231.000         201.000
  21636189.503     1303514.46549   1016450.93547  21636189.781    21636203.716
       232.000         205.000
 98  6 15 19 43 30.0000000  0  6G17G30G24G 5G 6G10
  22694438.919    -5423894.80149  -4207280.37747  22694438.647    22694453.677
       226.000         192.000
  21039968.721     1105536.06849    862994.06247  21039969.953    21039982.986
       236.000         208.000
  23973410.882     4348866.12649   3377113.88946  23973412.267    23973426.741
       210.000         164.000
  22512180.986     4790488.41049   3723020.57946  22512181.478    22512195.924
       221.000         181.000
  21346218.864    -4644869.15549  -3608510.36947  21346219.033    21346232.809
       231.000         201.000
  21640285.089     1325037.83649   1033222.39647  21640285.672    21640299.458
       233.000         205.000
 98  6 15 19 43 45.0000000  0  6G17G30G24G 5G 6G10
  22687951.776    -5457981.51549  -4233841.41747  22687952.608    22687967.574
       226.000         193.000
  21043817.291     1125758.85149    878752.06747  21043818.028    21043830.997
       236.000         207.000
  23979994.880     4383464.10549   3404073.32346  23979995.429    23980010.480
       209.000         163.000
  22520457.782     4833982.85049   3756912.32946  22520458.153    22520472.414
       221.000         181.000
  21340563.919    -4674586.13049  -3631666.44247  21340564.561    21340577.678
       231.000         201.000
  21644405.600     1346690.05749   1050094.25747  21644405.774    21644419.705
       233.000         204.000
 98  6 15 19 44  0.0000000  0  6G17G30G24G 5G 6G10
  22681479.478    -5491997.32649  -4260347.21147  22681479.540    22681494.027
       227.000         192.000
  21047693.669     1146129.24649    894625.09747  21047694.660    21047707.580
       235.000         207.000
  23986577.941     4418062.25649   3431032.90146  23986578.715    23986594.689
       206.000         163.000
  22528749.475     4877555.71649   3790865.17646  22528749.822    22528764.424
       222.000         181.000
  21334920.026    -4704242.90849  -3654775.60147  21334920.985    21334934.202
       231.000         201.000
  21648551.887     1368477.38149   1067071.39447  21648551.900    21648565.696
       232.000         204.000
 98  6 15 19 44 15.0000000  0  6G17G30G24G 5G 6G10
  22675018.566    -5525945.64849  -4286800.42347  22675019.061    22675034.090
       226.000         193.000
  21051597.164     1166643.17549    910609.96847  21051598.367    21051611.239
       236.000         208.000
  23993161.611     4452659.51249   3457991.76146  23993162.109    23993178.580
       208.000         163.000
  22537055.278     4921201.98849   3824875.22846  22537055.664    22537070.114
       221.000         180.000
  21329287.372    -4733843.69249  -3677841.13747  21329288.075    21329301.574
       230.000         201.000
  21652723.032     1390397.22649   1084151.79247  21652723.206    21652736.704
       233.000         204.000
 98  6 15 19 44 30.0000000  0  6G17G30G24G 5G 6G10
  22668570.569    -5559830.58849  -4313204.23447  22668571.104    22668585.590
       226.000         193.000
  21055526.613     1187294.00549    926701.51647  21055527.745    21055540.874
       236.000         207.000
  23999744.973     4487252.50149   3484947.28346  23999745.225    23999761.167
       208.000         163.000
  22545373.590     4964916.36149   3858938.34846  22545374.034    22545388.719
       222.000         181.000
  21323663.854    -4763394.30849  -3700867.57847  21323665.024    21323678.260
       230.000         201.000
  21656917.884     1412444.26249   1101331.30247  21656918.419    21656931.850
       233.000         204.000
 98  6 15 19 44 45.0000000  0  6G17G30G24G 5G 6G10
  22662135.646    -5593647.94149  -4339555.38947  22662135.884    22662150.715
       225.000         193.000
  21059483.134     1208084.70349    942902.05347  21059484.499    21059497.285
       236.000         207.000
  24006327.298     4521843.26249   3511901.11346  24006327.954    24006343.425
       209.000         165.000
  22553705.604     5008698.81549   3893054.51946  22553705.779    22553720.141
       221.000         180.000
  21318050.682    -4792892.36349  -3723853.05847  21318051.707    21318064.908
       231.000         201.000
  21661138.812     1434622.97249   1118613.41747  21661139.008    21661152.638
       233.000         205.000
 98  6 15 19 45  0.0000000  0  6G17G30G24G 5G 6G10
  22655711.996    -5627400.91549  -4365856.37547  22655712.788    22655727.195
       226.000         192.000
  21063466.169     1229014.68249    959211.11947  21063467.432    21063480.238
       236.000         207.000
  24012909.463     4556431.24049   3538852.75546  24012910.196    24012926.120
       211.000         165.000
  22562049.665     5052547.42449   3927222.24146  22562050.054    22562064.496
       221.000         179.000
  21312447.275    -4822338.66549  -3746798.21247  21312447.949    21312461.441
       231.000         201.000
  21665384.539     1456934.51449   1135999.03547  21665384.832    21665398.184
       233.000         204.000
 98  6 15 19 45 15.0000000  0  6G17G30G24G 5G 6G10
  22649301.826    -5661087.93549  -4392105.97347  22649302.556    22649317.152
       226.000         193.000
  21067474.962     1250082.70549    975627.75247  21067476.328    21067489.346
       237.000         208.000
  24019491.741     4591020.86149   3565805.66646  24019492.647    24019507.884
       211.000         165.000
  22570406.180     5096465.79949   3961444.32446  22570406.873    22570421.726
       221.000         180.000
  21306853.828    -4851732.21349  -3769702.26247  21306854.769    21306867.999
       231.000         202.000
  21669655.930     1479380.73049   1153489.59447  21669656.007    21669669.741
       233.000         204.000
 98  6 15 19 45 30.0000000  0  6G17G30G24G 5G 6G10
  22642905.215    -5694704.16149  -4418300.39847  22642905.120    22642920.091
       226.000         192.000
  21071511.765     1271293.99349    992156.02447  21071512.760    21071525.400
       236.000         208.000
  24026074.851     4625616.55249   3592763.32546  24026075.034    24026090.531
       210.000         163.000
  22578779.080     5140461.38249   3995726.56646  22578779.248    22578793.872
       221.000         179.000
  21301270.679    -4881071.09649  -3792563.71247  21301271.730    21301284.684
       231.000         202.000
  21673954.450     1501970.02949   1171091.64847  21673954.575    21673968.334
       233.000         204.000
 98  6 15 19 45 45.0000000  0  6G17G30G24G 5G 6G10
  22636520.299    -5728256.99449  -4444445.43647  22636520.586    22636535.094
       226.000         193.000
  21075573.927     1292640.78649   1008789.87747  21075575.008    21075587.760
       237.000         208.000
  24032657.894     4660210.90449   3619719.95145  24032658.160    24032674.040
       210.000         161.000
  22587163.608     5184526.48949   4030062.98746  22587164.359    22587179.116
       221.000         179.000
  21295697.329    -4910360.53749  -3815386.64647  21295698.168    21295711.481
       231.000         202.000
  21678279.531     1524697.13449   1188801.07847  21678279.579    21678293.119
       233.000         204.000
 98  6 15 19 46  0.0000000  0  6G17G30G24G 5G 6G10
  22630148.631    -5761740.08049  -4470536.12347  22630148.778    22630163.479
       226.000         193.000
  21079663.619     1314130.48349   1025535.08947  21079664.572    21079677.152
       237.000         208.000
  24039242.291     4694810.91549   3646680.97545  24039242.703    24039257.386
       210.000         160.000
  22595563.934     5228664.87449   4064456.51246  22595563.989    22595578.472
       221.000         179.000
  21290134.982    -4939590.34249  -3838163.10147  21290135.847    21290148.930
       231.000         202.000
  21682631.710     1547568.38049   1206622.83147  21682631.997    21682645.383
       233.000         204.000
 98  6 15 19 46 15.0000000  0  6G17G30G24G 5G 6G10
  22623788.841    -5795158.26249  -4496576.23147  22623789.862    22623804.799
       226.000         193.000
  21083779.693     1335761.37349   1042390.32147  21083780.609    21083793.433
       237.000         208.000
  24045826.088     4729413.08549   3673643.67545  24045827.497    24045842.800
       209.000         160.000
  22603975.525     5272872.28349   4098903.81446  22603976.183    22603990.942
       221.000         179.000
  21284583.683    -4968761.96849  -3860894.22747  21284584.855    21284597.969
       231.000         202.000
  21687010.550     1570580.19949   1224554.12147  21687010.815    21687024.315
       233.000         204.000
 98  6 15 19 46 30.0000000  0  6G17G30G24G 5G 6G10
  22617442.451    -5828510.73749  -4522565.13847  22617442.964    22617457.697
       227.000         193.000
  21087922.696     1357535.37949   1059357.07247  21087924.252    21087936.949
       237.000         208.000
  24052411.322     4764018.01749   3700608.51845  24052412.362    24052428.160
       209.000         162.000
  22612401.704     5317149.69749   4133405.67046  22612402.102    22612416.790
       221.000         180.000
  21279043.878    -4997874.46349  -3883579.27447  21279044.688    21279057.915
       231.000         202.000
  21691416.189     1593731.16349   1242593.83447  21691416.365    21691429.986
       233.000         204.000
 98  6 15 19 46 45.0000000  0  6G17G30G24G 5G 6G10
  22611108.631    -5861794.62349  -4548500.60247  22611109.051    22611123.734
       226.000         194.000
  21092094.700     1379457.00949   1076438.85347  21092095.752    21092108.180
       237.000         208.000
  24058997.905     4798626.58149   3727576.20146  24058998.884    24059014.305
       213.000         165.000
  22620841.805     5361501.03649   4167965.12146  22620841.533    22620856.277
       220.000         179.000
  21273516.204    -5026923.63249  -3906214.98447  21273517.046    21273530.095
       231.000         202.000
  21695847.978     1617021.60149   1260742.22847  21695848.358    21695861.786
       232.000         204.000
 98  6 15 19 47  0.0000000  0  6G17G30G24G 5G 6G10
  22604786.168    -5895017.47149  -4574388.50747  22604786.960    22604801.475
       226.000         194.000
  21096293.269     1401520.94649   1093631.52947  21096294.370    21096306.972
       237.000         208.000
  24065582.737     4833232.13749   3754541.54246  24065583.720    24065598.996
       214.000         164.000
  22629293.763     5405917.59349   4202575.39346  22629294.063    22629308.584
       220.000         178.000
  21267998.753    -5055916.53949  -3928806.84647  21267999.895    21268013.146
       231.000         202.000
  21700304.999     1640442.68849   1278992.42647  21700305.162    21700318.856
       232.000         203.000
 98  6 15 19 47 15.0000000  0  6G17G30G24G 5G 6G10
  22598477.285    -5928171.81649  -4600223.02747  22598478.086    22598492.394
       226.000         193.000
  21100519.596     1423731.05249   1110938.09647  21100520.569    21100533.276
       237.000         208.000
  24072169.614     4867844.13449   3781511.90446  24072170.464    24072185.729
       215.000         165.000
  22637759.449     5450405.77849   4237241.47946  22637759.645    22637774.367
       220.000         179.000
  21262494.028    -5084846.06349  -3951349.32147  21262494.856    21262508.095
       232.000         202.000
  21704787.574     1663999.24849   1297348.18847  21704787.952    21704801.612
       232.000         203.000
 98  6 15 19 47 30.0000000  0  6G17G30G24G 5G 6G10
  22592181.059    -5961261.01049  -4626006.78747  22592181.420    22592196.052
       227.000         194.000
  21104773.307     1446082.44449   1128354.75747  21104774.266    21104786.769
       237.000         208.000
  24078756.455     4902458.32549   3808483.98146  24078757.475    24078772.294
       215.000         165.000
  22646237.538     5494959.50449   4271958.63746  22646238.350    22646252.831
       219.000         179.000
  21256999.895    -5113717.61949  -3973846.62747  21257000.563    21257013.799
       231.000         202.000
  21709294.525     1687683.75949   1315803.65047  21709294.678    21709308.475
       232.000         203.000
 98  6 15 19 47 45.0000000  0  6G17G30G24G 5G 6G10
  22585896.914    -5994284.27849  -4651739.17047  22585897.057    22585911.902
       227.000         194.000
  21109053.585     1468576.65449   1145882.70547  21109054.624    21109067.353
       237.000         208.000
  24085344.040     4937076.17249   3835458.90246  24085344.593    24085361.045
       213.000         164.000
  22654728.301     5539576.11749   4306724.80146  22654728.422    22654743.142
       220.000         178.000
  21251516.679    -5142530.46649  -3996298.17947  21251517.842    21251530.693
       231.000         202.000
  21713825.699     1711495.18649   1334358.01147  21713826.069    21713839.721
       232.000         203.000
 98  6 15 19 48  0.0000000  0  7G17G30G24G 5G 6G26G10
  22579625.552    -6027241.31149  -4677419.94247  22579625.329    22579640.502
       227.000         194.000
  21113361.037     1491212.32149   1163520.87647  21113362.146    21113374.831
       237.000         208.000
  24091933.232     4971700.54749   3862438.90945  24091933.901    24091948.677
       214.000         162.000
  22663229.641     5584253.80149   4341538.54346  22663230.836    22663245.178
       220.000         179.000
  21246046.007    -5171281.89149  -4018701.88147  21246046.552    21246059.508
       232.000         202.000
  24599740.406    -1357392.89259   -616803.52955  24599741.345    24599758.973
       203.000         143.000
  21718381.421     1735432.96749   1353010.82647  21718381.257    21718394.790
       232.000         203.000
 98  6 15 19 48 15.0000000  0  7G17G30G24G 5G 6G26G10
  22573366.202    -6060131.01749  -4703048.24747  22573366.781    22573381.710
       227.000         194.000
  21117695.650     1513990.92449   1181270.43547  21117696.600    21117709.199
       238.000         208.000
  24098522.715     5006333.01249   3889425.21645  24098523.798    24098538.899
       212.000         159.000
  22671743.365     5628993.07749   4376400.28746  22671744.186    22671759.561
       219.000         178.000
  21240586.074    -5199971.65349  -4041057.52347  21240586.919    21240600.251
       232.000         203.000
  24591327.283    -1401602.69349   -651252.55945  24591327.915    24591345.847
       202.000         142.000
  21722960.277     1759497.05049   1371762.06047  21722960.400    21722974.144
       232.000         203.000
 98  6 15 19 48 30.0000000  0  7G17G30G24G 5G 6G26G10
  22567124.844    -6092932.46649  -4728607.78847  22567125.166    22567139.938
       227.000         194.000
  21122061.234     1536933.26349   1199147.57147  21122062.478    21122075.269
       237.000         208.000
  24105118.298     5040994.49849   3916434.15945  24105119.776    24105134.619
       211.000         156.000
  22680273.334     5673815.87149   4411327.10146  22680273.500    22680288.098
       220.000         178.000
  21235142.360    -5228580.49649  -4063350.12047  21235142.840    21235156.035
       232.000         202.000
  24582919.900    -1445787.00349   -685681.72945  24582919.876    24582938.455
       200.000         139.000
  21727567.040     1783707.76749   1390627.55547  21727567.677    21727581.208
       232.000         203.000
 98  6 15 19 48 45.0000000  0  7G17G30G24G 5G 6G26G10
  22560893.629    -6125676.86249  -4754122.87147  22560893.693    22560908.734
       226.000         194.000
  21126452.131     1560006.87849   1217127.00447  21126453.218    21126465.913
       237.000         208.000
  24111714.132     5075651.87149   3943439.87845  24111714.952    24111730.153
       212.000         157.000
  22688812.646     5718691.58049   4446295.15946  22688812.895    22688828.240
       219.000         179.000
  21229707.494    -5257139.71149  -4085604.04147  21229708.652    21229721.196
       232.000         203.000
  24574509.356    -1489978.83349   -720116.75445  24574510.419    24574529.596
       198.000         136.000
  21732196.471     1808034.06649   1409583.11347  21732196.595    21732210.170
       232.000         202.000
 98  6 15 19 49  0.0000000  0  7G17G30G24G 5G 6G26G10
  22554674.439    -6158355.82849  -4779586.96847  22554675.083    22554690.362
       226.000         195.000
  21130869.033     1583217.99249   1235213.58047  21130870.197    21130882.872
       237.000         208.000
  24118308.360     5110311.21149   3970447.14945  24118310.259    24118326.138
       211.000         159.000
  22697363.934     5763627.67149   4481310.25446  22697364.448    22697379.398
       219.000         179.000
  21224283.514    -5285642.43149  -4107813.94447  21224284.208    21224297.437
       232.000         202.000
  24566099.853    -1534172.54749   -754553.25545  24566101.535    24566117.431
       198.000         133.000
  21736849.303     1832485.04049   1428635.81747  21736849.513    21736863.177
       233.000         202.000
 98  6 15 19 49 15.0000000  0  7G17G30G24G 5G 6G26G10
  22548467.469    -6190975.31249  -4805004.71847  22548468.028    22548482.801
       227.000         195.000
  21135311.067     1606559.88549   1253402.05947  21135312.144    21135324.838
       238.000         208.000
  24124904.355     5144966.66549   3997451.37345  24124905.256    24124919.966
       212.000         158.000
  22705924.967     5808619.74349   4516368.98346  22705925.898    22705941.236
       218.000         179.000
  21218869.615    -5314094.25049  -4129984.18547  21218870.275    21218883.102
       232.000         203.000
  24557689.208    -1578372.93649   -788994.95045  24557690.077    24557707.152
       197.000         133.000
  21741526.244     1857060.65649   1447785.64847  21741526.048    21741539.416
       232.000         201.000
 98  6 15 19 49 30.0000000  0  7G17G30G24G 5G 6G26G10
  22542269.873    -6223544.44749  -4830383.23347  22542270.200    22542284.888
       227.000         195.000
  21139775.406     1630021.09649   1271683.51447  21139776.636    21139789.224
       237.000         208.000
  24131495.966     5179606.01949   4024443.05145  24131496.576    24131510.904
       213.000         159.000
  22714497.053     5853661.99749   4551466.80746  22714496.578    22714511.940
       220.000         179.000
  21213463.023    -5342504.38849  -4152121.94247  21213464.173    21213477.008
       232.000         203.000
  24549275.510    -1622585.27849   -823445.98844  24549277.027    24549295.057
       199.000         129.000
  21746225.168     1881753.46749   1467026.80647  21746225.102    21746238.393
       232.000         201.000
 98  6 15 19 49 45.0000000  0  7G17G30G24G 5G 6G26G10
  22536084.885    -6256048.84449  -4855711.30247  22536084.741    22536099.502
       227.000         195.000
  21144266.082     1653619.46149   1290071.84447  21144267.265    21144279.981
       237.000         208.000
  24138087.804     5214241.94549   4051432.06845  24138088.084    24138103.517
       213.000         161.000
  22723081.091     5898772.55649   4586617.86246  22723081.730    22723096.497
       219.000         178.000
  21208068.204    -5370854.81549  -4174213.17347  21208069.100    21208082.020
       232.000         203.000
  24540862.131    -1666794.14349   -857894.31944  24540862.496    24540879.528
       196.000         130.000
  21750949.642     1906582.77649   1486374.31847  21750949.922    21750963.246
       232.000         201.000
 98  6 15 19 50  0.0000000  0  7G17G30G24G 5G 6G26G10
  22529909.902    -6288494.22349  -4880993.38347  22529910.648    22529925.463
       227.000         195.000
  21148781.985     1677351.06049   1308563.99047  21148783.225    21148795.860
       237.000         208.000
  24144676.111     5248867.40249   4078412.91645  24144676.655    24144691.944
       211.000         160.000
  22731678.708     5943948.63449   4621819.96246  22731678.433    22731692.807
       220.000         178.000
  21202684.651    -5399146.39349  -4196258.55047  21202685.508    21202698.266
       232.000         203.000
  24532448.272    -1711003.94549   -892343.35944  24532448.857    24532467.665
       196.000         128.000
  21755700.576     1931547.13849   1505827.06747  21755700.521    21755714.110
       232.000         201.000
 98  6 15 19 50 15.0000000  0  7G17G30G24G 5G 6G26G10
  22523748.260    -6320876.12149  -4906225.99847  22523748.249    22523763.408
       227.000         195.000
  21153324.158     1701220.21949   1327163.33147  21153325.345    21153337.980
       237.000         208.000
  24151262.793     5283486.36349   4105388.70145  24151264.186    24151280.773
       208.000         159.000
  22740288.660     5989199.40849   4657080.27746  22740289.111    22740304.011
       219.000         178.000
  21197313.492    -5427373.11049  -4218253.38047  21197314.058    21197327.022
       233.000         203.000
  24524037.430    -1755207.05748   -926787.19944  24524039.800    24524053.222
       192.000         126.000
  21760477.925     1956652.97549   1525390.06147  21760478.047    21760491.558
       232.000         201.000
 98  6 15 19 50 30.0000000  0  7G17G30G24G 5G 6G26G10
  22517597.235    -6353200.03949  -4931413.43447  22517597.526    22517612.131
       227.000         195.000
  21157891.260     1725219.77249   1345864.26847  21157892.458    21157905.068
       237.000         208.000
  24157848.099     5318090.46349   4132352.89345  24157848.506    24157865.570
       206.000         157.000
  22748913.673     6034520.58749   4692395.43846  22748913.666    22748928.557
       219.000         178.000
  21191952.231    -5455544.17749  -4240204.85447  21191953.299    21191965.839
       232.000         203.000
  24515625.379    -1799409.49448   -961230.50144  24515626.193    24515642.937
       190.000         127.000
  21765281.097     1981894.28449   1545058.61147  21765281.176    21765294.886
       232.000         200.000
 98  6 15 19 50 45.0000000  0  7G17G30G24G 5G 6G26G10
  22511456.478    -6385469.74549  -4956558.62847  22511456.737    22511471.534
       227.000         195.000
  21162481.960     1749342.74349   1364661.38447  21162482.902    21162495.746
       237.000         208.000
  24164429.739     5352677.64149   4159303.90145  24164430.427    24164446.111
       205.000         154.000
  22757550.306     6079909.27849   4727763.22046  22757550.898    22757565.867
       219.000         178.000
  21186601.604    -5483663.23349  -4262115.79647  21186602.461    21186615.087
       232.000         203.000
  24507213.664    -1843612.03748   -995673.91144  24507213.188    24507233.240
       192.000         127.000
  21770109.947     2007269.86549   1564831.79247  21770109.888    21770123.525
       232.000         200.000
 98  6 15 19 51  0.0000000  0  7G17G30G24G 5G 6G26G10
  22505326.915    -6417680.29349  -4981657.72447  22505327.384    22505341.978
       227.000         195.000
  21167096.087     1773590.47549   1383555.71047  21167097.188    21167109.906
       238.000         208.000
  24171009.868     5387251.12949   4186244.24245  24171009.749    24171025.445
       207.000         154.000
  22766201.437     6125368.90349   4763186.26846  22766201.326    22766215.973
       220.000         178.000
  21181261.653    -5511725.49849  -4283982.48247  21181262.069    21181275.288
       232.000         203.000
  24498802.678    -1887811.02748  -1030114.50944  24498804.757    24498822.176
       193.000         127.000
  21774964.990     2032782.12149   1584711.47147  21774964.919    21774978.295
       232.000         201.000
 98  6 15 19 51 15.0000000  0  7G17G30G24G 5G 6G26G10
  22499208.332    -6449834.19749  -5006712.68747  22499208.441    22499222.985
       227.000         195.000
  21171733.315     1797960.56449   1402545.38247  21171734.293    21171747.132
       237.000         208.000
  24177585.397     5421810.85149   4213173.87145  24177586.391    24177602.024
       206.000         155.000
  22774864.282     6170895.75149   4798661.69546  22774864.698    22774879.603
       218.000         177.000
  21175932.157    -5539732.12249  -4305805.81747  21175932.825    21175945.627
       232.000         203.000
  24490393.502    -1932007.30248  -1064553.00544  24490392.775    24490411.796
       191.000         127.000
  21779845.582     2058429.35649   1604696.33447  21779845.411    21779858.666
       233.000         200.000
 98  6 15 19 51 30.0000000  0  7G17G30G24G 5G 6G26G10
  22493100.267    -6481930.36549  -5031722.65247  22493100.352    22493115.277
       227.000         195.000
  21176393.603     1822452.86049   1421630.28147  21176395.138    21176407.941
       237.000         208.000
  24184160.382     5456358.95849   4240094.45645  24184161.355    24184176.298
       208.000         157.000
  22783541.880     6216488.67649   4834188.61146  22783541.433    22783555.820
       220.000         177.000
  21170613.329    -5567682.04249  -4327584.96347  21170614.035    21170627.125
       232.000         203.000
  24481982.217    -1976196.60048  -1098986.06644  24481985.602    24482002.181
       192.000         130.000
  21784751.105     2084208.99549   1624784.36147  21784751.132    21784764.154
       232.000         200.000
 98  6 15 19 51 45.0000000  0  7G17G30G24G 5G 6G26G10
  22487005.242    -6513961.07849  -5056681.62247  22487005.475    22487020.322
       227.000         196.000
  21181079.933     1847076.90749   1440817.83647  21181081.056    21181093.680
       237.000         208.000
  24190735.092     5490905.61849   4267013.91445  24190735.217    24190750.269
       209.000         157.000
  22792229.220     6262151.69849   4869770.15746  22792230.526    22792245.335
       219.000         176.000
  21165307.256    -5595565.83649  -4349312.58547  21165308.239    21165320.690
       232.000         202.000
  24473577.151    -2020372.86448  -1133408.96245  24473578.284    24473595.096
       192.000         133.000
  21789682.263     2110123.31249   1644977.33547  21789682.589    21789695.611
       232.000         200.000
 98  6 15 19 52  0.0000000  0  7G17G30G24G 5G 6G26G10
  22480921.736    -6545930.85149  -5081593.10347  22480922.139    22480936.526
       228.000         195.000
  21185789.602     1871827.85449   1460104.27947  21185790.708    21185803.764
       237.000         208.000
  24197308.073     5525445.35349   4293927.95545  24197308.072    24197323.621
       208.000         158.000
  22800931.122     6307874.23649   4905398.07346  22800931.418    22800945.611
       220.000         175.000
  21160012.705    -5623389.55249  -4370993.39547  21160013.376    21160026.051
       232.000         203.000
  24465172.215    -2064543.33048  -1167827.36745  24465172.360    24465192.436
       194.000         134.000
  21794637.078     2136161.36949   1665266.73247  21794637.265    21794650.741
       232.000         200.000
 98  6 15 19 52 15.0000000  0  7G17G30G24G 5G 6G26G10
  22474849.261    -6577839.50949  -5106456.95547  22474849.818    22474864.547
       227.000         196.000
  21190523.468     1896704.14749   1479488.39747  21190524.578    21190537.289
       237.000         208.000
  24203878.973     5559979.73449   4320837.84045  24203879.227    24203895.479
       207.000         159.000
  22809641.687     6353652.57449   4941069.48146  22809642.370    22809657.019
       218.000         175.000
  21154728.494    -5651158.25949  -4392631.33547  21154729.100    21154742.092
       232.000         203.000
  24456767.342    -2108705.81549  -1202239.55745  24456769.193    24456786.413
       197.000         137.000
  21799614.360     2162317.24249   1685647.93347  21799614.372    21799627.741
       231.000         200.000
 98  6 15 19 52 30.0000000  0  7G17G30G24G 5G 6G26G10
  22468790.497    -6609678.28549  -5131266.36347  22468791.194    22468805.651
       227.000         195.000
  21195282.270     1921710.64049   1498973.96547  21195283.179    21195296.141
       237.000         208.000
  24210450.767     5594515.74249   4347748.98645  24210451.462    24210467.922
       206.000         159.000
  22818364.206     6399489.55049   4976786.57846  22818364.988    22818379.934
       218.000         175.000
  21149454.919    -5678867.90949  -4414223.25847  21149455.916    21149469.027
       231.000         203.000
  24448366.140    -2152852.76649  -1236639.61645  24448369.164    24448384.874
       197.000         140.000
  21804615.065     2188595.49549   1706124.49547  21804615.260    21804628.165
       232.000         200.000
 98  6 15 19 52 45.0000000  0  7G17G30G24G 5G 6G26G10
  22462743.165    -6641456.69449  -5156028.73147  22462743.573    22462758.352
       227.000         195.000
  21200063.319     1946837.11349   1518553.02547  21200064.609    21200077.593
       237.000         208.000
  24217020.450     5629042.53249   4374652.94545  24217021.733    24217037.982
       205.000         159.000
  22827095.708     6445371.02049   5012538.32846  22827096.363    22827110.529
       218.000         174.000
  21144191.548    -5706526.68849  -4435775.54547  21144192.341    21144205.416
       232.000         202.000
  24439965.795    -2196996.65349  -1271037.30945  24439968.100    24439985.507
       196.000         143.000
  21809636.039     2214983.09949   1726686.25947  21809636.349    21809649.565
       232.000         200.000
 98  6 15 19 53  0.0000000  0  7G17G30G24G 5G 6G26G10
  22456709.386    -6673162.71749  -5180734.69147  22456710.065    22456724.899
       227.000         195.000
  21204869.389     1972095.29749   1538234.71847  21204870.833    21204883.966
       237.000         208.000
  24223591.649     5663569.62849   4401557.12145  24223592.148    24223607.892
       206.000         159.000
  22835836.294     6491305.93249   5048331.73246  22835836.859    22835851.861
       218.000         175.000
  21138940.711    -5734119.55049  -4457276.46747  21138941.774    21138954.949
       231.000         202.000
  24431567.555    -2241128.51049  -1305425.64845  24431569.375    24431586.722
       199.000         144.000
  21814679.758     2241488.08249   1747339.49547  21814680.031    21814693.535
       232.000         200.000
 98  6 15 19 53 15.0000000  0  8G17G30G24G 5G 6G26G10G13
  22450688.878    -6704803.63749  -5205389.92147  22450689.005    22450703.947
       228.000         196.000
  21209699.942     1997480.30249   1558015.23247  21209701.487    21209714.601
       236.000         207.000
  24230159.735     5698087.93349   4428454.45545  24230161.101    24230176.583
       207.000         161.000
  22844585.964     6537286.40149   5084160.63446  22844586.429    22844602.464
       218.000         175.000
  21133700.879    -5761654.69849  -4478732.41647  21133702.101    21133715.086
       231.000         202.000
  24423171.038    -2285256.80749  -1339811.19845  24423171.973    24423189.834
       200.000         145.000
  21819744.113     2268100.59649   1768076.52047  21819744.438    21819758.117
       231.000         201.000
  24995742.062    -2936836.13259  -2276696.10355  24995742.503    24995758.113
       206.000         147.000
 98  6 15 19 53 30.0000000  0  8G17G30G24G 5G 6G26G10G13
  22444680.856    -6736374.09149  -5229990.24747  22444681.451    22444695.792
       228.000         196.000
  21214556.070     2022998.31949   1577899.39247  21214557.475    21214570.665
       236.000         207.000
  24236727.443     5732603.45649   4455349.62946  24236728.527    24236744.571
       208.000         163.000
  22853345.231     6583315.94049   5120027.78046  22853345.913    22853360.792
       218.000         174.000
  21128472.802    -5789129.17149  -4500141.08747  21128473.677    21128486.906
       232.000         203.000
  24414776.535    -2329371.92449  -1374186.49145  24414777.172    24414795.115
       200.000         146.000
  21824829.453     2294826.18749   1788901.65347  21824830.166    21824843.659
       231.000         201.000
  24994244.624    -2944706.32949  -2282828.70845  24994245.661    24994260.693
       204.000         146.000
 98  6 15 19 53 45.0000000  0  8G17G30G24G 5G 6G26G10G13
  22438686.500    -6767874.74549  -5254536.18947  22438687.355    22438701.674
       229.000         196.000
  21219437.895     2048651.28349   1597888.70447  21219439.132    21219452.198
       237.000         207.000
  24243295.874     5767117.30149   4482243.49646  24243296.836    24243312.751
       209.000         164.000
  22862114.135     6629394.65649   5155933.23346  22862115.115    22862128.967
       217.000         174.000
  21123255.747    -5816543.83349  -4521503.15347  21123256.855    21123270.333
       231.000         203.000
  24406382.758    -2373475.34149  -1408552.66845  24406385.143    24406402.057
       202.000         148.000
  21829936.460     2321660.97949   1809811.87347  21829936.533    21829950.446
       232.000         201.000
  24992768.920    -2952459.26349  -2288869.95445  24992770.092    24992785.118
       206.000         147.000
 98  6 15 19 54  0.0000000  0  8G17G30G24G 5G 6G26G10G13
  22432703.901    -6799316.21649  -5279036.00547  22432704.181    22432718.648
       228.000         195.000
  21224343.001     2074427.46049   1617974.02847  21224344.397    21224357.211
       236.000         207.000
  24249862.114     5801618.67449   4509127.64146  24249862.879    24249877.889
       212.000         164.000
  22870889.733     6675513.85749   5191870.24646  22870890.870    22870905.588
       216.000         173.000
  21118048.750    -5843908.93849  -4542826.60447  21118049.645    21118062.732
       232.000         202.000
  24397990.074    -2417578.76649  -1442918.84545  24397992.059    24398009.338
       201.000         150.000
  21835062.024     2348596.30449   1830800.43647  21835062.332    21835076.126
       232.000         201.000
  24991314.993    -2960102.51549  -2294825.73445  24991315.978    24991330.665
       205.000         146.000
 98  6 15 19 54 15.0000000  0  8G17G30G24G 5G 6G26G10G13
  22426732.789    -6830691.44549  -5303484.20947  22426733.342    22426748.257
       228.000         195.000
  21229272.682     2100332.99049   1638160.14047  21229273.800    21229287.040
       236.000         207.000
  24256425.282     5836112.94449   4536006.27446  24256426.333    24256441.859
       212.000         164.000
  22879675.755     6721682.76249   5227845.97146  22879676.712    22879691.658
       216.000         173.000
  21112851.222    -5871220.82449  -4564108.58547  21112852.211    21112865.217
       231.000         202.000
  24389599.617    -2461671.45749  -1477276.66445  24389601.218    24389618.368
       201.000         149.000
  21840208.428     2375639.82249   1851873.30047  21840208.602    21840222.054
       232.000         201.000
  24989883.433    -2967625.41849  -2300687.73145  24989884.232    24989898.827
       206.000         146.000
 98  6 15 19 54 30.0000000  0  8G17G30G24G 5G 6G26G10G13
  22420774.162    -6862005.09649  -5327884.42947  22420774.856    22420789.436
       228.000         196.000
  21234225.845     2126361.95249   1658442.43947  21234227.004    21234240.034
       236.000         207.000
  24262987.195     5870597.45749   4562877.28946  24262988.824    24263003.616
       211.000         163.000
  22888470.039     6767898.48149   5263858.18646  22888470.651    22888486.694
       217.000         173.000
  21107663.766    -5898479.19549  -4585348.86247  21107665.146    21107678.094
       231.000         202.000
  24381209.604    -2505755.19149  -1511627.51045  24381212.208    24381229.488
       200.000         149.000
  21845375.282     2402791.42249   1873030.39147  21845375.917    21845389.036
       232.000         202.000
  24988474.641    -2975027.18549  -2306455.32845  24988475.093    24988490.619
       206.000         147.000
 98  6 15 19 54 45.0000000  0  8G17G30G24G 5G 6G26G10G13
  22414827.169    -6893257.98149  -5352237.29947  22414827.024    22414841.885
       229.000         196.000
  21239202.392     2152514.82649   1678821.29647  21239203.640    21239216.743
       236.000         207.000
  24269546.731     5905069.70749   4589738.75345  24269548.180    24269564.314
       211.000         162.000
  22897273.826     6814162.93049   5299908.36746  22897274.570    22897289.961
       216.000         172.000
  21102487.998    -5925681.18749  -4606545.21447  21102488.918    21102502.112
       231.000         203.000
  24372822.589    -2549832.03149  -1545972.98445  24372824.330    24372842.673
       201.000         151.000
  21850562.739     2430052.64249   1894272.89947  21850563.078    21850576.858
       232.000         202.000
  24987089.002    -2982307.96949  -2312128.64945  24987090.039    24987104.898
       206.000         145.000
 98  6 15 19 55  0.0000000  0  8G17G30G24G 5G 6G26G10G13
  22408890.627    -6924455.40949  -5376546.95347  22408890.741    22408905.222
       229.000         196.000
  21244201.452     2178787.63049   1699293.60147  21244203.017    21244216.406
       236.000         207.000
  24276104.772     5939528.21749   4616589.51945  24276106.152    24276121.629
       210.000         161.000
  22906087.231     6860474.37449   5335995.17746  22906087.484    22906102.685
       216.000         172.000
  21097321.361    -5952831.33249  -4627701.15647  21097322.355    21097335.230
       231.000         203.000
  24364436.615    -2593904.18249  -1580314.80345  24364438.465    24364456.015
       201.000         152.000
  21855771.182     2457421.92349   1915599.60847  21855771.713    21855784.760
       233.000         203.000
  24985725.809    -2989473.34849  -2317712.06445  24985726.613    24985741.539
       205.000         145.000
 98  6 15 19 55 15.0000000  0  9G17G30G24G 5G 6G23G26G10G13
  22402964.217    -6955597.50749  -5400813.49847  22402964.777    22402978.964
       228.000         196.000
  21249225.013     2205183.73249   1719861.98547  21249226.317    21249239.538
       237.000         207.000
  24282659.865     5973975.75649   4643431.72645  24282660.636    24282676.491
       209.000         160.000
  22914909.909     6906836.02749   5372121.10046  22914909.869    22914924.880
       217.000         172.000
  21092164.517    -5979929.74749  -4648816.79747  21092165.433    21092178.734
       231.000         202.000
  24846604.043    -4832903.12459  -3754479.59455  24846603.727    24846622.838
       206.000         134.000
  24356052.181    -2637966.49849  -1614648.96145  24356053.074    24356070.460
       201.000         152.000
  21861000.532     2484903.42749   1937013.76747  21861000.971    21861014.486
       232.000         203.000
  24984384.715    -2996519.03049  -2323202.20845  24984386.146    24984400.489
       204.000         144.000
 98  6 15 19 55 30.0000000  0  9G17G30G24G 5G 6G23G26G10G13
  22397047.066    -6986692.02149  -5425042.96147  22397047.452    22397061.943
       229.000         196.000
  21254270.785     2231698.98149   1740523.20647  21254271.965    21254285.147
       236.000         207.000
  24289212.446     6008410.27549   4670263.79045  24289213.485    24289228.990
       210.000         159.000
  22923739.732     6953241.06649   5408280.83846  22923740.831    22923755.895
       216.000         172.000
  21087016.903    -6006983.36349  -4669897.52847  21087017.535    21087030.350
       232.000         203.000
  24835821.587    -4889565.69449  -3798632.15445  24835821.140    24835839.089
       202.000         132.000
  24347668.037    -2682021.97749  -1648977.78545  24347669.637    24347687.084
       200.000         151.000
  21866251.309     2512493.86449   1958512.80747  21866251.291    21866265.017
       233.000         203.000
  24983065.626    -3003450.46849  -2328603.32145  24983066.902    24983081.935
       205.000         144.000
 98  6 15 19 55 45.0000000  0  9G17G30G24G 5G 6G23G26G10G13
  22391139.579    -7017736.35449  -5449233.33347  22391140.233    22391154.698
       229.000         196.000
  21259340.123     2258337.63349   1761280.58447  21259341.313    21259354.347
       237.000         207.000
  24295763.324     6042833.79649   4697087.28145  24295763.624    24295779.388
       210.000         159.000
  22932579.647     6999691.76449   5444476.14846  22932580.303    22932594.915
       216.000         173.000
  21081878.289    -6033985.43949  -4690938.09747  21081879.075    21081892.164
       231.000         202.000
  24825041.736    -4946210.89649  -3842771.20244  24825042.557    24825059.039
       199.000         130.000
  24339287.006    -2726068.03049  -1683299.27645  24339287.692    24339305.013
       202.000         151.000
  21871523.232     2540198.47649   1980100.81247  21871523.198    21871537.016
       233.000         203.000
  24981769.314    -3010262.97749  -2333911.76645  24981770.438    24981784.964
       203.000         144.000
 98  6 15 19 56  0.0000000  0  9G17G30G24G 5G 6G23G26G10G13
  22385240.440    -7048738.38049  -5473390.72747  22385240.398    22385254.769
       229.000         197.000
  21264430.690     2285089.85049   1782126.46147  21264432.194    21264445.246
       237.000         207.000
  24302310.258     6077237.33649   4723895.18945  24302311.157    24302327.062
       211.000         161.000
  22941426.135     7046181.41549   5480701.81946  22941426.679    22941441.919
       217.000         173.000
  21076748.728    -6060941.20549  -4711942.58447  21076749.672    21076762.840
       231.000         202.000
  24814264.514    -5002848.34649  -3886904.18944  24814263.969    24814283.374
       197.000         128.000
  24330904.258    -2770114.66449  -1717621.21545  24330905.568    24330923.535
       200.000         151.000
  21876816.116     2568013.05449   2001774.50647  21876816.232    21876829.871
       233.000         203.000
  24980494.663    -3016961.20349  -2339131.15045  24980495.799    24980510.739
       205.000         145.000
 98  6 15 19 56 15.0000000  0  9G17G30G24G 5G 6G23G26G10G13
  22379351.264    -7079685.18049  -5497505.09047  22379351.699    22379365.643
       229.000         197.000
  21269545.508     2311967.32549   1803069.93847  21269546.736    21269559.752
       237.000         207.000
  24308856.003     6111632.22849   4750696.36345  24308856.414    24308871.750
       212.000         161.000
  22950283.017     7092724.04549   5516968.76046  22950283.633    22950299.148
       216.000         173.000
  21071630.627    -6087836.83049  -4732900.20247  21071631.379    21071644.658
       231.000         203.000
  24803488.749    -5059466.04048  -3931021.81444  24803490.777    24803508.255
       190.000         127.000
  24322525.453    -2814147.23849  -1751932.20145  24322526.348    24322543.806
       203.000         152.000
  21882132.702     2595953.95849   2023546.63847  21882132.820    21882147.136
       232.000         203.000
  24979244.895    -3023534.81449  -2344253.44145  24979245.045    24979260.028
       203.000         144.000
 98  6 15 19 56 30.0000000  0  9G17G30G24G 5G 6G23G26G10G13
  22373472.400    -7110579.18649  -5521578.31447  22373472.325    22373486.998
       229.000         196.000
  21274683.671     2338968.62349   1824109.90147  21274684.938    21274697.902
       237.000         207.000
  24315398.326     6146017.67249   4777490.18845  24315399.856    24315415.277
       211.000         161.000
  22959149.215     7139315.00649   5553273.37046  22959149.527    22959164.957
       217.000         172.000
  21066524.149    -6114672.31349  -4753810.96247  21066525.028    21066538.165
       231.000         203.000
  24792719.309    -5116065.38249  -3975125.08744  24792721.525    24792738.871
       195.000         128.000
  24314149.106    -2858167.06349  -1786233.25745  24314150.167    24314167.889
       203.000         151.000
  21887473.645     2624021.28649   2045417.27947  21887474.115    21887488.145
       231.000         203.000
  24978014.797    -3029989.48049  -2349283.06545  24978016.815    24978030.928
       203.000         142.000
 98  6 15 19 56 45.0000000  0  9G17G30G24G 5G 6G23G26G10G13
  22367602.902    -7141422.47649  -5545612.02247  22367603.268    22367617.734
       229.000         196.000
  21279845.001     2366092.55749   1845245.42147  21279846.377    21279859.367
       237.000         207.000
  24321940.437     6180393.37249   4804276.43045  24321940.870    24321957.055
       213.000         161.000
  22968024.321     7185952.96249   5589614.59646  22968024.455    22968039.832
       216.000         172.000
  21061429.415    -6141445.81849  -4774673.42447  21061430.208    21061443.090
       231.000         202.000
  24781951.942    -5172644.61949  -4019212.67044  24781954.228    24781971.578
       196.000         129.000
  24305773.487    -2902177.70349  -1820527.16745  24305774.969    24305791.888
       201.000         150.000
  21892839.041     2652216.68249   2067387.71347  21892839.641    21892853.462
       231.000         203.000
  24976808.838    -3036329.77949  -2354223.55445  24976809.882    24976824.359
       202.000         140.000
 98  6 15 19 57  0.0000000  0  9G17G30G24G 5G 6G23G26G10G13
  22361742.070    -7172220.62949  -5569610.55747  22361742.403    22361757.067
       228.000         196.000
  21285029.300     2393334.97049   1866473.26347  21285030.341    21285043.570
       236.000         206.000
  24328479.576     6214754.70449   4831051.47345  24328479.853    24328495.362
       213.000         160.000
  22976906.846     7232633.17249   5625988.74346  22976907.559    22976922.347
       216.000         172.000
  21056344.312    -6168165.68949  -4795494.09747  21056345.355    21056358.667
       230.000         202.000
  24771189.301    -5229208.16249  -4063288.04445  24771191.198    24771208.327
       196.000         134.000
  24297398.502    -2946185.14349  -1854818.57145  24297400.087    24297417.581
       200.000         150.000
  21898227.276     2680531.63049   2089451.30247  21898227.607    21898241.661
       231.000         202.000
  24975623.161    -3042562.59449  -2359080.27345  24975623.901    24975637.887
       204.000         138.000
 98  6 15 19 57 15.0000000  0  9G17G30G24G 5G 6G23G26G10G13
  22355890.014    -7202974.26749  -5593574.40847  22355890.218    22355904.741
       229.000         197.000
  21290236.139     2420695.72649   1887793.32447  21290237.042    21290249.982
       237.000         206.000
  24335015.249     6249102.46349   4857815.93445  24335016.070    24335031.294
       213.000         160.000
  22985797.633     7279355.67849   5662395.85146  22985798.706    22985813.673
       216.000         173.000
  21051270.144    -6194832.21549  -4816273.19747  21051271.026    21051284.405
       231.000         203.000
  24760429.093    -5285756.14249  -4107351.30145  24760429.420    24760449.213
       201.000         138.000
  24289026.597    -2990189.17249  -1889107.32245  24289026.984    24289043.955
       204.000         150.000
  21903638.053     2708963.78449   2111606.22247  21903638.054    21903651.717
       231.000         202.000
  24974457.468    -3048684.68549  -2363850.72845  24974459.024    24974474.248
       203.000         140.000
 98  6 15 19 57 30.0000000  0  9G17G30G24G 5G 6G23G26G10G13
  22350048.223    -7233671.39449  -5617494.22747  22350048.638    22350062.722
       229.000         196.000
  21295467.159     2448187.40249   1909215.39447  21295468.636    21295481.477
       237.000         206.000
  24341551.462     6283447.73349   4884578.44445  24341551.412    24341567.024
       213.000         158.000
  22994698.967     7326130.83649   5698843.99446  22994699.508    22994714.892
       216.000         172.000
  21046208.465    -6221430.84449  -4836999.39447  21046209.270    21046222.601
       231.000         203.000
  24749674.570    -5342278.56849  -4151394.64745  24749673.675    24749693.108
       203.000         143.000
  24280655.389    -3034180.07149  -1923385.84545  24280655.734    24280672.069
       202.000         149.000
  21909072.605     2737523.50149   2133860.54747  21909072.873    21909086.461
       232.000         202.000
  24973315.872    -3054681.81449  -2368523.82345  24973317.868    24973334.174
       201.000         143.000
 98  6 15 19 57 45.0000000  0  9G17G30G24G 5G 6G23G26G10G13
  22344216.769    -7264315.71349  -5641372.88747  22344217.564    22344231.892
       228.000         196.000
  21300722.551     2475801.75549   1930733.05747  21300723.563    21300736.304
       237.000         206.000
  24348084.151     6317783.10249   4911333.24645  24348085.862    24348100.629
       208.000         154.000
  23003609.150     7372952.98449   5735328.74446  23003609.899    23003625.180
       217.000         172.000
  21041159.074    -6247965.46449  -4857675.71247  21041160.014    21041173.466
       231.000         203.000
  24738922.180    -5398780.64349  -4195422.13445  24738921.655    24738940.870
       206.000         147.000
  24272284.584    -3078162.58549  -1957657.83045  24272286.060    24272302.810
       202.000         149.000
  21914530.143     2766203.12149   2156208.29247  21914530.162    21914544.374
       230.000         202.000
  24972198.556    -3060561.47149  -2373105.37945  24972198.954    24972214.416
       203.000         142.000
 98  6 15 19 58  0.0000000  0  9G17G30G24G 5G 6G23G26G10G13
  22338395.704    -7294906.34749  -5665209.72547  22338396.116    22338410.061
       229.000         196.000
  21305999.973     2503535.73349   1952343.93547  21306001.019    21306014.210
       236.000         206.000
  24354616.571     6352107.92549   4938079.84345  24354617.307    24354632.955
       208.000         152.000
  23012528.871     7419824.75049   5771852.15946  23012528.502    23012544.422
       216.000         172.000
  21036121.859    -6274436.54149  -4878302.52147  21036122.906    21036136.097
       231.000         203.000
  24728173.274    -5455263.12949  -4239434.37945  24728173.519    24728191.878
       208.000         151.000
  24263916.367    -3122136.59749  -1991923.18345  24263918.017    24263934.956
       200.000         147.000
  21920010.023     2795000.78749   2178648.02947  21920010.122    21920024.198
       230.000         201.000
  24971101.430    -3066325.08749  -2377596.52545  24971103.039    24971116.447
       203.000         139.000
 98  6 15 19 58 15.0000000  0  9G17G30G24G 5G 6G23G26G10G13
  22332584.347    -7325445.99349  -5689006.82647  22332584.772    22332599.007
       228.000         196.000
  21311299.416     2531384.94449   1974044.61047  21311300.554    21311313.490
       236.000         206.000
  24361145.590     6386421.58949   4964817.75045  24361146.525    24361162.664
       205.000         148.000
  23021456.641     7466745.56649   5808413.80146  23021457.930    23021473.040
       216.000         172.000
  21031095.969    -6300849.43749  -4898883.98847  21031096.512    21031109.841
       231.000         203.000
  24717428.707    -5511724.43649  -4283430.09845  24717429.218    24717447.673
       210.000         155.000
  24255550.459    -3166101.65649  -2026181.57045  24255550.805    24255567.916
       199.000         145.000
  21925511.496     2823911.19049   2201175.60947  21925511.716    21925525.613
       231.000         201.000
  24970025.751    -3071975.88549  -2381999.74145  24970026.767    24970041.216
       200.000         137.000
 98  6 15 19 58 30.0000000  0  9G17G30G24G 5G 6G23G26G10G13
  22326783.288    -7355929.26749  -5712760.00047  22326783.785    22326798.023
       228.000         196.000
  21316622.212     2559357.56949   1995841.45047  21316623.429    21316636.553
       236.000         206.000
  24367674.170     6420728.91549   4991550.71345  24367675.660    24367690.864
       205.000         147.000
  23030396.618     7513719.01749   5845016.45446  23030396.876    23030411.619
       216.000         171.000
  21026081.769    -6327199.23149  -4919416.28547  21026082.298    21026095.603
       231.000         203.000
  24706689.471    -5568158.55749  -4327404.62545  24706690.447    24706708.700
       209.000         157.000
  24247186.471    -3210050.33049  -2060427.17845  24247187.896    24247204.412
       197.000         144.000
  21931034.443     2852934.86849   2223791.45747  21931034.575    21931048.720
       229.000         201.000
  24968972.278    -3077509.67249  -2386311.78545  24968972.042    24968988.099
       200.000         135.000
 98  6 15 19 58 45.0000000  0  9G17G30G24G 5G 6G23G26G10G13
  22320993.806    -7386353.93249  -5736467.51547  22320993.897    22321008.554
       228.000         196.000
  21321968.804     2587453.35349   2017734.25647  21321970.194    21321983.251
       236.000         207.000
  24374201.498     6455028.72849   5018277.80345  24374202.180    24374218.466
       203.000         149.000
  23039344.742     7560744.91649   5881659.97746  23039345.468    23039360.350
       215.000         171.000
  21021079.417    -6353485.40549  -4939899.01247  21021080.376    21021093.678
       231.000         203.000
  24695956.193    -5624564.94049  -4371357.54445  24695956.146    24695974.901
       212.000         158.000
  24238826.186    -3253981.54649  -2094659.19345  24238828.364    24238844.614
       196.000         143.000
  21936578.503     2882068.43549   2246492.92647  21936578.717    21936592.503
       229.000         201.000
  24967942.745    -3082921.54749  -2390528.81745  24967944.515    24967957.125
       201.000         136.000
 98  6 15 19 59  0.0000000  0  9G17G30G24G 5G 6G23G26G10G13
  22315215.457    -7416718.43049  -5760128.14047  22315215.642    22315230.215
       228.000         196.000
  21327338.990     2615674.05449   2039724.40447  21327340.205    21327353.449
       236.000         207.000
  24380727.451     6489319.73549   5044998.02645  24380727.916    24380743.893
       206.000         150.000
  23048304.255     7607827.69949   5918347.82346  23048305.290    23048320.024
       215.000         170.000
  21016089.886    -6379707.27949  -4960331.62647  21016090.352    21016103.471
       232.000         204.000
  24685227.015    -5680944.37549  -4415289.47045  24685227.257    24685246.069
       212.000         159.000
  24230470.519    -3297890.79249  -2128874.06545  24230472.118    24230489.845
       196.000         140.000
  21942143.302     2911310.15549   2269278.67747  21942143.534    21942157.247
       230.000         201.000
  24966936.835    -3088205.25849  -2394645.98745  24966940.048    24966951.830
       202.000         137.000
 98  6 15 19 59 15.0000000  0  9G17G30G24G 5G 6G23G26G10G13
  22309449.139    -7447022.46349  -5783741.65247  22309449.150    22309463.828
       229.000         196.000
  21332732.539     2644016.59949   2061809.48847  21332733.862    21332746.522
       236.000         207.000
  24387250.778     6523600.41949   5071710.21245  24387251.685    24387268.189
       207.000         153.000
  23057274.253     7654965.02249   5955078.16446  23057274.872    23057289.877
       215.000         171.000
  21011111.409    -6405867.39549  -4980716.12947  21011112.414    21011125.310
       231.000         204.000
  24674501.393    -5737300.11949  -4459202.92845  24674503.374    24674521.997
       210.000         160.000
  24222119.081    -3341777.43449  -2163071.34645  24222120.187    24222138.262
       197.000         140.000
  21947727.887     2940657.75349   2292146.92747  21947727.947    21947741.978
       230.000         201.000
  24965955.872    -3093360.56549  -2398663.09345  24965957.055    24965971.674
       202.000         137.000
 98  6 15 19 59 30.0000000  0  9G17G30G24G 5G 6G23G26G10G13
  22303692.822    -7477271.30449  -5807312.16047  22303693.186    22303707.595
       229.000         196.000
  21338148.403     2672476.11949   2083985.72747  21338149.285    21338162.454
       236.000         207.000
  24393770.895     6557864.09049   5098409.14445  24393771.520    24393787.043
       208.000         153.000
  23066252.993     7702148.65649   5991844.58746  23066253.319    23066268.917
       215.000         169.000
  21006144.883    -6431968.36249  -5001054.53947  21006145.754    21006159.033
       231.000         204.000
  24663782.289    -5793638.66349  -4503102.96345  24663782.306    24663800.772
       210.000         159.000
  24213771.237    -3385645.22949  -2197253.94545  24213771.911    24213789.892
       196.000         139.000
  21953332.456     2970110.31549   2315096.96747  21953332.484    21953346.535
       229.000         200.000
  24964998.561    -3098394.39049  -2402585.55545  24964999.563    24965014.418
       203.000         137.000
 98  6 15 19 59 45.0000000  0  9G17G30G24G 5G 6G23G26G10G13
  22297947.424    -7507463.56549  -5830838.57247  22297947.378    22297962.090
       229.000         197.000
  21343585.200     2701048.37049   2106249.80547  21343586.572    21343599.755
       236.000         207.000
  24400286.970     6592107.02749   5125091.94545  24400287.704    24400302.756
       209.000         154.000
  23075239.812     7749373.24449   6028642.93446  23075240.515    23075255.445
       214.000         169.000
  21001189.349    -6458010.39649  -5021347.02447  21001189.991    21001203.426
       232.000         204.000
  24653063.566    -5849960.52349  -4546990.01645  24653064.385    24653083.033
       209.000         158.000
  24205428.057    -3429493.58749  -2231421.38645  24205428.688    24205445.654
       196.000         137.000
  21958956.868     2999666.43449   2338127.70347  21958956.997    21958970.480
       230.000         200.000
  24964062.292    -3103311.95449  -2406417.40745  24964064.937    24964078.194
       201.000         138.000
 98  6 15 20  0  0.0000000  0  9G17G30G24G 5G 6G23G26G10G13
  22292213.430    -7537595.94849  -5854318.33047  22292213.913    22292227.634
       228.000         197.000
  21349044.232     2729735.21549   2128603.18047  21349045.272    21349058.632
       236.000         207.000
  24406800.689     6626330.79349   5151759.79145  24406800.871    24406816.394
       209.000         157.000
  23084234.031     7796640.67149   6065474.66046  23084234.600    23084250.092
       215.000         169.000
  20996245.132    -6483992.56849  -5041592.85947  20996245.970    20996258.987
       232.000         204.000
  24642349.779    -5906262.16649  -4590861.30545  24642350.812    24642369.129
       210.000         157.000
  24197088.692    -3473317.60349  -2265569.83945  24197088.804    24197105.814
       196.000         137.000
  21964600.946     3029328.54649   2361241.03047  21964601.239    21964615.037
       229.000         200.000
  24963148.462    -3108111.46249  -2410157.28845  24963150.086    24963164.426
       202.000         139.000
 98  6 15 20  0 15.0000000  0  9G17G30G24G 5G 6G23G26G10G13
  22286492.125    -7567661.52249  -5877746.03647  22286492.243    22286506.447
       229.000         197.000
  21354526.206     2758543.33349   2151051.04847  21354527.375    21354540.541
       236.000         207.000
  24413309.732     6660543.57249   5178419.06345  24413310.663    24413327.787
       207.000         157.000
  23093238.106     7843954.41049   6102342.45446  23093238.352    23093253.182
       216.000         169.000
  20991313.397    -6509907.04549  -5061785.95947  20991314.367    20991327.504
       232.000         204.000
  24631640.881    -5962537.52049  -4634712.09445  24631641.900    24631659.797
       209.000         157.000
  24188755.191    -3517111.48349  -2299694.84445  24188756.396    24188771.888
       195.000         137.000
  21970267.808     3059106.72049   2384444.79247  21970267.871    21970281.779
       229.000         200.000
  24962260.815    -3112784.31049  -2413798.45945  24962261.200    24962276.946
       203.000         138.000
 98  6 15 20  0 30.0000000  0  9G17G30G24G 5G 6G23G26G10G13
  22280782.421    -7597664.54049  -5901124.99147  22280782.851    22280797.375
       228.000         197.000
  21360030.486     2787468.18249   2173589.88147  21360031.931    21360044.591
       237.000         207.000
  24419818.606     6694739.58849   5205065.25645  24419817.876    24419834.580
       207.000         155.000
  23102247.741     7891305.96749   6139239.74046  23102248.680    23102264.314
       215.000         169.000
  20986394.243    -6535756.50449  -5081928.38547  20986395.174    20986408.605
       231.000         204.000
  24620936.519    -6018791.82449  -4678546.47945  24620937.303    24620955.469
       208.000         154.000
  24180425.293    -3560881.39749  -2333801.17445  24180425.623    24180442.805
       198.000         137.000
  21975955.922     3088997.58349   2407736.36447  21975955.883    21975969.888
       230.000         199.000
  24961394.075    -3117334.61849  -2417344.13645  24961396.742    24961409.507
       204.000         138.000
 98  6 15 20  0 45.0000000  0  9G17G30G24G 5G 6G23G26G10G13
  22275085.644    -7627600.46849  -5924451.66847  22275086.094    22275100.735
       228.000         197.000
  21365556.967     2816511.15949   2196220.76347  21365558.658    21365571.279
       236.000         207.000
  24426321.796     6728922.35749   5231701.11945  24426322.877    24426339.194
       204.000         153.000
  23111266.737     7938696.47749   6176167.37346  23111267.320    23111282.323
       216.000         169.000
  20981489.012    -6561534.85849  -5102015.40747  20981489.749    20981502.971
       231.000         203.000
  24610235.165    -6075022.92249  -4722362.79045  24610235.900    24610254.115
       207.000         153.000
  24172101.636    -3604626.28449  -2367887.99145  24172102.035    24172119.140
       200.000         138.000
  21981666.507     3119005.80449   2431119.38747  21981666.336    21981680.184
       229.000         199.000
  24960552.043    -3121760.28749  -2420792.67745  24960552.355    24960568.048
       202.000         138.000
 98  6 15 20  1  0.0000000  0  9G17G30G24G 5G 6G23G26G10G13
  22269399.841    -7657479.51849  -5947734.02847  22269400.271    22269415.046
       229.000         197.000
  21371104.413     2845660.37849   2218934.42447  21371105.486    21371118.530
       237.000         207.000
  24432822.306     6763085.19149   5258321.44845  24432823.757    24432839.832
       201.000         149.000
  23120290.952     7986117.89749   6213119.08846  23120291.486    23120306.695
       216.000         168.000
  20976595.952    -6587248.96449  -5122052.36947  20976596.593    20976609.834
       232.000         204.000
  24599537.752    -6131239.16649  -4766167.52445  24599538.265    24599556.764
       202.000         151.000
  24163778.029    -3648356.12349  -2401963.08345  24163779.989    24163797.313
       198.000         137.000
  21987398.389     3149127.04049   2454590.46947  21987398.234    21987411.910
       230.000         199.000
  24959732.089    -3126071.14749  -2424151.77045  24959733.053    24959746.760
       204.000         138.000
 98  6 15 20  1 15.0000000  0  9G17G30G24G 5G 6G23G26G10G13
  22263726.885    -7687292.59749  -5970964.97947  22263727.065    22263741.482
       229.000         196.000
  21376673.151     2874925.45849   2241738.37347  21376674.268    21376687.357
       237.000         206.000
  24439321.296     6797237.82949   5284933.88245  24439322.046    24439337.733
       203.000         148.000
  23129321.830     8033575.91249   6250099.32746  23129322.468    23129337.592
       215.000         169.000
  20971716.030    -6612891.37649  -5142033.46147  20971717.054    20971729.918
       231.000         203.000
  24588845.500    -6187429.80049  -4809952.28645  24588845.628    24588863.132
       205.000         149.000
  24155461.633    -3692066.87149  -2436023.30145  24155461.347    24155479.143
       199.000         138.000
  21993153.483     3179370.05649   2478156.44947  21993153.616    21993166.872
       230.000         198.000
  24958934.320    -3130263.81849  -2427418.75045  24958935.259    24958949.596
       203.000         138.000
 98  6 15 20  1 30.0000000  0  9G17G30G24G 5G 6G23G26G10G13
  22258064.462    -7717048.18349  -5994151.13247  22258065.084    22258079.731
       228.000         197.000
  21382262.468     2904298.41749   2264626.38447  21382263.888    21382276.973
       237.000         207.000
  24445818.241     6831374.06349   5311533.51145  24445818.434    24445834.592
       203.000         147.000
  23138357.353     8081060.06049   6287099.92246  23138358.475    23138373.603
       215.000         168.000
  20966848.988    -6638469.60149  -5161964.53647  20966849.640    20966862.835
       231.000         204.000
  24578156.960    -6243598.74149  -4853720.15045  24578156.944    24578174.634
       200.000         144.000
  24147144.276    -3735771.41449  -2470078.70145  24147145.498    24147162.728
       201.000         139.000
  21998930.033     3209725.78849   2501810.26047  21998929.788    21998943.515
       230.000         199.000
  24958156.503    -3134350.25949  -2430602.96545  24958158.421    24958171.283
       202.000         139.000
 98  6 15 20  1 45.0000000  0  9G17G30G24G 5G 6G23G26G10G13
  22252413.480    -7746744.79749  -6017291.33647  22252413.891    22252428.685
       229.000         197.000
  21387873.301     2933781.35249   2287600.08347  21387874.213    21387887.060
       237.000         207.000
  24452311.090     6865496.07649   5338122.03445  24452312.190    24452328.595
       205.000         150.000
  23147398.159     8128572.83649   6324122.82146  23147399.616    23147415.113
       214.000         168.000
  20961993.711    -6663982.79349  -5181844.94047  20961994.643    20962007.720
       232.000         204.000
  24567474.093    -6299740.14949  -4897466.56945  24567473.474    24567492.033
       201.000         144.000
  24138827.970    -3779467.40849  -2504127.41745  24138829.718    24138845.644
       200.000         140.000
  22004727.223     3240193.29949   2525551.16747  22004727.714    22004741.068
       229.000         198.000
  24957400.381    -3138325.64049  -2433700.64045  24957400.625    24957414.733
       203.000         136.000
 98  6 15 20  2  0.0000000  0  9G17G30G24G 5G 6G23G26G10G13
  22246773.693    -7776381.31749  -6040384.71047  22246774.166    22246788.532
       228.000         197.000
  21393505.397     2963377.73449   2310662.19147  21393506.137    21393519.263
       237.000         207.000
  24458802.431     6899609.29749   5364703.71845  24458803.620    24458819.407
       208.000         151.000
  23156448.187     8176122.85149   6361174.73946  23156447.957    23156463.612
       215.000         168.000
  20957151.593    -6689429.78449  -5201673.75747  20957152.396    20957165.079
       232.000         204.000
  24556795.666    -6355849.17049  -4941187.74345  24556796.705    24556814.262
       202.000         142.000
  24130517.701    -3823150.23849  -2538165.87745  24130517.292    24130534.045
       202.000         143.000
  22010547.106     3270774.13349   2549380.38147  22010547.014    22010560.450
       230.000         198.000
  24956664.407    -3142184.57949  -2436707.58945  24956666.047    24956682.144
       202.000         138.000
 98  6 15 20  2 15.0000000  0  9G17G30G24G 5G 6G23G26G10G13
  22241144.563    -7805962.59249  -6063435.03547  22241144.994    22241159.809
       228.000         196.000
  21399159.349     2993089.91149   2333814.52247  21399160.321    21399173.110
       237.000         207.000
  24465293.503     6933716.20449   5391280.49645  24465294.129    24465309.457
       210.000         154.000
  23165502.698     8223713.14849   6398258.04446  23165504.554    23165519.747
       214.000         168.000
  20952321.743    -6714810.15849  -5221450.66747  20952322.579    20952335.613
       231.000         203.000
  24546124.488    -6411926.99549  -4984884.61145  24546124.487    24546142.287
       201.000         141.000
  24122205.990    -3866822.02449  -2572195.73945  24122207.267    24122223.178
       202.000         143.000
  22016387.998     3301467.76449   2573297.48347  22016388.103    22016401.432
       230.000         198.000
  24955953.056    -3145925.61349  -2439622.66345  24955955.651    24955968.908
       203.000         139.000
 98  6 15 20  2 30.0000000  0  9G17G30G24G 5G 6G23G26G10G13
  22235523.802    -7835499.86449  -6086451.07547  22235524.131    22235538.661
       228.000         197.000
  21404833.142     3022906.90249   2357048.53347  21404834.391    21404847.441
       237.000         207.000
  24471779.826     6967804.68749   5417842.92745  24471781.555    24471796.750
       211.000         157.000
  23174566.337     8271335.22749   6435366.12246  23174566.576    23174582.134
       216.000         168.000
  20947502.493    -6740135.06749  -5241184.35147  20947503.328    20947516.236
       232.000         204.000
  24535456.280    -6467985.40249  -5028566.34545  24535457.164    24535475.642
       200.000         141.000
  24113896.112    -3910495.11749  -2606226.63445  24113897.225    24113912.980
       205.000         147.000
  22022247.314     3332259.58649   2597291.11147  22022247.324    22022260.744
       230.000         198.000
  24955262.435    -3149559.44749  -2442454.19945  24955263.296    24955277.825
       204.000         140.000
 98  6 15 20  2 45.0000000  0  9G17G30G24G 5G 6G23G26G10G13
  22229912.835    -7864984.22749  -6109425.88947  22229913.475    22229928.100
       228.000         197.000
  21410529.159     3052839.99249   2380373.00547  21410530.379    21410543.361
       238.000         206.000
  24478265.614     7001883.76749   5444398.03845  24478266.355    24478282.323
       211.000         159.000
  23183637.279     8319001.27649   6472508.44846  23183637.848    23183652.542
       215.000         168.000
  20942695.541    -6765396.84449  -5260868.85147  20942696.030    20942708.956
       232.000         204.000
  24524795.156    -6524012.62549  -5072223.79945  24524795.552    24524813.247
       203.000         142.000
  24105586.569    -3954158.20549  -2640249.71945  24105588.537    24105603.693
       204.000         148.000
  22028126.272     3363153.33349   2621364.14847  22028126.451    22028139.805
       230.000         198.000
  24954593.164    -3153078.33949  -2445196.14145  24954593.693    24954607.274
       204.000         138.000
 98  6 15 20  3  0.0000000  0  9G17G30G24G 5G 6G23G26G10G13
  22224312.330    -7894418.29449  -6132361.50647  22224312.793    22224326.872
       229.000         197.000
  21416247.520     3082888.80449   2403787.64947  21416248.497    21416261.305
       237.000         206.000
  24484749.023     7035953.56949   5470945.90245  24484749.483    24484766.062
       212.000         160.000
  23192716.128     8366712.56949   6509686.04246  23192716.720    23192731.786
       215.000         168.000
  20937899.724    -6790598.18049  -5280506.25147  20937900.829    20937913.602
       232.000         204.000
  24514139.514    -6580007.49149  -5115856.03145  24514140.211    24514157.798
       204.000         142.000
  24097281.196    -3997810.35049  -2674264.26745  24097281.023    24097297.195
       205.000         150.000
  22034024.203     3394147.41849   2645515.37547  22034024.557    22034037.307
       230.000         198.000
  24953944.217    -3156482.63449  -2447848.80845  24953945.187    24953959.459
       206.000         138.000
 98  6 15 20  3 15.0000000  0  9G17G30G24G 5G 6G23G26G10G13
  22218721.527    -7923796.48849  -6155253.58947  22218721.820    22218736.588
       229.000         197.000
  21421989.202     3113061.67149   2427298.96247  21421990.331    21422003.046
       237.000         206.000
  24491231.413     7070017.57849   5497489.24145  24491231.711    24491247.632
       211.000         160.000
  23201804.483     8414474.65349   6546903.20246  23201805.804    23201820.484
       215.000         168.000
  20933115.998    -6815736.47449  -5300094.52947  20933117.039    20933129.941
       231.000         204.000
  24503492.167    -6635964.48949  -5159458.78645  24503491.667    24503509.860
       203.000         141.000
  24088975.646    -4041443.19849  -2708263.78645  24088978.036    24088994.224
       204.000         150.000
  22039942.109     3425246.46349   2669748.39147  22039942.445    22039955.543
       231.000         198.000
  24953319.865    -3159765.19549  -2450406.61445  24953320.285    24953334.692
       205.000         138.000
 98  6 15 20  3 30.0000000  0  9G17G30G24G 5G 6G23G26G10G13
  22213142.044    -7953117.01249  -6178100.73447  22213142.511    22213156.931
       228.000         197.000
  21427755.039     3143362.97549   2450910.35347  21427756.213    21427769.230
       237.000         206.000
  24497712.036     7104079.38249   5524030.87245  24497713.019    24497727.915
       211.000         160.000
  23210904.015     8462291.26049   6584162.85846  23210904.251    23210920.135
       215.000         168.000
  20928344.374    -6840810.58949  -5319632.79347  20928345.315    20928358.281
       231.000         204.000
  24492852.102    -6691878.33149  -5203027.89245  24492851.846    24492868.707
       204.000         144.000
  24080678.447    -4085048.74849  -2742242.04045  24080679.029    24080696.626
       207.000         151.000
  22045880.150     3456449.89949   2694062.74247  22045880.202    22045893.283
       230.000         198.000
  24952719.432    -3162920.41349  -2452865.20345  24952720.685    24952735.061
       206.000         137.000
 98  6 15 20  3 45.0000000  0  9G17G30G24G 5G 6G23G26G10G13
  22207570.484    -7982396.18249  -6200915.65247  22207570.916    22207585.287
       229.000         197.000
  21433542.377     3173776.26749   2474609.01047  21433543.644    21433556.539
       237.000         206.000
  24504191.163     7138125.58349   5550560.35145  24504191.669    24504207.834
       210.000         162.000
  23220010.440     8510149.33549   6621454.82146  23220011.429    23220027.236
       215.000         168.000
  20923583.179    -6865834.80649  -5339132.17747  20923583.677    20923596.662
       232.000         204.000
  24482216.343    -6747766.19249  -5246576.74845  24482215.926    24482234.899
       205.000         142.000
  24072384.261    -4128634.03949  -2776204.50545  24072385.644    24072402.158
       204.000         152.000
  22051835.387     3487745.36149   2718448.80847  22051835.203    22051849.025
       230.000         198.000
  24952142.035    -3165957.12749  -2455231.46245  24952142.464    24952156.470
       207.000         138.000
 98  6 15 20  4  0.0000000  0  9G17G30G24G 5G 6G23G26G10G13
  22202007.827    -8011629.38149  -6223694.75547  22202007.878    22202022.382
       228.000         197.000
  21439351.761     3204304.44849   2498397.19147  21439353.299    21439366.219
       237.000         206.000
  24510668.231     7172159.98249   5577080.61346  24510668.848    24510685.299
       209.000         163.000
  23229127.118     8558052.56849   6658781.97946  23229127.724    23229143.218
       216.000         168.000
  20918831.374    -6890804.14849  -5358588.80547  20918832.201    20918844.887
       232.000         204.000
  24471585.293    -6803627.36749  -5290104.82145  24471586.288    24471603.821
       204.000         145.000
  24064095.919    -4172191.84049  -2810145.53945  24064097.625    24064113.589
       203.000         153.000
  22057809.105     3519138.38049   2742910.88947  22057809.395    22057822.799
       230.000         198.000
  24951587.967    -3168871.42749  -2457502.34045  24951588.523    24951600.884
       207.000         138.000
 98  6 15 20  4 15.0000000  0  9G17G30G24G 5G 6G23G26G10G13
  22196453.087    -8040818.67949  -6246439.64347  22196453.373    22196467.596
       228.000         198.000
  21445182.079     3234944.77349   2522272.76047  21445183.959    21445196.627
       237.000         205.000
  24517141.296     7206177.72249   5603587.90246  24517142.395    24517158.072
       209.000         163.000
  23238250.047     8605993.74149   6696138.69846  23238251.148    23238265.584
       215.000         167.000
  20914089.990    -6915719.96749  -5378003.72447  20914090.727    20914103.861
       232.000         204.000
  24460959.622    -6859468.10649  -5333616.96045  24460959.998    24460977.241
       205.000         148.000
  24055810.594    -4215727.45849  -2844069.31245  24055812.527    24055829.070
       206.000         154.000
  22063800.510     3550624.80649   2767445.75547  22063801.211    22063814.465
       230.000         197.000
  24951055.129    -3171669.70449  -2459682.77745  24951056.613    24951069.137
       208.000         138.000
 98  6 15 20  4 30.0000000  0  9G17G30G24G 5G 6G23G26G10G13
  22190910.454    -8069946.66949  -6269136.75947  22190910.988    22190924.767
       229.000         197.000
  21451036.291     3265706.75849   2546243.12547  21451037.822    21451050.555
       237.000         205.000
  24523614.413     7240189.74249   5630090.72446  24523614.466    24523630.846
       209.000         163.000
  23247381.866     8653982.25349   6733532.29946  23247381.968    23247398.332
       215.000         168.000
  20909361.365    -6940568.67049  -5397366.34247  20909362.321    20909375.121
       231.000         204.000
  24450339.863    -6915275.38449  -5377103.04645  24450340.126    24450357.399
       208.000         149.000
  24047533.580    -4259229.66449  -2877967.03545  24047534.215    24047550.961
       205.000         154.000
  22069812.895     3582217.61449   2792063.51947  22069813.019    22069826.742
       230.000         197.000
  24950546.196    -3174338.96549  -2461762.67645  24950547.747    24950561.028
       207.000         138.000
 98  6 15 20  4 45.0000000  0  9G17G30G24G 5G 6G23G26G10G13
  22185375.997    -8099029.28649  -6291798.51847  22185376.291    22185390.411
       229.000         198.000
  21456909.976     3296572.33849   2570294.21447  21456911.280    21456923.818
       237.000         205.000
  24530081.303     7274178.23449   5656575.20045  24530081.939    24530098.547
       206.000         160.000
  23256519.360     8701999.21149   6770948.07046  23256519.651    23256535.140
       215.000         167.000
  20904642.022    -6965370.04249  -5416692.08347  20904642.787    20904655.518
       232.000         204.000
  24439723.771    -6971063.51049  -5420574.20645  24439723.035    24439741.283
       208.000         151.000
  24039259.464    -4302712.61349  -2911849.75945  24039260.024    24039275.726
       205.000         155.000
  22075842.549     3613902.66649   2816753.15447  22075842.353    22075855.554
       230.000         197.000
  24950059.892    -3176897.56149  -2463756.35245  24950061.285    24950073.913
       206.000         138.000
 98  6 15 20  5  0.0000000  0  9G17G30G24G 5G 6G23G26G10G13
  22179850.832    -8128064.88649  -6314423.64147  22179850.833    22179865.498
       229.000         198.000
  21462803.722     3327542.36649   2594426.69347  21462804.781    21462817.396
       237.000         204.000
  24536545.736     7308146.51649   5683043.94345  24536546.161    24536561.508
       206.000         156.000
  23265662.208     8750045.14149   6808386.40646  23265662.416    23265678.055
       214.000         166.000
  20899931.603    -6990122.37049  -5435979.60247  20899932.569    20899945.345
       232.000         203.000
  24429110.421    -7026830.13049  -5464028.61145  24429111.665    24429129.433
       207.000         152.000
  24030986.607    -4346174.25749  -2945715.89145  24030989.245    24031005.650
       203.000         154.000
  22081890.810     3645686.01749   2841519.39547  22081890.795    22081904.036
       230.000         197.000
  24949594.809    -3179343.26649  -2465662.06145  24949595.913    24949609.425
       209.000         139.000
 98  6 15 20  5 15.0000000  0  9G17G30G24G 5G 6G23G26G10G13
  22174334.825    -8157049.70149  -6337009.19647  22174335.266    22174349.633
       229.000         198.000
  21468717.504     3358619.69849   2618642.78247  21468718.397    21468731.296
       237.000         204.000
  24543006.177     7342097.12749   5709498.92445  24543006.850    24543022.920
       209.000         157.000
  23274810.491     8798121.07949   6845848.13446  23274811.330    23274826.462
       215.000         166.000
  20895231.992    -7014819.43949  -5455224.06447  20895232.764    20895245.533
       232.000         203.000
  24418503.005    -7082576.27149  -5507467.05845  24418503.675    24418521.149
       209.000         154.000
  24022721.264    -4389612.38349  -2979563.69045  24022723.045    24022739.185
       204.000         154.000
  22087958.420     3677572.41849   2866365.92747  22087958.169    22087972.117
       230.000         197.000
  24949151.522    -3181670.56349  -2467475.49945  24949151.507    24949168.527
       207.000         139.000
 98  6 15 20  5 30.0000000  0  9G17G30G24G 5G 6G23G26G10G13
  22168830.195    -8185976.48149  -6359549.53047  22168830.207    22168845.165
       229.000         197.000
  21474652.982     3389811.60249   2642948.15347  21474654.127    21474666.906
       236.000         204.000
  24549464.678     7376037.15749   5735945.67545  24549465.868    24549480.996
       209.000         157.000
  23283966.765     8846233.34449   6883338.15646  23283966.334    23283981.426
       214.000         165.000
  20890544.215    -7039453.25949  -5474419.24547  20890545.079    20890557.920
       232.000         204.000
  24407899.109    -7138297.26549  -5550885.92245  24407900.395    24407917.397
       210.000         155.000
  24014461.224    -4433020.73549  -3013388.29845  24014462.513    24014478.529
       203.000         154.000
  22094046.412     3709565.13049   2891295.30147  22094046.265    22094059.922
       230.000         197.000
  24948731.477    -3183875.00049  -2469193.20545  24948731.914    24948747.577
       206.000         141.000
 98  6 15 20  5 45.0000000  0  9G17G30G24G 5G 6G23G26G10G13
  22163334.283    -8214858.49849  -6382054.97447  22163334.567    22163349.027
       229.000         198.000
  21480606.921     3421101.26449   2667329.70047  21480608.299    21480621.008
       236.000         204.000
  24555918.976     7409955.01549   5762375.14745  24555920.084    24555936.120
       211.000         160.000
  23293125.072     8894368.90849   6920846.34946  23293125.683    23293141.609
       213.000         165.000
  20885866.981    -7064033.97049  -5493573.03647  20885867.515    20885880.477
       231.000         204.000
  24397297.861    -7194008.16549  -5594296.92145  24397298.748    24397316.292
       209.000         156.000
  24006204.342    -4476416.05249  -3047202.73545  24006204.525    24006220.832
       202.000         153.000
  22100151.799     3741649.08049   2916295.77547  22100151.944    22100165.785
       230.000         197.000
  24948332.827    -3185969.35849  -2470825.16645  24948334.707    24948348.921
       206.000         142.000
 98  6 15 20  6  0.0000000  0  9G17G30G24G 5G 6G23G26G10G13
  22157851.696    -8243671.33749  -6404506.52347  22157851.725    22157866.279
       229.000         198.000
  21486583.979     3452510.22849   2691804.20447  21486585.454    21486598.259
       236.000         204.000
  24562373.493     7443870.28749   5788802.58845  24562373.459    24562390.080
       210.000         158.000
  23302293.984     8942550.37749   6958390.30146  23302294.678    23302310.672
       213.000         164.000
  20881204.005    -7088537.04649  -5512666.34047  20881204.791    20881217.604
       231.000         203.000
  24386701.831    -7249688.92449  -5637684.42245  24386703.070    24386720.304
       210.000         156.000
  23997951.150    -4519779.73549  -3080992.51645  23997952.735    23997968.976
       202.000         152.000
  22106279.257     3773849.19349   2941386.75147  22106279.466    22106293.171
       230.000         197.000
  24947959.814    -3187934.19549  -2472356.19645  24947960.301    24947975.212
       208.000         144.000
 98  6 15 20  6 15.0000000  0  9G17G30G24G 5G 6G23G26G10G13
  22152380.563    -8272421.21649  -6426909.00847  22152380.709    22152395.046
       229.000         198.000
  21492582.176     3484029.78649   2716364.88747  21492583.152    21492595.905
       236.000         204.000
  24568824.668     7477773.03949   5815220.28145  24568825.576    24568841.063
       210.000         157.000
  23311471.048     8990769.06249   6995963.25646  23311470.661    23311485.796
       214.000         165.000
  20876554.784    -7112968.65249  -5531703.95047  20876555.332    20876568.286
       231.000         203.000
  24376110.895    -7305344.87949  -5681052.62145  24376111.615    24376129.426
       208.000         156.000
  23989704.804    -4563123.79449  -3114767.02445  23989704.949    23989721.294
       203.000         153.000
  22112427.302     3806156.78749   2966561.48947  22112427.283    22112441.058
       229.000         198.000
  24947609.133    -3189780.35249  -2473794.74345  24947609.088    24947623.536
       210.000         146.000
 98  6 15 20  6 30.0000000  0  9G17G30G24G 5G 6G23G26G10G13
  22146922.814    -8301101.97249  -6449257.63047  22146923.180    22146937.454
       230.000         198.000
  21498602.406     3515666.51049   2741016.86447  21498603.466    21498616.341
       236.000         204.000
  24575274.689     7511669.71749   5841633.24845  24575275.644    24575291.488
       210.000         157.000
  23320655.020     9039033.38149   7033571.76146  23320655.284    23320670.254
       212.000         164.000
  20871920.631    -7137322.29949  -5550680.81247  20871921.252    20871933.892
       231.000         203.000
  24365526.832    -7360968.52349  -5724395.62945  24365526.715    24365544.190
       208.000         156.000
  23981460.850    -4606442.02249  -3148521.39545  23981460.577    23981478.107
       201.000         151.000
  22118595.999     3838576.99549   2991823.97747  22118596.650    22118610.755
       229.000         198.000
  24947281.829    -3191498.82249  -2475133.78945  24947282.765    24947296.548
       210.000         147.000
 98  6 15 20  6 45.0000000  0  9G17G30G24G 5G 6G23G26G10G13
  22141475.182    -8329727.28449  -6471563.04647  22141475.923    22141490.077
       229.000         198.000
  21504642.524     3547408.63249   2765750.97747  21504643.441    21504656.841
       235.000         204.000
  24581721.130     7545548.85849   5868032.55445  24581722.865    24581737.648
       210.000         156.000
  23329846.120     9087332.26149   7071207.20846  23329846.245    23329862.480
       213.000         164.000
  20867298.261    -7161612.22949  -5569608.02347  20867298.827    20867311.837
       231.000         203.000
  24354945.309    -7416570.42249  -5767721.70245  24354945.790    24354963.147
       207.000         155.000
  23973220.041    -4649744.39749  -3182263.40645  23973220.446    23973236.867
       201.000         152.000
  22124784.805     3871098.71049   3017165.56147  22124785.149    22124798.950
       228.000         198.000
  24946975.909    -3193100.95749  -2476382.18945  24946977.414    24946991.126
       208.000         146.000
 98  6 15 20  7  0.0000000  0  9G17G30G24G 5G 6G23G26G10G13
  22136037.672    -8358303.96549  -6493830.57047  22136037.770    22136052.096
       229.000         198.000
  21510701.740     3579250.52949   2790562.83047  21510702.879    21510716.237
       236.000         204.000
  24588164.108     7579405.25749   5894414.13345  24588164.766    24588181.872
       208.000         157.000
  23339042.078     9135657.65349   7108863.30946  23339042.335    23339057.937
       212.000         163.000
  20862687.565    -7185841.85149  -5588488.23947  20862688.166    20862700.976
       231.000         203.000
  24344366.604    -7472157.26549  -5811036.03145  24344367.549    24344385.321
       205.000         155.000
  23964980.555    -4693035.50349  -3215996.64345  23964982.581    23964999.481
       197.000         151.000
  22130991.250     3903713.84249   3042579.93747  22130991.682    22131005.663
       228.000         198.000
  24946691.553    -3194593.43849  -2477545.13445  24946692.565    24946707.297
       207.000         142.000
 98  6 15 20  7 15.0000000  0  9G17G30G24G 5G 6G23G26G10G13
  22130611.113    -8386821.77249  -6516052.22347  22130611.085    22130625.482
       229.000         199.000
  21516781.936     3611201.87549   2815459.96847  21516783.036    21516796.385
       235.000         203.000
  24594604.912     7613248.98949   5920785.82645  24594605.306    24594621.564
       207.000         153.000
  23348244.672     9184016.22149   7146545.26346  23348244.410    23348260.467
       212.000         163.000
  20858090.493    -7209997.91449  -5607311.14447  20858091.340    20858104.347
       231.000         203.000
  24333793.335    -7527721.66049  -5854332.88245  24333794.426    24333811.675
       204.000         154.000
  23956748.423    -4736306.08349  -3249713.88145  23956748.507    23956765.202
       202.000         151.000
  22137216.850     3936426.98949   3068070.68747  22137216.664    22137230.500
       229.000         197.000
  24946430.598    -3195966.08749  -2478614.71145  24946431.702    24946445.907
       206.000         141.000
 98  6 15 20  7 30.0000000  0  9G17G30G24G 5G 6G23G26G10G13
  22125195.533    -8415277.66449  -6538225.62547  22125196.192    22125210.430
       230.000         199.000
  21522883.272     3643265.23449   2840444.38847  21522884.383    21522897.843
       235.000         204.000
  24601044.108     7647083.45149   5947150.30445  24601044.728    24601060.842
       208.000         153.000
  23357453.478     9232410.33449   7184254.90946  23357453.449    23357468.802
       212.000         163.000
  20853508.774    -7234075.44449  -5626072.85047  20853509.700    20853522.036
       231.000         202.000
  24323224.975    -7583256.05649  -5897606.34345  24323226.344    24323244.004
       204.000         152.000
  23948518.452    -4779549.31249  -3283409.81745  23948520.314    23948536.257
       199.000         151.000
  22143461.176     3969240.91649   3093639.96647  22143460.844    22143475.085
       228.000         198.000
  24946192.809    -3197215.34949  -2479588.15145  24946193.153    24946208.437
       206.000         139.000
 98  6 15 20  7 45.0000000  0  9G17G30G24G 5G 6G23G26G10G13
  22119791.646    -8443677.64249  -6560355.45947  22119791.537    22119806.201
       230.000         199.000
  21529004.273     3675430.52849   2865508.23747  21529005.507    21529018.852
       235.000         203.000
  24607479.463     7680900.26049   5973501.00645  24607478.372    24607494.809
       203.000         148.000
  23366668.252     9280831.70449   7221985.80146  23366668.177    23366683.495
       214.000         163.000
  20848940.680    -7258082.44849  -5644779.60047  20848941.296    20848954.099
       231.000         203.000
  24312664.282    -7638761.12749  -5940856.96245  24312664.035    24312681.614
       204.000         151.000
  23940294.330    -4822772.31449  -3317089.99345  23940294.383    23940310.705
       200.000         150.000
  22149723.375     4002150.25849   3119283.59547  22149723.203    22149737.352
       229.000         197.000
  24945977.678    -3198347.66749  -2480470.44745  24945978.533    24945990.984
       207.000         139.000
 98  6 15 20  8  0.0000000  0  9G17G30G24G 5G 6G23G26G10G13
  22114398.683    -8472017.22149  -6582438.22247  22114399.049    22114413.230
       231.000         200.000
  21535145.238     3707700.63649   2890653.76147  21535146.318    21535159.701
       235.000         204.000
  24613910.229     7714702.51849   5999840.38845  24613911.243    24613926.697
       201.000         146.000
  23375887.359     9329281.98849   7259739.21546  23375887.511    23375903.380
       212.000         163.000
  20844386.147    -7282014.34649  -5663427.82447  20844386.985    20844400.017
       231.000         203.000
  24302108.887    -7694229.80249  -5984079.20945  24302108.651    24302125.859
       203.000         151.000
  23932072.729    -4865968.24849  -3350749.08145  23932074.512    23932090.889
       200.000         149.000
  22156005.383     4035163.32149   3145008.04947  22156005.754    22156019.749
       228.000         198.000
  24945784.973    -3199356.55649  -2481256.57345  24945787.137    24945800.722
       206.000         140.000
 98  6 15 20  8 15.0000000  0  9G17G30G24G 5G 6G23G26G10G13
  22109017.739    -8500296.26649  -6604473.82247  22109017.927    22109031.657
       231.000         199.000
  21541306.227     3740076.22849   2915881.47947  21541307.323    21541320.369
       235.000         204.000
  24620339.573     7748489.37649   6026167.76445  24620340.979    24620357.588
       203.000         147.000
  23385112.518     9377759.24849   7297513.65646  23385112.693    23385127.767
       212.000         163.000
  20839846.707    -7305870.23249  -5682016.81747  20839847.466    20839860.268
       231.000         202.000
  24291560.764    -7749657.40749  -6027269.46545  24291561.286    24291578.363
       204.000         151.000
  23923859.069    -4909134.69949  -3384385.18945  23923860.329    23923876.305
       202.000         150.000
  22162307.544     4068279.73549   3170813.03147  22162307.475    22162321.753
       229.000         197.000
  24945615.956    -3200243.11849  -2481947.37945  24945618.158    24945631.258
       206.000         140.000
 98  6 15 20  8 30.0000000  0  9G17G30G24G 5G 6G23G26G10G13
  22103647.562    -8528515.29149  -6626462.65247  22103647.883    22103661.688
       231.000         199.000
  21547487.299     3772559.48649   2941193.09247  21547488.560    21547501.847
       235.000         204.000
  24626768.123     7782264.62349   6052486.09145  24626768.161    24626783.480
       203.000         147.000
  23394342.016     9426260.10749   7335306.47846  23394342.365    23394357.858
       212.000         163.000
  20835321.366    -7329650.75249  -5700547.08747  20835322.223    20835335.025
       230.000         202.000
  24281021.278    -7805042.86949  -6070426.87945  24281021.741    24281038.758
       204.000         150.000
  23915650.595    -4952269.07849  -3417996.30545  23915652.666    23915667.877
       202.000         149.000
  22168628.101     4101495.43449   3196695.38447  22168628.367    22168642.549
       227.000         197.000
  24945472.999    -3201004.03849  -2482540.27345  24945474.538    24945486.520
       209.000         143.000
 98  6 15 20  8 45.0000000  0  9G17G30G24G 5G 6G23G26G10G13
  22098287.304    -8556683.93649  -6648412.23447  22098287.328    22098301.475
       230.000         199.000
  21553688.486     3805145.44049   2966584.72947  21553689.566    21553703.037
       236.000         204.000
  24633190.811     7816022.28849   6078790.72145  24633191.648    24633208.389
       202.000         150.000
  23403574.838     9474777.64849   7373112.29846  23403575.113    23403590.457
       211.000         163.000
  20830808.978    -7353362.76049  -5719023.97447  20830809.925    20830822.546
       230.000         202.000
  24270488.268    -7860392.38549  -6113556.28845  24270489.211    24270506.028
       204.000         151.000
  23907447.825    -4995374.35949  -3451584.74845  23907449.405    23907465.269
       203.000         149.000
  22174966.554     4134804.18149   3222650.23847  22174966.330    22174980.698
       228.000         197.000
  24945349.234    -3201646.23849  -2483040.68745  24945351.270    24945365.924
       208.000         145.000
 98  6 15 20  9  0.0000000  0  9G17G30G24G 5G 6G23G26G10G13
  22092936.831    -8584800.99849  -6670321.61247  22092936.925    22092951.043
       231.000         199.000
  21559908.811     3837833.96349   2992056.28547  21559910.060    21559923.192
       236.000         205.000
  24639612.534     7849765.18449   6105083.80845  24639612.719    24639629.924
       205.000         151.000
  23412810.819     9523312.07949   7410931.28345  23412810.593    23412826.205
       213.000         162.000
  20826310.765    -7377003.03849  -5737444.96547  20826311.218    20826324.317
       230.000         202.000
  24259962.889    -7915702.66349  -6156655.13045  24259963.958    24259980.771
       207.000         151.000
  23899252.196    -5038445.15249  -3485146.32845  23899253.146    23899269.683
       202.000         149.000
  22181323.587     4168210.16749   3248680.86047  22181323.676    22181337.592
       228.000         197.000
  24945250.524    -3202169.30649  -2483448.25745  24945251.353    24945265.945
       208.000         146.000
 98  6 15 20  9 15.0000000  0  9G17G30G24G 5G 6G23G26G10G13
  22087597.123    -8612861.63649  -6692187.02947  22087597.462    22087611.521
       230.000         199.000
  21566149.787     3870629.68549   3017611.38047  21566150.700    21566163.956
       236.000         205.000
  24646032.656     7883500.64849   6131371.14245  24646032.978    24646048.736
       207.000         150.000
  23422050.443     9571869.76149   7448768.39446  23422051.259    23422066.638
       211.000         163.000
  20821826.890    -7400565.17249  -5755805.06147  20821827.505    20821840.567
       230.000         202.000
  24249447.234    -7970967.70949  -6199718.72145  24249447.462    24249464.143
       207.000         151.000
  23891063.131    -5081476.94049  -3518677.52145  23891064.279    23891080.186
       203.000         149.000
  22187699.845     4201717.32049   3274790.31947  22187699.973    22187714.022
       228.000         197.000
  24945173.935    -3202567.82749  -2483758.79345  24945175.418    24945189.772
       207.000         145.000
 98  6 15 20  9 30.0000000  0  9G17G30G24G 5G 6G23G26G10G13
  22082267.761    -8640867.68149  -6714009.90547  22082267.709    22082281.866
       230.000         199.000
  21572410.542     3903531.68549   3043249.28247  21572411.681    21572425.014
       236.000         205.000
  24652449.361     7917225.04249   6157649.84445  24652450.055    24652466.670
       205.000         150.000
  23431295.551     9620450.66549   7486623.59045  23431295.586    23431311.106
       212.000         162.000
  20817357.036    -7424052.97849  -5774107.23947  20817357.993    20817370.952
       230.000         202.000
  24238939.018    -8026187.90149  -6242747.36445  24238939.633    24238955.318
       209.000         150.000
  23882880.674    -5124470.83749  -3552179.19045  23882882.969    23882898.639
       201.000         149.000
  22194095.045     4235324.67149   3300977.85147  22194095.181    22194108.970
       228.000         197.000
  24945121.560    -3202841.42149  -2483971.97645  24945123.415    24945137.510
       206.000         145.000
 98  6 15 20  9 45.0000000  0  9G17G30G24G 5G 6G23G26G10G13
  22076947.396    -8668825.59949  -6735795.27247  22076947.398    22076961.558
       231.000         199.000
  21578690.381     3936531.16949   3068963.15447  21578691.540    21578704.604
       235.000         205.000
  24658862.231     7950928.19849   6183911.98145  24658863.814    24658879.029
       208.000         147.000
  23440543.041     9669050.33949   7524493.41645  23440543.640    23440559.621
       212.000         162.000
  20812899.940    -7447475.57049  -5792358.60547  20812900.776    20812913.611
       230.000         202.000
  24228437.445    -8081369.77449  -6285746.15245  24228438.803    24228455.041
       209.000         151.000
  23874705.121    -5167435.01349  -3585657.69545  23874706.635    23874722.742
       202.000         149.000
  22200508.287     4269024.80849   3327237.68647  22200508.111    22200522.073
       228.000         197.000
  24945092.826    -3202996.44349  -2484092.74245  24945093.791    24945107.979
       207.000         143.000
 98  6 15 20 10  0.0000000  0  9G17G30G24G 5G 6G23G26G10G13
  22071638.229    -8696724.91849  -6757534.98047  22071638.373    22071652.266
       231.000         200.000
  21584990.841     3969639.65049   3094761.95447  21584991.827    21585005.141
       236.000         205.000
  24665275.001     7984623.55949   6210168.08545  24665276.871    24665292.345
       206.000         148.000
  23449797.579     9717679.90049   7562386.53045  23449798.097    23449813.084
       211.000         161.000
  20808457.207    -7470823.85749  -5810552.07147  20808457.821    20808470.637
       230.000         202.000
  24217944.950    -8136507.44249  -6328710.49345  24217946.312    24217963.047
       210.000         150.000
  23866538.439    -5210358.94849  -3619104.84045  23866539.210    23866555.083
       203.000         148.000
  22206940.844     4302827.10749   3353577.12547  22206940.780    22206954.515
       229.000         197.000
  24945087.455    -3203023.45049  -2484113.76645  24945087.909    24945102.342
       206.000         140.000
 98  6 15 20 10 15.0000000  0  9G17G30G24G 5G 6G23G26G10G13
  22066339.555    -8724570.26249  -6779232.63347  22066339.726    22066353.817
       231.000         199.000
  21591311.323     4002854.37049   3120643.53747  21591312.606    21591325.994
       237.000         205.000
  24671686.237     8018308.47949   6236416.04445  24671685.753    24671701.827
       209.000         146.000
  23459057.370     9766337.76949   7600301.69845  23459057.509    23459072.417
       211.000         160.000
  20804027.138    -7494101.50749  -5828690.49347  20804027.983    20804040.817
       230.000         202.000
  24207460.212    -8191608.21549  -6371646.08945  24207460.437    24207476.850
       210.000         151.000
  23858375.939    -5253247.43049  -3652524.37145  23858377.156    23858392.775
       204.000         148.000
  22213391.302     4336725.27649   3379991.26847  22213391.171    22213404.910
       229.000         197.000
  24945105.697    -3202928.27249  -2484039.58345  24945107.185    24945120.100
       207.000         142.000
 98  6 15 20 10 30.0000000  0  9G17G30G24G 5G 6G23G26G10G13
  22061051.583    -8752358.10249  -6800885.47747  22061051.996    22061065.719
       230.000         199.000
  21597652.973     4036180.26149   3146611.74747  21597654.246    21597667.522
       237.000         206.000
  24678095.412     8051986.58849   6262658.70545  24678095.865    24678110.825
       210.000         144.000
  23468321.303     9815026.45749   7638240.88645  23468322.563    23468338.702
       208.000         160.000
  20799610.934    -7517309.48349  -5846774.62247  20799611.534    20799624.630
       229.000         202.000
  24196981.670    -8246673.08549  -6414553.70945  24196981.767    24196998.750
       210.000         152.000
  23850222.365    -5296099.71049  -3685915.69145  23850222.811    23850238.041
       206.000         149.000
  22219860.259     4370719.64449   3406480.36947  22219860.459    22219873.643
       229.000         197.000
  24945147.142    -3202709.86549  -2483869.38245  24945148.266    24945161.945
       207.000         142.000
 98  6 15 20 10 45.0000000  0  9G17G30G24G 5G 6G23G26G10G13
  22055774.788    -8780087.76849  -6822492.98747  22055774.548    22055789.084
       230.000         199.000
  21604016.055     4069618.44449   3172667.45947  21604017.165    21604030.470
       237.000         206.000
  24684502.423     8085658.17949   6288896.29145  24684502.741    24684519.535
       208.000         141.000
  23477594.184     9863750.41649   7676207.55445  23477594.328    23477610.060
       209.000         159.000
  20795207.650    -7540448.03549  -5864804.65747  20795208.588    20795221.760
       230.000         202.000
  24186510.092    -8301702.78049  -6457433.90545  24186510.917    24186527.418
       210.000         152.000
  23842073.695    -5338915.54449  -3719278.61245  23842075.068    23842090.863
       205.000         150.000
  22226348.117     4404813.91549   3433047.32247  22226348.138    22226361.973
       229.000         196.000
  24945212.768    -3202366.95249  -2483602.16645  24945214.242    24945226.762
       207.000         142.000
 98  6 15 20 11  0.0000000  0  9G17G30G24G 5G 6G23G26G10G13
  22050506.140    -8807773.02949  -6844065.90147  22050506.240    22050520.545
       231.000         199.000
  21610396.883     4103149.58449   3198795.60547  21610397.945    21610411.414
       237.000         206.000
  24690904.185     8119306.88649   6315116.03145  24690904.699    24690920.195
       206.000         137.000
  23486870.070     9912495.72949   7714190.86245  23486869.821    23486885.907
       211.000         159.000
  20790814.735    -7563532.95549  -5882792.89847  20790815.607    20790828.549
       229.000         202.000
  24176042.688    -8356711.58049  -6500297.81945  24176042.463    24176059.162
       212.000         154.000
  23833930.990    -5381711.43649  -3752625.99445  23833931.647    23833946.934
       205.000         149.000
  22232852.038     4438992.09149   3459679.65647  22232852.020    22232865.631
       229.000         196.000
  24945299.011    -3201916.62549  -2483251.23545  24945299.576    24945314.559
       210.000         146.000
 98  6 15 20 11 15.0000000  0  9G17G30G24G 5G 6G23G26G10G13
  22045250.214    -8835394.57749  -6865589.16547  22045250.390    22045264.340
       230.000         199.000
  21616798.440     4136789.04549   3225008.15747  21616799.373    21616812.771
       237.000         206.000
  24697306.211     8152949.57249   6341331.13845  24697309.153    24697324.685
       207.000         140.000
  23496153.283     9961278.70049   7752203.50445  23496153.339    23496168.290
       211.000         158.000
  20786435.017    -7586548.43849  -5900727.03647  20786435.836    20786448.968
       229.000         202.000
  24165581.148    -8411683.99049  -6543133.38845  24165581.107    24165598.029
       212.000         155.000
  23825793.306    -5424474.27649  -3785947.63345  23825793.830    23825809.740
       207.000         150.000
  22239373.724     4473266.18949   3486386.72847  22239373.747    22239387.607
       228.000         196.000
  24945407.410    -3201341.78949  -2482803.29045  24945408.776    24945422.717
       208.000         146.000
 98  6 15 20 11 30.0000000  0  9G17G30G24G 5G 6G23G26G10G13
  22040005.396    -8862955.88249  -6887065.48547  22040005.517    22040019.120
       231.000         199.000
  21623219.948     4170535.50949   3251304.08947  21623221.097    21623234.418
       236.000         205.000
  24703706.279     8186580.75249   6367537.20645  24703706.701    24703725.257
       202.000         143.000
  23505442.872    10010096.16449   7790243.03645  23505443.339    23505459.080
       210.000         158.000
  20782067.817    -7609498.94949  -5918610.54347  20782068.596    20782081.608
       229.000         202.000
  24155126.163    -8466624.51049  -6585944.09745  24155125.935    24155142.852
       212.000         155.000
  23817660.971    -5467208.41649  -3819246.90345  23817662.478    23817677.461
       208.000         150.000
  22245913.320     4507631.27449   3513164.70547  22245913.651    22245927.277
       228.000         196.000
  24945539.950    -3200645.07149  -2482260.37545  24945541.816    24945555.769
       208.000         146.000
 98  6 15 20 11 45.0000000  0  9G17G30G24G 5G 6G23G26G10G13
  22034772.931    -8890451.85149  -6908490.90447  22034773.217    22034787.155
       231.000         199.000
  21629662.428     4204391.48649   3277685.35447  21629663.490    21629676.879
       236.000         205.000
  24710104.630     8220202.65849   6393736.04445  24710105.763    24710121.887
       206.000         145.000
  23514739.793    10058953.78949   7828313.84445  23514740.262    23514756.627
       209.000         158.000
  20777713.740    -7632378.86849  -5936439.05047  20777714.633    20777727.701
       229.000         202.000
  24144677.853    -8521529.33349  -6628726.98945  24144678.037    24144695.213
       210.000         155.000
  23809536.218    -5509907.83249  -3852519.11245  23809536.298    23809551.283
       207.000         151.000
  22252471.572     4542093.09549   3540018.05147  22252471.633    22252484.976
       229.000         195.000
  24945696.609    -3199822.34349  -2481619.27345  24945697.881    24945711.389
       208.000         145.000
 98  6 15 20 12  0.0000000  0  9G17G30G24G 5G 6G23G26G10G13
  22029552.004    -8917888.91549  -6929870.41747  22029552.365    22029566.284
       230.000         199.000
  21636125.023     4238350.71349   3304147.07147  21636125.769    21636139.117
       237.000         205.000
  24716501.221     8253815.15149   6419927.56845  24716502.350    24716519.479
       209.000         149.000
  23524043.622    10107845.56549   7866411.27545  23524043.942    23524060.343
       209.000         158.000
  20773373.319    -7655192.06549  -5954215.56147  20773373.548    20773386.567
       229.000         202.000
  24134235.257    -8576403.49049  -6671485.98345  24134236.111    24134253.365
       209.000         155.000
  23801416.045    -5552577.52949  -3885768.18245  23801416.964    23801432.006
       208.000         150.000
  22259047.032     4576646.91749   3566943.09147  22259047.158    22259060.403
       229.000         196.000
  24945876.756    -3198881.32549  -2480886.01545  24945876.565    24945890.312
       209.000         147.000
 98  6 15 20 12 15.0000000  0  8G17G30G 5G 6G23G26G10G13
  22024341.444    -8945269.15049  -6951205.65047  22024341.988    22024355.577
       230.000         198.000
  21642606.806     4272411.82549   3330688.18747  21642607.572    21642620.613
       237.000         205.000
  23533354.306    10156769.10549   7904533.46545  23533354.173    23533369.935
       210.000         158.000
  20769044.222    -7677938.58049  -5971940.11047  20769045.198    20769057.850
       229.000         202.000
  24123798.276    -8631248.17149  -6714222.01345  24123799.376    24123816.232
       209.000         157.000
  23793301.885    -5595218.41449  -3918994.78045  23793302.513    23793316.988
       207.000         151.000
  22265639.785     4611292.77949   3593939.85447  22265640.025    22265653.377
       229.000         194.000
  24946077.218    -3197823.26849  -2480061.53845  24946078.032    24946091.967
       208.000         147.000
 98  6 15 20 12 30.0000000  0  8G17G30G 5G 6G23G26G10G13
  22019142.068    -8972594.24749  -6972497.91347  22019141.844    22019155.847
       231.000         198.000
  21649107.346     4306574.75749   3357308.64147  21649108.591    21649121.812
       237.000         204.000
  23542669.429    10205723.16049   7942679.41745  23542669.812    23542685.261
       210.000         158.000
  20764728.475    -7700619.18149  -5989613.29947  20764728.886    20764741.994
       229.000         201.000
  24113367.650    -8686061.00949  -6756933.21845  24113368.814    24113385.986
       208.000         156.000
  23785192.438    -5637831.01449  -3952199.34045  23785193.480    23785208.213
       207.000         151.000
  22272249.654     4646028.53149   3621006.65847  22272249.631    22272263.131
       229.000         195.000
  24946300.858    -3196646.94149  -2479144.91645  24946302.213    24946317.131
       208.000         148.000
 98  6 15 20 12 45.0000000  0  8G17G30G 5G 6G23G26G10G13
  22013952.449    -8999866.24049  -6993748.80347  22013952.485    22013966.139
       231.000         198.000
  21655627.771     4340837.83749   3384007.12947  21655628.736    21655641.695
       237.000         204.000
  23551990.633    10254706.51849   7980848.21545  23551991.206    23552007.132
       210.000         158.000
  20760425.085    -7723233.77549  -6007235.05547  20760425.573    20760438.348
       229.000         202.000
  24102943.306    -8740841.05249  -6799618.87845  24102944.094    24102961.829
       207.000         157.000
  23777088.632    -5680412.95149  -3985380.01645  23777089.909    23777105.346
       205.000         151.000
  22278877.145     4680854.21049   3648143.53447  22278876.957    22278890.347
       229.000         194.000
  24946547.490    -3195352.11649  -2478135.98345  24946548.126    24946562.789
       208.000         148.000
 98  6 15 20 13  0.0000000  0  8G17G30G 5G 6G23G26G10G13
  22008771.333    -9027092.88549  -7014964.35247  22008771.211    22008784.777
       231.000         198.000
  21662164.575     4375191.20949   3410775.97947  21662165.643    21662178.896
       236.000         203.000
  23561317.583    10303714.85849   8019036.48245  23561316.588    23561332.970
       209.000         158.000
  20756133.832    -7745782.81149  -6024805.72347  20756134.739    20756147.673
       230.000         201.000
  24092525.349    -8795592.47249  -6842282.22845  24092525.895    24092542.645
       209.000         158.000
  23768991.782    -5722965.84949  -4018538.05745  23768992.466    23769007.575
       209.000         152.000
  22285519.720     4715763.11549   3675345.26247  22285519.649    22285533.446
       228.000         194.000
  24946815.535    -3193943.19049  -2477038.12945  24946817.619    24946831.077
       208.000         148.000
 98  6 15 20 13 15.0000000  0  8G17G30G 5G 6G23G26G10G13
  22003598.513    -9054274.77649  -7036145.02847  22003598.704    22003612.550
       229.000         198.000
  21668718.982     4409634.51049   3437614.90247  21668720.070    21668733.210
       236.000         204.000
  23570647.445    10352744.58649   8057241.40645  23570647.569    23570663.958
       210.000         159.000
  20751855.329    -7768267.38849  -6042326.16947  20751855.955    20751869.073
       229.000         202.000
  24082111.905    -8850316.61849  -6884924.32445  24082111.308    24082128.626
       207.000         157.000
  23760900.299    -5765487.22949  -4051671.54245  23760901.181    23760916.114
       208.000         152.000
  22292178.682     4750752.98649   3702610.08747  22292178.434    22292191.907
       229.000         194.000
  24947105.797    -3192420.23749  -2475851.41345  24947105.527    24947120.463
       209.000         146.000
 98  6 15 20 13 30.0000000  0  7G17G30G 5G 6G23G26G10
  21998437.841    -9081396.20349  -7057278.59547  21998437.756    21998451.634
       230.000         198.000
  21675294.457     4444187.34349   3464539.17247  21675295.441    21675308.655
       236.000         203.000
  23579983.740    10401812.85349   8095476.35245  23579984.270    23580000.899
       210.000         159.000
  20747592.772    -7790668.49449  -6059781.56947  20747593.213    20747606.017
       229.000         202.000
  24071705.600    -8904996.61849  -6927532.02145  24071706.549    24071723.175
       206.000         158.000
  23752817.958    -5807958.97949  -4084766.35645  23752818.928    23752833.989
       207.000         152.000
  22298856.264     4785845.72049   3729955.05947  22298856.116    22298869.509
       228.000         194.000
 98  6 15 20 13 45.0000000  0  7G17G30G 5G 6G23G26G10
  21993285.606    -9108469.39249  -7078374.56847  21993285.837    21993299.550
       230.000         198.000
  21681887.769     4478836.68649   3491538.64747  21681888.857    21681902.210
       236.000         203.000
  23589327.177    10450908.05549   8133732.28945  23589326.965    23589342.836
       210.000         159.000
  20743343.434    -7812996.47949  -6077179.99247  20743344.316    20743357.183
       230.000         202.000
  24061307.702    -8959643.86949  -6970114.19745  24061307.432    24061324.219
       206.000         157.000
  23744744.001    -5850390.45649  -4117829.78645  23744744.671    23744759.062
       206.000         152.000
  22305551.898     4821031.76749   3757372.74747  22305552.115    22305565.197
       229.000         194.000
 98  6 15 20 14  0.0000000  0  7G17G30G 5G 6G23G26G10
  21988142.415    -9135496.31449  -7099434.49347  21988142.326    21988156.356
       230.000         197.000
  21688498.517     4513578.09349   3518609.86147  21688500.019    21688513.439
       235.000         202.000
  23598674.541    10500025.49349   8172005.56145  23598673.964    23598690.156
       210.000         159.000
  20739108.280    -7835252.35149  -6094522.22147  20739108.969    20739122.267
       229.000         202.000
  24050914.246    -9014257.49249  -7012670.17745  24050914.376    24050931.574
       207.000         158.000
  23736676.066    -5892784.01049  -4150863.65745  23736677.216    23736692.030
       205.000         152.000
  22312264.495     4856306.65249   3784859.65847  22312264.528    22312277.800
       228.000         193.000
 98  6 15 20 14 15.0000000  0  7G17G30G 5G 6G23G26G10
  21983009.840    -9162467.49649  -7120450.98347  21983010.427    21983024.274
       230.000         197.000
  21695129.513     4548423.72749   3545762.28747  21695131.001    21695144.054
       235.000         202.000
  23608025.906    10549171.98049   8210301.46845  23608026.458    23608043.159
       209.000         159.000
  20734888.743    -7857427.06249  -6111801.21047  20734889.656    20734902.419
       229.000         202.000
  24040529.874    -9068826.98649  -7055191.76245  24040530.056    24040546.960
       209.000         157.000
  23728617.571    -5935129.72349  -4183860.25645  23728618.540    23728634.295
       204.000         153.000
  22318995.796     4891678.69849   3812422.27447  22318995.095    22319009.236
       229.000         193.000
 98  6 15 20 14 30.0000000  0  7G17G30G 5G 6G23G26G10
  21977889.368    -9189376.24449  -7141418.82547  21977889.363    21977903.882
       230.000         197.000
  21701781.991     4583380.42249   3573001.25647  21701782.915    21701796.041
       235.000         202.000
  23617385.696    10598353.36849   8248624.56045  23617384.768    23617401.408
       209.000         159.000
  20730685.345    -7879514.81649  -6129012.44647  20730686.326    20730699.199
       230.000         202.000
  24030155.904    -9123344.13149  -7097672.57145  24030155.457    24030172.856
       206.000         158.000
  23720569.744    -5977422.16949  -4216815.35545  23720571.138    23720585.811
       203.000         153.000
  22325746.273     4927154.97749   3840066.11347  22325746.072    22325759.809
       227.000         193.000
 98  6 15 20 14 45.0000000  0  7G17G30G 5G 6G23G26G10
  21972778.211    -9216236.00749  -7162348.49547  21972778.202    21972792.770
       230.000         198.000
  21708452.583     4618435.48149   3600316.87047  21708453.744    21708466.936
       235.000         201.000
  23626748.123    10647554.65849   8286963.16545  23626748.012    23626763.590
       209.000         159.000
  20726497.042    -7901526.21749  -6146164.18347  20726497.701    20726510.653
       230.000         202.000
  24019789.243    -9177820.85749  -7140121.87545  24019789.217    24019806.011
       207.000         159.000
  23712530.221    -6019672.91449  -4249737.94445  23712531.627    23712546.318
       206.000         153.000
  22332514.730     4962723.16349   3867781.56647  22332514.550    22332528.655
       227.000         193.000
 98  6 15 20 15  0.0000000  0  7G17G30G 5G 6G23G26G10
  21967677.177    -9243042.08549  -7183236.33647  21967677.208    21967691.272
       230.000         197.000
  21715142.720     4653590.88149   3627710.67247  21715143.878    21715156.663
       235.000         201.000
  23636115.215    10696779.06549   8325319.78045  23636115.138    23636131.448
       209.000         159.000
  20722324.274    -7923454.02749  -6163250.78447  20722324.956    20722338.134
       230.000         203.000
  24009430.600    -9232253.54749  -7182536.86845  24009430.786    24009447.714
       210.000         159.000
  23704498.266    -6061876.68949  -4282623.95545  23704499.220    23704514.762
       202.000         153.000
  22339301.347     4998387.96449   3895572.30147  22339301.351    22339315.331
       227.000         193.000
 98  6 15 20 15 15.0000000  0  7G17G30G 5G 6G23G26G10
  21962584.520    -9269803.35649  -7204089.25847  21962584.775    21962598.776
       230.000         197.000
  21721849.502     4688835.16649   3655173.74547  21721850.227    21721863.626
       235.000         201.000
  23645483.409    10746011.98549   8363683.02745  23645484.028    23645499.968
       208.000         159.000
  20718165.271    -7945310.27349  -6180281.62047  20718166.022    20718178.965
       230.000         203.000
  23999078.640    -9286653.37649  -7224926.25645  23999078.904    23999096.232
       208.000         160.000
  23696474.543    -6104044.16349  -4315481.65645  23696474.560    23696491.470
       203.000         153.000
  22346104.459     5034138.24149   3923429.64347  22346104.546    22346118.460
       228.000         192.000
 98  6 15 20 15 30.0000000  0  7G17G30G 5G 6G23G26G10
  21957504.422    -9296500.54749  -7224892.24747  21957504.364    21957518.443
       230.000         197.000
  21728576.520     4724188.68249   3682721.92347  21728577.859    21728591.315
       235.000         201.000
  23654856.678    10795268.45549   8402064.64045  23654857.066    23654873.542
       209.000         159.000
  20714022.952    -7967077.99549  -6197243.48047  20714023.807    20714036.490
       230.000         203.000
  23988735.557    -9341000.87349  -7267274.86845  23988736.890    23988753.494
       208.000         160.000
  23688460.291    -6146160.83449  -4348299.77845  23688460.567    23688476.185
       199.000         152.000
  22352927.456     5069993.21949   3951368.57647  22352927.462    22352941.594
       227.000         192.000
 98  6 15 20 15 45.0000000  0  7G17G30G 5G 6G23G26G10
  21952435.469    -9323135.08449  -7245646.41947  21952435.888    21952449.985
       229.000         198.000
  21735324.650     4759648.87449   3710353.22547  21735325.689    21735338.932
       235.000         201.000
  23664234.309    10844547.90549   8440464.15145  23664234.418    23664250.989
       209.000         159.000
  20709897.802    -7988756.33749  -6214135.69447  20709898.486    20709911.371
       230.000         203.000
  23978404.823    -9395295.88949  -7309582.58745  23978404.864    23978421.642
       210.000         160.000
  23680454.388    -6188227.38849  -4381078.84545  23680455.067    23680470.995
       202.000         153.000
  22359770.139     5105951.82249   3979388.24347  22359770.395    22359784.210
       227.000         193.000
 98  6 15 20 16  0.0000000  0  7G17G30G 5G 6G23G26G10
  21947374.638    -9349730.95849  -7266370.46047  21947375.048    21947388.960
       229.000         198.000
  21742087.597     4795188.62849   3738046.52947  21742088.945    21742102.075
       235.000         201.000
  23673611.512    10893825.10949   8478861.90945  23673612.056    23673627.821
       208.000         159.000
  20705784.528    -8010370.85149  -6230978.16347  20705785.295    20705798.414
       229.000         203.000
  23968078.294    -9449561.48849  -7351867.38045  23968078.305    23968095.320
       211.000         159.000
  23672453.960    -6230268.55549  -4413838.12545  23672454.605    23672471.228
       201.000         153.000
  22366627.031     5141985.92449   4007466.75147  22366627.544    22366641.207
       226.000         193.000
 98  6 15 20 16 15.0000000  0  7G17G30G 5G 6G23G26G10
  21942322.225    -9376278.76849  -7287057.05147  21942323.310    21942337.102
       229.000         198.000
  21748868.181     4830820.41849   3765811.54147  21748869.253    21748882.408
       234.000         201.000
  23682989.705    10943108.37949   8517264.38945  23682990.279    23683006.970
       209.000         158.000
  20701685.450    -8031910.35349  -6247762.18947  20701686.258    20701699.649
       229.000         203.000
  23957758.963    -9503787.47149  -7394121.31845  23957759.522    23957776.178
       210.000         160.000
  23664460.420    -6272276.23549  -4446571.31845  23664460.615    23664477.619
       199.000         153.000
  22373500.295     5178105.66949   4035611.98747  22373500.754    22373514.736
       226.000         193.000
 98  6 15 20 16 30.0000000  0  7G17G30G 5G 6G23G26G10
  21937281.218    -9402770.18749  -7307699.70047  21937281.878    21937295.820
       229.000         197.000
  21755667.256     4866551.33049   3793653.80047  21755668.532    21755681.929
       234.000         201.000
  23692369.822    10992405.59349   8555677.74245  23692370.971    23692387.016
       208.000         158.000
  20697602.489    -8053367.43849  -6264481.99347  20697603.259    20697616.363
       229.000         203.000
  23947447.417    -9557970.29849  -7436341.61645  23947448.600    23947465.992
       210.000         159.000
  23656474.294    -6314242.82849  -4479272.48445  23656474.645    23656490.893
       201.000         154.000
  22380391.924     5214320.60949   4063831.40047  22380392.538    22380406.550
       226.000         193.000
 98  6 15 20 16 45.0000000  0  7G17G30G 5G 6G23G26G10
  21932254.116    -9429189.80549  -7328286.40347  21932254.358    21932268.173
       229.000         197.000
  21762488.162     4902395.11649   3821584.00947  21762489.470    21762502.897
       234.000         201.000
  23701758.137    11041733.55649   8594115.04045  23701758.167    23701773.663
       209.000         157.000
  20693538.371    -8074723.47549  -6281123.05847  20693539.348    20693552.382
       229.000         203.000
  23937148.382    -9612095.34349  -7478516.90245  23937149.073    23937166.393
       209.000         159.000
  23648497.996    -6356149.37149  -4511926.86945  23648500.489    23648516.780
       201.000         154.000
  22387304.294     5250645.64649   4092136.60947  22387304.851    22387318.830
       226.000         193.000
 98  6 15 20 17  0.0000000  0  7G17G30G 5G 6G23G26G10
  21927237.394    -9455552.39449  -7348828.67047  21927237.810    21927251.812
       229.000         198.000
  21769327.586     4938334.92549   3849589.04347  21769328.528    21769342.206
       235.000         201.000
  23711148.294    11091078.72249   8632565.75245  23711148.255    23711164.271
       208.000         157.000
  20689490.594    -8095994.36749  -6297697.77747  20689491.643    20689504.520
       230.000         203.000
  23926856.869    -9666179.22349  -7520660.10445  23926857.059    23926873.977
       212.000         159.000
  23640534.592    -6398008.32549  -4544544.17345  23640534.772    23640551.170
       203.000         156.000
  22394234.470     5287064.97749   4120515.28847  22394235.115    22394249.271
       225.000         193.000
 98  6 15 20 17 15.0000000  0  7G17G30G 5G 6G23G26G10
  21922229.079    -9481869.32049  -7369335.35347  21922229.898    21922243.850
       229.000         198.000
  21776182.890     4974358.00649   3877658.96247  21776183.777    21776196.899
       235.000         201.000
  23720538.169    11140430.82349   8671021.86945  23720539.628    23720556.212
       207.000         156.000
  20685456.225    -8117196.63449  -6314219.02547  20685457.116    20685469.935
       230.000         203.000
  23916569.732    -9720236.29149  -7562782.42045  23916569.973    23916586.691
       211.000         159.000
  23632574.420    -6439832.22549  -4577134.16145  23632576.241    23632592.162
       204.000         157.000
  22401180.482     5323563.62649   4148955.77347  22401180.213    22401194.684
       226.000         193.000
 98  6 15 20 17 30.0000000  0  7G17G30G 5G 6G23G26G10
  21917230.258    -9508139.57749  -7389805.66647  21917230.561    21917245.035
       229.000         198.000
  21783053.601     5010466.37449   3905795.34347  21783055.088    21783068.069
       235.000         202.000
  23729932.267    11189793.90849   8709486.54145  23729933.760    23729949.316
       206.000         155.000
  20681434.634    -8138330.55349  -6330687.00847  20681435.413    20681448.333
       230.000         204.000
  23906288.816    -9774261.48149  -7604879.89345  23906289.694    23906306.341
       210.000         159.000
  23624623.367    -6481620.81149  -4609696.63345  23624624.589    23624639.856
       203.000         158.000
  22408141.979     5360144.82049   4177460.58647  22408141.675    22408155.869
       227.000         193.000
 98  6 15 20 17 45.0000000  0  7G17G30G 5G 6G23G26G10
  21912241.926    -9534354.09649  -7410232.55647  21912242.257    21912256.527
       229.000         198.000
  21789943.861     5046671.89649   3934007.41747  21789944.687    21789957.892
       235.000         202.000
  23739331.408    11239182.05249   8747970.74045  23739331.285    23739346.523
       206.000         153.000
  20677428.674    -8159383.03649  -6347091.54347  20677429.622    20677442.546
       230.000         204.000
  23896016.405    -9828242.35549  -7646942.83945  23896016.914    23896034.052
       211.000         159.000
  23616679.942    -6523362.74649  -4642222.75245  23616680.389    23616696.551
       205.000         159.000
  22415120.728     5396818.33949   4206037.33247  22415120.373    22415134.324
       226.000         192.000
 98  6 15 20 18  0.0000000  0  7G17G30G 5G 6G23G26G10
  21907262.392    -9560522.66549  -7430623.64047  21907262.429    21907277.078
       230.000         198.000
  21796849.389     5082964.28049   3962287.18547  21796850.946    21796863.884
       236.000         203.000
  23748733.250    11288587.82249   8786468.66645  23748732.954    23748749.299
       208.000         154.000
  20673436.439    -8180362.32949  -6363439.03947  20673437.099    20673449.973
       231.000         204.000
  23885751.927    -9882186.18549  -7688976.91445  23885751.661    23885768.881
       211.000         159.000
  23608743.863    -6565066.12449  -4674718.83245  23608744.936    23608760.873
       207.000         159.000
  22422114.559     5433572.80449   4234677.15647  22422114.433    22422128.697
       226.000         193.000
 98  6 15 20 18 15.0000000  0  7G17G30G 5G 6G23G26G10
  21902292.687    -9586638.37949  -7450973.53447  21902292.745    21902307.152
       230.000         198.000
  21803774.078     5119350.78149   3990640.28947  21803774.958    21803788.157
       236.000         203.000
  23758139.051    11338016.61449   8824984.53145  23758138.940    23758155.325
       206.000         153.000
  20669458.862    -8201264.18649  -6379726.19847  20669459.707    20669472.618
       231.000         204.000
  23875494.995    -9936085.49149  -7730976.29745  23875495.430    23875512.043
       212.000         158.000
  23600816.353    -6606724.33949  -4707179.72045  23600817.730    23600833.610
       207.000         160.000
  22429125.533     5470414.98449   4263385.32747  22429125.566    22429139.858
       226.000         193.000
 98  6 15 20 18 30.0000000  0  7G17G30G 5G 6G23G26G10
  21897334.919    -9612691.71849  -7471274.82647  21897335.232    21897349.188
       230.000         198.000
  21810718.299     5155842.52449   4019075.39547  21810719.184    21810732.338
       236.000         203.000
  23767551.938    11387480.26949   8863527.58645  23767551.840    23767567.836
       206.000         152.000
  20665497.974    -8222079.55149  -6395945.96747  20665498.635    20665511.339
       231.000         204.000
  23865248.256    -9989930.31549  -7772933.22445  23865249.010    23865265.642
       211.000         158.000
  23592900.383    -6648324.02249  -4739594.99345  23592901.537    23592917.226
       207.000         161.000
  22436154.879     5507356.90949   4292171.22447  22436155.285    22436169.693
       226.000         193.000
 98  6 15 20 18 45.0000000  0  7G17G30G 5G 6G23G26G10
  21892387.650    -9638690.28249  -7491533.42947  21892387.837    21892401.763
       230.000         199.000
  21817680.608     5192431.05149   4047585.92447  21817681.613    21817695.032
       235.000         203.000
  23776968.887    11436974.18849   8902094.20245  23776969.846    23776986.307
       203.000         151.000
  20661551.680    -8242817.03549  -6412105.03947  20661552.543    20661565.308
       231.000         204.000
  23855012.009   -10043726.34649  -7814852.14145  23855011.854    23855027.950
       210.000         158.000
  23584994.813    -6689868.09849  -4771966.94145  23584995.929    23585011.401
       207.000         161.000
  22443202.389     5544390.63149   4321028.64947  22443202.258    22443216.768
       225.000         193.000
 98  6 15 20 19  0.0000000  0  7G17G30G 5G 6G23G26G10
  21887448.843    -9664643.60249  -7511756.78547  21887449.386    21887462.994
       230.000         199.000
  21824659.908     5229110.65249   4076167.41647  21824661.431    21824675.111
       235.000         203.000
  23786390.437    11486491.88849   8940679.35045  23786392.986    23786408.265
       202.000         152.000
  20657618.206    -8263486.34349  -6428210.98947  20657619.085    20657632.126
       230.000         204.000
  23844782.647   -10097478.53449  -7856736.87745  23844783.236    23844799.852
       209.000         159.000
  23577098.570    -6731364.24949  -4804301.53945  23577099.272    23577114.636
       208.000         161.000
  22450265.608     5581508.35449   4349951.52847  22450265.885    22450279.942
       225.000         193.000
 98  6 15 20 19 15.0000000  0  7G17G30G 5G 6G23G26G10
  21882517.216    -9690556.89149  -7531948.94947  21882517.942    21882531.564
       231.000         199.000
  21831656.338     5265875.60349   4104815.40947  21831657.734    21831671.257
       235.000         203.000
  23795818.161    11536026.39149   8979277.59345  23795819.139    23795835.453
       206.000         151.000
  20653696.192    -8284096.17949  -6444270.60247  20653697.220    20653710.274
       230.000         204.000
  23834561.320   -10151191.09049  -7898590.74745  23834561.567    23834578.489
       210.000         158.000
  23569209.052    -6772821.37849  -4836605.73845  23569210.384    23569226.211
       209.000         160.000
  22457343.320     5618702.69349   4378934.10347  22457343.966    22457357.745
       225.000         192.000
 98  6 15 20 19 30.0000000  0  7G17G30G 5G 6G23G26G10
  21877597.167    -9716413.24649  -7552096.74147  21877597.798    21877611.701
       230.000         199.000
  21838671.811     5302741.68249   4133542.21247  21838673.026    21838686.675
       235.000         203.000
  23805251.233    11585588.59449   9017897.41445  23805251.154    23805266.062
       206.000         151.000
  20649789.616    -8304626.78549  -6460268.47547  20649790.375    20649803.165
       231.000         204.000
  23824350.068   -10204847.28149  -7940400.69145  23824351.705    23824368.420
       208.000         158.000
  23561329.870    -6814225.74749  -4868868.83045  23561331.627    23561346.875
       208.000         160.000
  22464438.564     5655987.78449   4407987.40647  22464438.961    22464452.856
       225.000         193.000
 98  6 15 20 19 45.0000000  0  7G17G30G 5G 6G23G26G10
  21872686.891    -9742217.89049  -7572204.24447  21872687.177    21872700.687
       232.000         200.000
  21845705.053     5339701.67349   4162342.18847  21845706.267    21845719.847
       235.000         203.000
  23814685.139    11635168.59949   9056531.11845  23814685.218    23814702.152
       205.000         152.000
  20645896.873    -8325081.66549  -6476207.33847  20645898.035    20645910.692
       230.000         205.000
  23814150.164   -10258453.66449  -7982171.83245  23814150.618    23814166.501
       211.000         159.000
  23553460.047    -6855584.49749  -4901096.37845  23553461.327    23553476.558
       208.000         160.000
  22471549.723     5693357.15049   4437106.36947  22471550.085    22471564.317
       225.000         191.000
 98  6 15 20 20  0.0000000  0  7G17G30G 5G 6G23G26G10
  21867786.139    -9767970.92549  -7592271.53347  21867786.519    21867800.356
       231.000         200.000
  21852756.189     5376752.84449   4191213.21447  21852757.067    21852770.378
       235.000         203.000
  23824122.926    11684763.84849   9095176.68645  23824123.835    23824138.945
       208.000         151.000
  20642018.881    -8345462.22049  -6492088.29147  20642019.844    20642032.656
       230.000         204.000
  23803956.901   -10312016.36149  -8023908.92145  23803957.864    23803974.160
       211.000         160.000
  23545598.054    -6896900.69649  -4933290.76545  23545599.267    23545614.109
       209.000         160.000
  22478675.683     5730807.47749   4466288.42347  22478676.400    22478690.591
       225.000         192.000
 98  6 15 20 20 15.0000000  0  7G17G30G 5G 6G23G26G10
  21862896.608    -9793664.20449  -7612292.25747  21862897.269    21862911.016
       231.000         200.000
  21859825.455     5413902.41549   4220160.91747  21859826.374    21859839.715
       235.000         203.000
  23833566.003    11734380.74349   9133839.12045  23833565.186    23833581.970
       206.000         153.000
  20638155.303    -8365764.95649  -6507908.60247  20638156.277    20638168.877
       231.000         205.000
  23793774.493   -10365531.54649  -8065609.00345  23793773.924    23793790.815
       211.000         160.000
  23537744.698    -6938168.77949  -4965447.66745  23537745.926    23537761.404
       209.000         160.000
  22485820.099     5768346.99049   4495539.97847  22485820.393    22485834.410
       226.000         192.000
 98  6 15 20 20 30.0000000  0  7G17G30G 5G 6G23G26G10
  21858018.169    -9819301.45649  -7632269.32547  21858018.505    21858032.659
       231.000         200.000
  21866913.067     5451149.16949   4249184.34647  21866913.964    21866927.490
       235.000         202.000
  23843010.053    11784014.93149   9172515.03745  23843010.253    23843027.852
       206.000         154.000
  20634306.720    -8385991.87349  -6523669.83547  20634307.180    20634320.072
       231.000         204.000
  23783598.386   -10419005.54949  -8107276.98645  23783598.729    23783614.739
       211.000         161.000
  23529899.931    -6979390.09549  -4997568.11745  23529901.398    23529916.499
       209.000         160.000
  22492979.295     5805971.41349   4524857.68947  22492979.766    22492993.950
       225.000         192.000
 98  6 15 20 20 45.0000000  0  7G17G30G 5G 6G23G26G10
  21853151.488    -9844876.95649  -7652198.26947  21853151.786    21853166.163
       231.000         200.000
  21874019.857     5488497.89649   4278287.23047  21874021.419    21874034.808
       235.000         202.000
  23852458.823    11833670.61649   9211207.69545  23852459.180    23852476.021
       205.000         153.000
  20630473.603    -8406133.24149  -6539364.40147  20630474.493    20630487.232
       231.000         204.000
  23773430.883   -10472431.90749  -8148907.85145  23773432.086    23773447.516
       211.000         161.000
  23522065.950    -7020559.25949  -5029647.94245  23522067.337    23522082.515
       209.000         159.000
  22500156.132     5843684.42849   4554244.43547  22500156.471    22500170.039
       226.000         192.000
 98  6 15 20 21  0.0000000  0  7G17G30G 5G 6G23G26G10
  21848297.330    -9870387.64649  -7672076.72347  21848297.594    21848311.143
       232.000         200.000
  21881147.392     5525950.11749   4307470.75747  21881147.926    21881161.972
       235.000         201.000
  23861912.137    11883347.66649   9249917.01145  23861913.448    23861929.089
       205.000         153.000
  20626658.202    -8426183.86849  -6554988.27047  20626658.824    20626671.926
       231.000         205.000
  23763273.629   -10525809.12149  -8190500.41045  23763274.036    23763290.731
       211.000         162.000
  23514241.692    -7061677.53149  -5061688.10845  23514243.324    23514258.092
       208.000         159.000
  22507349.725     5881487.75249   4583701.54847  22507350.386    22507364.193
       225.000         191.000
 98  6 15 20 21 15.0000000  0  7G17G30G 5G 6G23G26G10
  21843452.309    -9895844.61249  -7691913.30747  21843452.865    21843467.018
       231.000         200.000
  21888291.134     5563490.54149   4336723.01847  21888291.987    21888305.227
       234.000         201.000
  23871367.000    11933029.64449   9288630.15845  23871367.495    23871383.929
       207.000         154.000
  20622857.757    -8446155.45549  -6570550.54047  20622858.558    20622871.301
       231.000         205.000
  23753123.459   -10579148.95549  -8232063.84346  23753124.469    23753139.946
       213.000         163.000
  23506423.910    -7102759.76649  -5093700.19345  23506424.860    23506440.005
       209.000         158.000
  22514558.604     5919366.77549   4613217.64847  22514558.293    22514572.573
       226.000         191.000
 98  6 15 20 21 30.0000000  0  7G17G30G 5G 6G23G26G10
  21838619.225    -9921246.17949  -7711706.72047  21838619.346    21838633.356
       232.000         201.000
  21895450.784     5601115.66549   4366041.27947  21895452.122    21895465.345
       233.000         201.000
  23880822.816    11982715.56649   9327346.38745  23880822.841    23880838.107
       208.000         154.000
  20619073.039    -8466044.07049  -6586048.16047  20619073.834    20619086.715
       231.000         205.000
  23742980.839   -10632451.66849  -8273598.34846  23742981.048    23742997.336
       213.000         164.000
  23498614.564    -7143803.94449  -5125682.62045  23498614.875    23498629.173
       208.000         158.000
  22521780.900     5957320.08049   4642791.62947  22521780.599    22521794.490
       226.000         191.000
 98  6 15 20 21 45.0000000  0  7G17G30G 5G 6G23G26G10
  21833797.204    -9946585.81749  -7731451.88147  21833797.106    21833811.321
       232.000         201.000
  21902628.520     5638833.46049   4395431.75147  21902629.704    21902642.740
       233.000         201.000
  23890279.968    12032416.56549   9366074.35445  23890280.615    23890295.973
       208.000         154.000
  20615306.005    -8485840.57349  -6601474.00847  20615306.714    20615319.453
       231.000         205.000
  23732847.265   -10685707.62949  -8315096.44046  23732846.604    23732862.523
       214.000         165.000
  23490812.895    -7184798.37349  -5157626.28745  23490813.563    23490828.431
       209.000         158.000
  22529019.549     5995358.80649   4672432.17547  22529019.430    22529032.835
       226.000         191.000
 98  6 15 20 22  0.0000000  0  7G17G30G 5G 6G23G26G10
  21828988.355    -9971854.84649  -7751142.02047  21828988.770    21829002.879
       233.000         201.000
  21909825.948     5676655.32349   4424903.31547  21909826.660    21909840.101
       233.000         200.000
  23899743.424    12082148.06449   9404826.08645  23899743.377    23899760.190
       206.000         154.000
  20611557.752    -8505538.21949  -6616822.82047  20611558.496    20611571.297
       231.000         205.000
  23722723.453   -10738903.70549  -8356547.84946  23722723.865    23722739.406
       213.000         165.000
  23483023.819    -7225729.92349  -5189520.94645  23483025.069    23483039.447
       209.000         157.000
  22536276.580     6033495.10249   4702148.75147  22536276.320    22536290.662
       226.000         191.000
 98  6 15 20 22 15.0000000  0  7G17G30G 5G 6G23G26G10
  21824191.261    -9997065.27949  -7770786.49947  21824191.344    21824205.460
       233.000         202.000
  21917040.902     5714571.30549   4454448.21747  21917041.638    21917054.952
       233.000         200.000
  23909211.056    12131899.61649   9443593.44545  23909211.301    23909226.954
       206.000         154.000
  20607826.099    -8525147.21749  -6632102.55547  20607826.990    20607839.538
       231.000         205.000
  23712610.433   -10792047.18749  -8397958.29446  23712610.591    23712626.719
       214.000         165.000
  23475245.504    -7266605.34349  -5221371.87245  23475245.995    23475261.208
       210.000         158.000
  22543550.304     6071720.54249   4731934.78647  22543550.715    22543564.885
       225.000         190.000
 98  6 15 20 22 30.0000000  0  7G17G30G 5G 6G23G26G10
  21819403.543   -10022224.42749  -7790391.01747  21819403.778    21819417.714
       232.000         202.000
  21924272.262     5752573.26849   4484060.12347  21924273.138    21924286.422
       233.000         199.000
  23918680.696    12181661.15549   9482368.59045  23918680.382    23918696.879
       206.000         154.000
  20604110.713    -8544673.22349  -6647317.62347  20604111.402    20604123.912
       231.000         205.000
  23702507.187   -10845140.97249  -8439330.00346  23702507.227    23702522.679
       213.000         166.000
  23467477.221    -7307427.54349  -5253181.33345  23467477.994    23467492.876
       207.000         158.000
  22550839.967     6110027.70449   4761784.50147  22550840.532    22550853.796
       226.000         190.000
 98  6 15 20 22 45.0000000  0  7G17G30G 5G 6G23G26G10
  21814622.923   -10047346.56149  -7809966.69247  21814623.385    21814637.077
       233.000         202.000
  21931516.843     5790643.39149   4513725.13447  21931517.904    21931531.428
       233.000         199.000
  23928149.057    12231417.32749   9521139.53945  23928149.547    23928165.685
       206.000         154.000
  20600408.206    -8564127.15449  -6662476.52647  20600409.421    20600421.963
       231.000         205.000
  23692410.460   -10898194.02749  -8480669.97846  23692411.442    23692427.749
       213.000         167.000
  23459717.258    -7348208.43849  -5284958.60745  23459717.328    23459732.533
       209.000         157.000
  22558142.632     6148402.93149   4791687.25647  22558142.548    22558156.652
       225.000         190.000
 98  6 15 20 23  0.0000000  0  7G17G30G 5G 6G23G26G10
  21809852.852   -10072413.80149  -7829499.59247  21809853.089    21809867.152
       233.000         202.000
  21938777.070     5828795.90949   4543454.35547  21938777.812    21938791.194
       233.000         198.000
  23937619.849    12281187.40449   9559921.32745  23937619.661    23937636.587
       206.000         152.000
  20596723.069    -8583495.10349  -6677568.43147  20596723.696    20596736.553
       231.000         205.000
  23682326.648   -10951188.85549  -8521964.58046  23682326.827    23682342.572
       214.000         166.000
  23451966.349    -7388932.25849  -5316691.40245  23451968.311    23451982.490
       205.000         157.000
  22565461.166     6186862.17449   4821655.47347  22565461.366    22565475.220
       225.000         189.000
 98  6 15 20 23 15.0000000  0  7G17G30G 5G 6G23G26G10
  21805090.370   -10097439.65549  -7849000.24947  21805090.793    21805104.505
       233.000         202.000
  21946050.517     5867017.77349   4573237.61147  21946051.472    21946064.708
       233.000         198.000
  23947090.605    12330958.09549   9598703.60845  23947090.719    23947107.817
       204.000         152.000
  20593050.515    -8602793.02949  -6692605.77247  20593051.542    20593064.088
       231.000         205.000
  23672250.025   -11004139.93849  -8563225.09146  23672249.802    23672266.817
       213.000         166.000
  23444226.499    -7429611.19349  -5348389.22945  23444227.122    23444241.368
       207.000         158.000
  22572793.115     6225391.64049   4851678.40747  22572793.100    22572806.688
       225.000         189.000
 98  6 15 20 23 30.0000000  0  7G17G30G 5G 6G23G26G10
  21800339.922   -10122404.85849  -7868453.63647  21800339.938    21800353.902
       233.000         202.000
  21953340.565     5905326.95149   4603088.90247  21953341.541    21953354.542
       232.000         198.000
  23956565.938    12380748.69949   9637501.38445  23956565.976    23956581.580
       205.000         151.000
  20589396.024    -8622000.66449  -6707572.76247  20589396.247    20589409.270
       231.000         205.000
  23662186.261   -11057026.77649  -8604435.54046  23662186.850    23662202.793
       215.000         166.000
  23436497.535    -7470222.74549  -5380034.53945  23436499.176    23436513.789
       206.000         158.000
  22580141.201     6264008.85349   4881769.73147  22580141.809    22580155.577
       225.000         190.000
 98  6 15 20 23 45.0000000  0  7G17G30G 5G 6G23G26G10
  21795599.866   -10147314.57449  -7887863.79647  21795599.853    21795613.896
       233.000         203.000
  21960646.522     5943722.08049   4633007.17047  21960647.862    21960661.044
       232.000         198.000
  23966043.966    12430557.38249   9676313.24645  23966044.465    23966060.973
       205.000         152.000
  20585756.584    -8641123.73849  -6722473.85647  20585757.136    20585770.022
       231.000         205.000
  23652133.252   -11109854.11049  -8645599.63046  23652133.801    23652150.058
       213.000         167.000
  23428780.939    -7510771.85349  -5411631.20445  23428781.918    23428797.608
       207.000         158.000
  22587506.979     6302712.74149   4911928.57447  22587506.679    22587520.947
       225.000         189.000
 98  6 15 20 24  0.0000000  0  7G17G30G 5G 6G23G26G10
  21790869.004   -10172175.29149  -7907235.77147  21790869.230    21790883.135
       233.000         202.000
  21967969.058     5982198.04949   4662988.42647  21967969.690    21967982.520
       233.000         198.000
  23975523.477    12480376.13849   9715132.96245  23975524.834    23975541.298
       205.000         152.000
  20582132.064    -8660170.79649  -6737315.71847  20582132.695    20582145.416
       231.000         205.000
  23642090.357   -11162628.82849  -8686722.71846  23642090.641    23642106.894
       214.000         165.000
  23421074.932    -7551267.58549  -5443186.27045  23421076.298    23421091.657
       207.000         158.000
  22594887.299     6341495.91249   4942149.20547  22594887.203    22594901.086
       225.000         188.000
 98  6 15 20 24 15.0000000  0  7G17G30G 5G 6G23G26G10
  21786147.916   -10196985.71249  -7926568.54847  21786147.921    21786161.869
       233.000         202.000
  21975305.893     6020754.75549   4693032.59747  21975306.866    21975319.933
       233.000         197.000
  23985006.208    12530200.00349   9753956.65345  23985005.002    23985022.446
       205.000         149.000
  20578522.655    -8679137.93349  -6752095.30147  20578523.334    20578536.268
       231.000         204.000
  23632056.568   -11215353.54649  -8727806.84046  23632057.479    23632074.073
       213.000         165.000
  23413379.023    -7591713.07549  -5474702.18545  23413379.912    23413394.738
       208.000         158.000
  22602281.811     6380354.56349   4972428.64947  22602281.550    22602295.708
       225.000         188.000
 98  6 15 20 24 30.0000000  0  7G17G30G 5G 6G23G26G10
  21781439.715   -10221726.40649  -7945847.00347  21781439.915    21781453.897
       233.000         202.000
  21982661.618     6059409.96849   4723153.52747  21982662.669    21982675.550
       233.000         197.000
  23994489.448    12580045.30749   9792797.05545  23994490.294    23994508.060
       203.000         150.000
  20574932.132    -8698006.08049  -6766797.75347  20574932.941    20574945.880
       230.000         205.000
  23622037.085   -11268011.13449  -8768838.65746  23622037.235    23622052.920
       214.000         165.000
  23405695.121    -7632088.56749  -5506163.55345  23405696.392    23405711.148
       206.000         158.000
  22609693.958     6419304.27849   5002779.05047  22609693.552    22609707.472
       225.000         188.000
 98  6 15 20 24 45.0000000  0  7G17G30G 5G 6G23G26G10
  21776742.661   -10246408.70749  -7965079.95047  21776742.946    21776756.793
       233.000         202.000
  21990034.621     6098154.19749   4753343.81947  21990035.375    21990048.537
       233.000         197.000
  24003979.347    12629903.20649   9831647.26245  24003978.360    24003994.781
       201.000         150.000
  20571358.723    -8716785.55849  -6781431.10847  20571359.407    20571372.044
       230.000         205.000
  23612026.697   -11320613.88749  -8809827.73346  23612026.439    23612043.033
       213.000         164.000
  23398022.920    -7672407.09049  -5537580.54145  23398023.892    23398038.981
       207.000         159.000
  22617119.718     6458329.23049   5033188.08647  22617119.919    22617133.674
       225.000         188.000
 98  6 15 20 25  0.0000000  0  7G17G30G 5G 6G23G26G10
  21772055.755   -10271039.36149  -7984272.65747  21772055.603    21772069.914
       233.000         203.000
  21997423.356     6136985.10349   4783601.65247  21997424.698    21997437.671
       234.000         197.000
  24013468.143    12679770.41649   9870504.71645  24013468.285    24013485.391
       204.000         149.000
  20567800.635    -8735482.31649  -6796000.00947  20567801.622    20567814.188
       230.000         205.000
  23602025.624   -11373169.08749  -8850779.76746  23602026.232    23602042.707
       211.000         164.000
  23390359.955    -7712675.47649  -5568958.45545  23390361.294    23390376.164
       206.000         159.000
  22624559.156     6497421.50749   5063649.57247  22624559.317    22624573.274
       226.000         189.000
 98  6 15 20 25 15.0000000  0  7G17G30G 5G 6G23G26G10
  21767378.042   -10295620.59849  -8003426.85047  21767378.404    21767391.824
       233.000         202.000
  22004829.352     6175902.25749   4813926.69547  22004830.080    22004843.549
       233.000         197.000
  24022959.240    12729645.23149   9909368.11345  24022958.735    24022975.694
       204.000         147.000
  20564257.983    -8754098.60949  -6810506.20347  20564258.523    20564271.297
       230.000         205.000
  23592033.000   -11425681.37849  -8891698.36146  23592033.373    23592049.696
       212.000         164.000
  23382706.656    -7752895.46549  -5600298.65745  23382707.397    23382722.302
       208.000         159.000
  22632010.715     6536579.13749   5094161.99747  22632010.584    22632023.971
       226.000         188.000
 98  6 15 20 25 30.0000000  0  7G17G30G 5G 6G23G26G10
  21762712.979   -10320134.24749  -8022528.37847  21762713.578    21762727.140
       232.000         202.000
  22012254.652     6214922.99249   4844332.44347  22012255.508    22012269.207
       232.000         198.000
  24032452.044    12779541.60949   9948248.32145  24032453.594    24032470.482
       203.000         147.000
  20560734.783    -8772614.11849  -6824933.86847  20560735.385    20560748.262
       230.000         205.000
  23582052.540   -11478131.40049  -8932568.43046  23582051.964    23582068.130
       212.000         164.000
  23375065.393    -7793048.43149  -5631586.62745  23375066.543    23375081.446
       208.000         159.000
  22639477.695     6575820.63049   5124739.76347  22639477.904    22639491.717
       224.000         188.000
 98  6 15 20 25 45.0000000  0  7G17G30G 5G 6G23G26G10
  21758059.598   -10344587.18549  -8041582.59847  21758060.159    21758073.940
       233.000         202.000
  22019698.077     6254040.33949   4874813.48047  22019699.379    22019712.697
       232.000         197.000
  24041951.236    12829453.69749   9987140.76045  24041952.462    24041968.722
       204.000         147.000
  20557228.744    -8791036.75049  -6839289.15947  20557229.748    20557242.520
       229.000         204.000
  23572081.726   -11530525.72049  -8973395.09546  23572081.500    23572097.911
       212.000         163.000
  23367436.202    -7833141.58449  -5662827.98945  23367436.740    23367452.363
       209.000         159.000
  22646959.714     6615139.20549   5155377.59947  22646959.559    22646974.133
       224.000         188.000
 98  6 15 20 26  0.0000000  0  7G17G30G 5G 6G23G26G10
  21753418.212   -10368978.55049  -8060588.85047  21753418.471    21753432.454
       232.000         202.000
  22027160.870     6293256.58149   4905371.56947  22027162.371    22027175.596
       232.000         197.000
  24051453.107    12879381.42749  10026045.38445  24051453.485    24051469.470
       206.000         146.000
  20553740.671    -8809367.68749  -6853573.00547  20553741.467    20553754.319
       229.000         205.000
  23562121.663   -11582864.00549  -9014178.10246  23562122.066    23562138.586
       212.000         164.000
  23359817.231    -7873174.91349  -5694022.73345  23359818.718    23359833.578
       207.000         160.000
  22654456.061     6654535.02649   5186075.61647  22654456.401    22654471.100
       223.000         188.000
 98  6 15 20 26 15.0000000  0  7G17G30G 5G 6G23G26G10
  21748786.366   -10393319.45049  -8079555.76647  21748786.615    21748800.444
       233.000         202.000
  22034639.554     6332559.81749   4935997.45647  22034641.362    22034654.386
       232.000         197.000
  24060953.983    12929311.06949  10064951.52045  24060954.893    24060971.407
       206.000         146.000
  20550267.370    -8827616.55049  -6867792.89447  20550268.743    20550281.757
       229.000         204.000
  23552170.046   -11635155.75549  -9054924.84746  23552171.092    23552186.989
       213.000         164.000
  23352209.185    -7913156.52249  -5725177.18745  23352210.450    23352225.644
       207.000         161.000
  22661965.463     6693996.36349   5216824.68946  22661965.621    22661980.141
       223.000         187.000
 98  6 15 20 26 30.0000000  0  7G17G30G 5G 6G23G26G10
  21744165.492   -10417599.72449  -8098475.44547  21744166.029    21744179.999
       232.000         202.000
  22042136.837     6371958.78249   4966697.92847  22042138.477    22042152.226
       231.000         198.000
  24070456.984    12979254.61749  10103868.48945  24070458.383    24070474.892
       203.000         147.000
  20546812.439    -8845773.72249  -6881941.33647  20546813.226    20546826.478
       229.000         205.000
  23542231.067   -11687389.08649  -9095626.06346  23542231.933    23542247.205
       212.000         164.000
  23344614.042    -7953072.79749  -5756280.72345  23344614.547    23344629.994
       208.000         162.000
  22669488.872     6733533.74149   5247633.01847  22669489.265    22669503.544
       224.000         189.000
 98  6 15 20 26 45.0000000  0  7G17G30G 5G 6G23G26G10
  21739553.987   -10441833.47149  -8117358.86847  21739554.339    21739568.379
       232.000         202.000
  22049650.164     6411439.97049   4997462.47547  22049651.482    22049665.332
       231.000         198.000
  24079963.075    13029200.37449  10142787.16345  24079963.501    24079979.366
       205.000         148.000
  20543371.671    -8863853.19649  -6896029.23247  20543372.936    20543385.813
       229.000         204.000
  23532300.120   -11739575.89449  -9136291.03546  23532300.553    23532316.198
       214.000         165.000
  23337028.924    -7992935.54549  -5787342.55146  23337029.039    23337044.514
       209.000         163.000
  22677025.077     6773136.54249   5278492.32046  22677025.427    22677039.828
       223.000         187.000
 98  6 15 20 27  0.0000000  0  7G17G30G 5G 6G23G26G10
  21734952.929   -10466011.31049  -8136198.73347  21734953.625    21734967.751
       231.000         202.000
  22057180.013     6451010.14349   5028296.35147  22057181.385    22057195.554
       231.000         198.000
  24089469.548    13079158.68249  10181715.62145  24089469.560    24089486.146
       206.000         145.000
  20539948.306    -8881844.16549  -6910048.17347  20539949.573    20539962.619
       228.000         204.000
  23522379.919   -11791705.45249  -9176911.39046  23522380.770    23522396.846
       213.000         165.000
  23329453.701    -8032736.81949  -5818356.47246  23329455.108    23329470.529
       209.000         163.000
  22684575.994     6812817.36849   5309412.43047  22684576.554    22684591.358
       223.000         188.000
 98  6 15 20 27 15.0000000  0  7G17G30G 5G 6G23G26G10
  21730361.338   -10490139.94249  -8155000.25347  21730362.041    21730376.018
       232.000         202.000
  22064724.653     6490657.88549   5059190.67947  22064726.013    22064739.846
       231.000         198.000
  24098975.169    13129119.81749  10220646.27845  24098976.754    24098994.302
       203.000         146.000
  20536539.639    -8899756.25849  -6924005.64347  20536540.445    20536554.026
       228.000         204.000
  23512470.286   -11843783.90349  -9217491.93046  23512470.704    23512486.439
       213.000         166.000
  23321891.278    -8072482.33749  -5849326.96146  23321892.176    23321907.540
       209.000         164.000
  22692141.434     6852573.55449   5340391.24747  22692141.452    22692156.181
       222.000         188.000
 98  6 15 20 27 30.0000000  0  7G17G30G 5G 6G23G26G10
  21725780.011   -10514215.38649  -8173760.32247  21725780.562    21725794.842
       232.000         202.000
  22072284.006     6530383.51849   5090145.70047  22072285.832    22072299.681
       231.000         198.000
  24108484.640    13179085.37649  10259580.39545  24108485.954    24108501.137
       204.000         147.000
  20533146.773    -8917585.08349  -6937898.23147  20533147.977    20533161.465
       228.000         204.000
  23502569.899   -11895806.78349  -9258029.17246  23502571.130    23502586.297
       215.000         166.000
  23314338.801    -8112168.74949  -5880251.38846  23314339.603    23314355.021
       211.000         165.000
  22699721.980     6892409.78149   5371432.44947  22699722.291    22699737.321
       222.000         188.000
 98  6 15 20 27 45.0000000  0  7G17G30G 5G 6G23G26G10
  21721209.178   -10538235.22049  -8192477.06847  21721209.983    21721223.909
       231.000         202.000
  22079859.400     6570188.82549   5121162.79747  22079860.288    22079874.140
       231.000         198.000
  24117994.504    13229059.51149  10298521.17345  24117995.878    24118013.130
       207.000         148.000
  20529770.542    -8935329.42749  -6951724.99147  20529771.761    20529784.704
       229.000         204.000
  23492681.962   -11947769.93449  -9298519.85846  23492682.232    23492698.352
       214.000         167.000
  23306798.812    -8151793.95249  -5911128.12246  23306799.615    23306814.592
       213.000         166.000
  22707318.484     6932326.55849   5402536.41147  22707318.995    22707332.814
       223.000         188.000
 98  6 15 20 28  0.0000000  0  7G17G30G 5G 6G23G26G10
  21716648.261   -10562201.85649  -8211152.35847  21716649.214    21716663.032
       232.000         202.000
  22087449.083     6610074.54649   5152242.56047  22087450.662    22087464.482
       231.000         198.000
  24127506.066    13279044.57949  10337470.49245  24127507.285    24127524.409
       203.000         147.000
  20526410.403    -8952988.37149  -6965485.20747  20526411.522    20526424.218
       229.000         204.000
  23482804.201   -11999673.90349  -9338964.44346  23482805.458    23482821.254
       213.000         167.000
  23299269.784    -8191357.50849  -5941956.81746  23299270.684    23299285.832
       211.000         166.000
  22714929.559     6972325.40749   5433704.32047  22714930.223    22714944.339
       223.000         189.000
 98  6 15 20 28 15.0000000  0  7G17G30G 5G 6G23G26G10
  21712096.491   -10586125.05749  -8229793.79747  21712096.847    21712110.806
       232.000         202.000
  22095052.151     6650028.79949   5183375.72247  22095053.618    22095067.438
       231.000         198.000
  24137018.471    13329030.83949  10376420.71445  24137019.191    24137035.613
       202.000         145.000
  20523064.988    -8970570.18649  -6979185.32147  20523065.753    20523078.492
       229.000         204.000
  23472936.861   -12051528.84149  -9379370.81246  23472937.685    23472953.535
       215.000         169.000
  23291751.030    -8230866.06449  -5972742.65646  23291752.581    23291767.473
       211.000         166.000
  22722554.987     7012395.73449   5464927.92947  22722555.143    22722569.295
       223.000         188.000
 98  6 15 20 28 30.0000000  0  7G17G30G 5G 6G23G26G10
  21707554.339   -10609994.13249  -8248393.06547  21707554.467    21707568.546
       232.000         202.000
  22102670.554     6690061.67549   5214570.14647  22102671.597    22102685.746
       231.000         198.000
  24146534.207    13379031.46649  10415382.12945  24146534.309    24146551.060
       204.000         147.000
  20519735.993    -8988061.66449  -6992815.04147  20519737.002    20519749.880
       229.000         204.000
  23463081.527   -12103323.17449  -9419729.95646  23463081.598    23463097.705
       216.000         169.000
  23284246.824    -8270304.64949  -6003473.97546  23284247.846    23284262.430
       213.000         166.000
  22730195.789     7052548.30349   5496215.62547  22730195.539    22730210.003
       223.000         188.000
 98  6 15 20 28 45.0000000  0  7G17G30G 5G 6G23G26G10
  21703024.482   -10633796.55749  -8266940.39747  21703024.857    21703039.194
       232.000         202.000
  22110306.032     6730187.30149   5245836.85147  22110307.613    22110321.122
       231.000         198.000
  24156053.892    13429060.04649  10454365.32245  24156053.525    24156072.086
       200.000         144.000
  20516427.082    -9005449.77249  -7006364.21447  20516428.032    20516441.146
       229.000         204.000
  23453238.197   -12155047.69249  -9460034.70346  23453238.397    23453254.538
       216.000         170.000
  23276757.989    -8309658.55149  -6034139.30646  23276758.761    23276773.452
       212.000         166.000
  22737854.382     7092795.74949   5527577.25446  22737854.947    22737869.095
       223.000         187.000
 98  6 15 20 29  0.0000000  0  7G17G30G 5G 6G23G26G10
  21698504.977   -10657549.63549  -8285449.27747  21698505.144    21698519.143
       233.000         202.000
  22117956.464     6770389.26349   5277163.03247  22117957.778    22117971.224
       231.000         197.000
  24165576.365    13479097.82949  10493355.69945  24165575.672    24165593.389
       200.000         145.000
  20513134.390    -9022752.58649  -7019846.92347  20513135.189    20513148.340
       228.000         203.000
  23443405.076   -12206718.56049  -9500297.64246  23443405.929    23443421.642
       215.000         171.000
  23269281.811    -8348945.13249  -6064752.17646  23269282.745    23269297.363
       213.000         166.000
  22745528.444     7133122.71849   5559000.85246  22745528.845    22745543.318
       223.000         187.000
 98  6 15 20 29 15.0000000  0  7G17G30G 5G 6G23G26G10
  21693992.254   -10681262.16849  -8303926.56447  21693992.494    21694006.631
       232.000         201.000
  22125618.875     6810657.51349   5308540.86647  22125620.330    22125634.027
       231.000         197.000
  24175097.786    13529134.20949  10532344.96145  24175097.550    24175115.176
       202.000         145.000
  20509856.224    -9039980.79949  -7033271.50047  20509857.264    20509869.863
       229.000         203.000
  23433580.773   -12258344.84949  -9540525.85646  23433581.976    23433597.904
       216.000         171.000
  23261816.399    -8388172.25249  -6095318.71246  23261817.957    23261833.191
       212.000         166.000
  22753215.374     7173517.54349   5590477.31246  22753215.760    22753230.284
       223.000         187.000
 98  6 15 20 29 30.0000000  0  7G17G30G 5G 6G23G26G10
  21689488.105   -10704932.05449  -8322370.61747  21689488.414    21689502.712
       232.000         201.000
  22133295.260     6850995.39949   5339972.96347  22133296.693    22133310.325
       230.000         197.000
  24184618.462    13579168.34649  10571332.49245  24184619.398    24184636.317
       198.000         144.000
  20506592.726    -9057131.67049  -7046635.81247  20506593.307    20506606.348
       229.000         203.000
  23423765.999   -12309929.19049  -9580721.37546  23423765.866    23423781.320
       216.000         171.000
  23254364.410    -8427337.28549  -6125836.86946  23254365.596    23254380.311
       213.000         166.000
  22760915.285     7213978.14449   5622005.04046  22760915.196    22760929.373
       223.000         186.000
 98  6 15 20 29 45.0000000  0  7G17G30G 5G 6G23G26G10
  21684994.126   -10728548.23849  -8340772.82947  21684994.159    21685008.357
       232.000         201.000
  22140986.762     6891413.92149   5371467.88947  22140987.886    22141001.459
       231.000         198.000
  24194141.454    13629209.69849  10610325.61445  24194141.518    24194158.702
       199.000         145.000
  20503345.904    -9074194.52949  -7059931.54647  20503346.517    20503359.393
       229.000         203.000
  23413958.733   -12361463.27149  -9620877.73446  23413959.350    23413975.403
       216.000         171.000
  23246925.748    -8466429.59249  -6156298.36146  23246926.389    23246940.633
       213.000         166.000
  22768628.994     7254512.65949   5653590.35646  22768629.095    22768643.021
       223.000         187.000
 98  6 15 20 30  0.0000000  0  7G17G30G 5G 6G23G26G10
  21680514.005   -10752090.98849  -8359117.81347  21680513.915    21680528.493
       231.000         201.000
  22148697.408     6931934.70549   5403042.50647  22148699.135    22148712.523
       230.000         197.000
  24203669.522    13679277.22349  10649339.14945  24203669.049    24203686.054
       199.000         145.000
  20500119.565    -9091148.02949  -7073142.06147  20500120.319    20500133.584
       228.000         203.000
  23404165.678   -12412926.88349  -9660979.18246  23404165.749    23404181.078
       215.000         171.000
  23239503.739    -8505427.74249  -6186686.47946  23239504.869    23239519.435
       211.000         166.000
  22776360.425     7295142.14249   5685249.68346  22776360.325    22776374.234
       223.000         187.000
 98  6 15 20 30 15.0000000  0  7G17G30G 5G 6G23G26G10
  21676045.891   -10775570.28049  -8377413.35447  21676046.234    21676060.126
       231.000         201.000
  22156425.207     6972543.05049   5434685.34747  22156426.159    22156439.976
       231.000         197.000
  24213197.684    13729354.19049  10688360.04245  24213198.339    24213215.979
       198.000         143.000
  20496912.189    -9108004.61449  -7086277.06047  20496912.887    20496925.517
       229.000         203.000
  23394382.800   -12464332.70649  -9701035.59646  23394383.314    23394399.979
       215.000         170.000
  23232097.815    -8544342.78049  -6217009.83346  23232099.446    23232114.220
       212.000         166.000
  22784107.511     7335852.59249   5716972.09346  22784107.579    22784121.581
       223.000         186.000
 98  6 15 20 30 30.0000000  0  7G17G30G 5G 6G23G26G10
  21671586.865   -10799002.32549  -8395672.07747  21671587.107    21671601.090
       232.000         201.000
  22164166.353     7013222.12249   5466383.30447  22164167.126    22164180.909
       231.000         197.000
  24222726.414    13779420.45549  10727372.59345  24222726.369    24222744.426
       198.000         146.000
  20493718.903    -9124782.66649  -7099350.86547  20493719.705    20493732.573
       229.000         203.000
  23384608.449   -12515696.18349  -9741059.01646  23384609.342    23384624.785
       215.000         170.000
  23224705.182    -8583193.25649  -6247282.88246  23224706.819    23224721.842
       212.000         166.000
  22791865.895     7376626.68349   5748744.08946  22791866.412    22791880.239
       222.000         185.000
 98  6 15 20 30 45.0000000  0  8G17G30G 5G 6G23G22G26G10
  21667136.610   -10822389.64749  -8413895.95347  21667136.642    21667151.076
       232.000         201.000
  22171920.315     7053970.24849   5498135.07147  22171921.475    22171935.055
       231.000         197.000
  24232250.607    13829471.06849  10766372.93945  24232249.993    24232267.836
       201.000         143.000
  20490540.499    -9141483.47449  -7112364.47647  20490541.747    20490554.565
       228.000         203.000
  23374842.896   -12567019.00649  -9781050.76146  23374843.200    23374858.538
       217.000         171.000
  24744182.098    -3109777.68059  -1542061.29255  24744181.696    24744197.730
       211.000         156.000
  23217323.747    -8621986.95249  -6277511.68546  23217324.166    23217339.167
       211.000         165.000
  22799636.482     7417462.40249   5780564.11546  22799637.139    22799651.221
       222.000         185.000
 98  6 15 20 31  0.0000000  0  8G17G30G 5G 6G23G22G26G10
  21662696.307   -10845722.02149  -8432077.01347  21662696.778    21662710.776
       232.000         201.000
  22179689.241     7094793.70449   5529945.52647  22179689.472    22179703.185
       231.000         197.000
  24241771.038    13879513.46149  10805366.88545  24241772.895    24241791.251
       197.000         147.000
  20487379.428    -9158097.95049  -7125310.82347  20487379.973    20487392.946
       228.000         203.000
  23365086.090   -12618290.68949  -9821002.64946  23365086.230    23365102.149
       217.000         171.000
  24736575.279    -3149754.34349  -1573211.93345  24736574.788    24736589.956
       211.000         157.000
  23209952.780    -8660719.74249  -6307693.03046  23209953.944    23209968.755
       212.000         165.000
  22807421.266     7458368.27649   5812438.80146  22807421.472    22807435.034
       222.000         185.000
 98  6 15 20 31 15.0000000  0  8G17G30G 5G 6G23G22G26G10
  21658266.821   -10869001.00649  -8450216.46547  21658266.892    21658280.826
       231.000         201.000
  22187470.854     7135689.31649   5561812.22147  22187471.955    22187485.820
       231.000         196.000
  24251294.156    13929546.39549  10844353.44745  24251294.167    24251311.876
       201.000         147.000
  20484234.398    -9174625.40449  -7138189.34847  20484235.369    20484248.161
       228.000         203.000
  23355338.781   -12669509.90149  -9860913.66746  23355339.252    23355354.886
       216.000         171.000
  24728981.831    -3189650.51649  -1604299.83445  24728982.253    24728997.629
       208.000         155.000
  23202592.443    -8699395.04849  -6337829.58046  23202593.659    23202608.461
       210.000         164.000
  22815217.888     7499338.92049   5844363.95946  22815217.980    22815232.108
       222.000         185.000
 98  6 15 20 31 30.0000000  0  8G17G30G 5G 6G23G22G26G10
  21653848.751   -10892216.63749  -8468306.55847  21653849.368    21653863.211
       231.000         201.000
  22195268.879     7176666.18649   5593742.22647  22195269.595    22195283.064
       231.000         197.000
  24260814.969    13979578.85649  10883339.65645  24260815.703    24260833.003
       201.000         148.000
  20481108.163    -9191053.59449  -7150990.53547  20481108.886    20481121.720
       228.000         202.000
  23345602.978   -12720671.33549  -9900779.65346  23345603.691    23345619.308
       217.000         171.000
  24721406.438    -3229458.09449  -1635318.70045  24721407.587    24721422.343
       205.000         152.000
  23195245.545    -8738003.44249  -6367913.99646  23195246.995    23195261.364
       211.000         164.000
  22823027.515     7540381.22849   5876344.95746  22823027.812    22823041.620
       223.000         184.000
 98  6 15 20 31 45.0000000  0  8G17G30G 5G 6G23G22G26G10
  21649441.091   -10915380.29949  -8486356.15147  21649441.194    21649455.037
       232.000         201.000
  22203080.215     7217715.31849   5625728.54047  22203081.186    22203094.735
       231.000         196.000
  24270334.481    14029602.71749  10922319.15445  24270335.438    24270352.164
       202.000         147.000
  20477999.065    -9207391.00449  -7163720.98047  20477999.941    20478012.653
       228.000         202.000
  23335877.254   -12771782.68449  -9940606.61946  23335877.658    23335893.469
       217.000         172.000
  24713847.297    -3269184.79549  -1666274.53945  24713847.556    24713862.422
       205.000         149.000
  23187909.634    -8776553.10449  -6397952.64046  23187911.535    23187925.808
       210.000         163.000
  22830849.724     7581486.65149   5908375.14546  22830850.134    22830863.702
       222.000         184.000
 98  6 15 20 32  0.0000000  0  8G17G30G 5G 6G23G22G26G10
  21645045.206   -10938480.17049  -8504356.04547  21645045.522    21645059.602
       232.000         201.000
  22210907.804     7258850.01149   5657781.52247  22210908.917    22210922.310
       231.000         196.000
  24279856.241    14079633.75249  10961304.25245  24279855.371    24279873.312
       204.000         149.000
  20474910.178    -9223624.06049  -7176370.11247  20474910.721    20474923.898
       227.000         202.000
  23326163.687   -12822826.16849  -9980380.69846  23326164.183    23326180.105
       218.000         171.000
  24706306.175    -3308816.02649  -1697155.98745  24706306.376    24706320.614
       204.000         147.000
  23180588.839    -8815030.05349  -6427934.62246  23180589.315    23180604.178
       210.000         163.000
  22838687.618     7622670.42749   5940466.38446  22838687.068    22838700.964
       223.000         185.000
 98  6 15 20 32 15.0000000  0  8G17G30G 5G 6G23G22G26G10
  21640658.567   -10961531.62649  -8522318.20147  21640658.940    21640672.827
       231.000         201.000
  22218748.911     7300056.39749   5689890.37247  22218750.132    22218763.801
       230.000         196.000
  24289374.128    14129659.65049  11000285.34445  24289374.218    24289393.103
       201.000         147.000
  20471838.689    -9239763.75749  -7188946.49347  20471839.573    20471852.754
       228.000         202.000
  23316461.715   -12873812.70249 -10020110.40346  23316461.971    23316476.877
       218.000         171.000
  24698780.455    -3348362.88749  -1727971.69945  24698779.848    24698795.080
       205.000         145.000
  23173277.895    -8853446.56449  -6457869.51245  23173279.013    23173293.188
       209.000         162.000
  22846536.875     7663918.34849   5972607.60346  22846536.704    22846550.787
       224.000         185.000
 98  6 15 20 32 30.0000000  0  8G17G30G 5G 6G23G22G26G10
  21636281.656   -10984533.21849  -8540241.51147  21636281.852    21636295.830
       232.000         201.000
  22226604.810     7341339.25849   5722058.81547  22226606.091    22226619.851
       230.000         196.000
  24298894.981    14179683.76749  11039265.04745  24298894.620    24298912.750
       204.000         147.000
  20468785.379    -9255807.98849  -7201448.48547  20468786.420    20468799.180
       228.000         202.000
  23306770.666   -12924739.16049 -10059793.30146  23306770.426    23306786.250
       217.000         171.000
  24691270.624    -3387820.25049  -1758717.67445  24691272.499    24691287.243
       202.000         142.000
  23165979.071    -8891799.35149  -6487754.74946  23165980.104    23165994.931
       209.000         163.000
  22854397.847     7705231.64749   6004799.76346  22854398.533    22854411.825
       221.000         184.000
 98  6 15 20 32 45.0000000  0  8G17G30G 5G 6G23G22G26G10
  21631914.931   -11007480.63249  -8558122.60047  21631914.893    21631929.192
       232.000         200.000
  22234476.467     7382705.98149   5754292.60747  22234478.004    22234491.546
       230.000         195.000
  24308415.607    14229716.40749  11078251.38645  24308414.768    24308432.700
       202.000         145.000
  20465752.948    -9271745.46349  -7213867.29447  20465753.540    20465766.769
       227.000         202.000
  23297091.672   -12975598.33749 -10099423.77546  23297092.471    23297107.817
       217.000         171.000
  24683781.702    -3427179.24449  -1789386.98945  24683781.468    24683797.076
       203.000         141.000
  23158695.445    -8930078.79849  -6517582.83545  23158696.352    23158710.173
       213.000         162.000
  22862273.695     7746619.02549   6037049.64746  22862273.416    22862288.053
       222.000         184.000
 98  6 15 20 33  0.0000000  0  8G17G30G 5G 6G23G22G26G10
  21627556.954   -11030380.87249  -8575966.92647  21627557.409    21627571.228
       232.000         201.000
  22242362.652     7424146.41849   5786583.83447  22242364.048    22242377.193
       231.000         195.000
  24317936.693    14279750.56549  11117238.91545  24317937.612    24317953.567
       203.000         144.000
  20462739.498    -9287582.12349  -7226207.54147  20462740.053    20462752.729
       228.000         202.000
  23287425.347   -13026397.88849 -10139007.78946  23287425.828    23287441.224
       219.000         172.000
  24676310.605    -3466443.13949  -1819982.21345  24676309.777    24676325.544
       201.000         141.000
  23151424.736    -8968289.72549  -6547357.53245  23151424.545    23151439.253
       211.000         162.000
  22870162.142     7788070.46749   6069349.45946  22870161.510    22870175.357
       223.000         184.000
 98  6 15 20 33 15.0000000  0  8G17G30G 5G 6G23G22G26G10
  21623210.013   -11053225.04549  -8593767.57647  21623210.265    21623224.106
       232.000         201.000
  22250264.039     7465669.47649   5818939.44247  22250265.170    22250278.743
       231.000         195.000
  24327461.432    14329796.19549  11156235.37245  24327460.255    24327478.952
       203.000         143.000
  20459746.591    -9303309.40749  -7238462.56447  20459747.328    20459760.202
       228.000         201.000
  23277772.128   -13077128.02649 -10178537.71246  23277772.198    23277786.988
       219.000         172.000
  24668858.467    -3505600.41249  -1850494.34545  24668858.581    24668874.405
       202.000         141.000
  23144167.943    -9006417.49549  -6577067.42946  23144169.020    23144183.214
       210.000         163.000
  22878064.029     7829594.88249   6101706.11546  22878063.648    22878077.557
       222.000         184.000
 98  6 15 20 33 30.0000000  0  8G17G30G 5G 6G23G22G26G10
  21618873.327   -11076014.05449  -8611525.23247  21618873.769    21618887.446
       232.000         201.000
  22258182.123     7507275.12749   5851359.40047  22258182.770    22258196.542
       231.000         195.000
  24336985.007    14379853.64149  11195241.04045  24336986.200    24337003.751
       200.000         140.000
  20456774.160    -9318927.40749  -7250632.43147  20456775.419    20456788.063
       227.000         202.000
  23268131.605   -13127789.23049 -10218013.91946  23268131.570    23268146.618
       219.000         172.000
  24661427.154    -3544650.46449  -1880922.92645  24661426.839    24661443.294
       202.000         142.000
  23136928.874    -9044459.04249  -6606710.13446  23136929.756    23136944.697
       212.000         163.000
  22885979.763     7871194.11249   6134121.09846  22885979.720    22885993.306
       223.000         184.000
 98  6 15 20 33 45.0000000  0  8G17G30G 5G 6G23G22G26G10
  21614543.553   -11098766.94149  -8629254.74147  21614543.943    21614557.740
       232.000         201.000
  22266110.413     7548942.37249   5883827.36147  22266111.506    22266125.653
       230.000         194.000
  24346509.746    14429903.25249  11234240.62245  24346510.211    24346528.484
       199.000         140.000
  20453819.395    -9334457.21349  -7262733.57247  20453819.983    20453832.750
       227.000         201.000
  23258500.496   -13178397.55649 -10257448.92446  23258501.214    23258516.824
       220.000         172.000
  24654014.395    -3583608.85249  -1911280.07545  24654014.525    24654029.095
       204.000         142.000
  23129702.623    -9082433.13549  -6636300.28646  23129703.817    23129718.092
       212.000         163.000
  22893906.505     7912850.41549   6166580.53046  22893907.170    22893920.626
       222.000         184.000
 98  6 15 20 34  0.0000000  0  8G17G30G 5G 6G23G22G26G10
  21610221.549   -11121478.50749  -8646952.05447  21610221.927    21610235.755
       232.000         201.000
  22274052.442     7590675.43849   5916346.62047  22274053.489    22274067.172
       230.000         195.000
  24356033.630    14479950.10649  11273238.04545  24356035.333    24356050.649
       198.000         137.000
  20450881.677    -9349895.13249  -7274763.11447  20450882.448    20450895.226
       228.000         202.000
  23248882.431   -13228943.67849 -10296835.45846  23248882.684    23248897.709
       219.000         172.000
  24646618.192    -3622470.02849  -1941561.49645  24646619.392    24646634.421
       203.000         141.000
  23122489.932    -9120334.41349  -6665833.69546  23122491.393    23122505.728
       210.000         164.000
  22901845.862     7954568.94649   6199088.45846  22901845.393    22901859.672
       223.000         184.000
 98  6 15 20 34 15.0000000  0  8G17G30G 5G 6G23G22G26G10
  21605908.700   -11144143.46249  -8664613.05147  21605909.356    21605922.600
       232.000         201.000
  22282006.177     7632473.19749   5948916.27347  22282006.825    22282020.763
       230.000         194.000
  24365557.664    14529994.28849  11312233.37245  24365557.880    24365575.572
       201.000         138.000
  20447961.790    -9365240.36449  -7286720.43447  20447962.195    20447975.327
       227.000         201.000
  23239274.950   -13279426.21949 -10336172.45646  23239275.795    23239290.545
       218.000         171.000
  24639242.615    -3661232.43549  -1971765.95945  24639243.296    24639258.005
       204.000         140.000
  23115291.394    -9158164.68049  -6695311.77246  23115292.519    23115306.650
       212.000         164.000
  22909795.581     7996350.55849   6231645.54846  22909796.006    22909810.718
       221.000         185.000
 98  6 15 20 34 30.0000000  0  8G17G30G 5G 6G23G22G26G10
  21601605.175   -11166758.14349  -8682234.86947  21601605.864    21601619.365
       232.000         201.000
  22289971.927     7674335.54049   5981536.25947  22289973.036    22289986.901
       230.000         195.000
  24375079.681    14580034.24449  11351225.39545  24375078.601    24375096.819
       197.000         135.000
  20445058.612    -9380493.15849  -7298605.72047  20445059.680    20445072.614
       227.000         201.000
  23229680.523   -13329845.76749 -10375460.35946  23229681.145    23229696.479
       219.000         172.000
  24631884.509    -3699895.78549  -2001893.23545  24631884.464    24631899.429
       202.000         139.000
  23108105.626    -9195924.61049  -6724735.03346  23108106.708    23108121.209
       212.000         165.000
  22917758.948     8038193.26649   6264250.22846  22917759.230    22917773.321
       222.000         185.000
 98  6 15 20 34 45.0000000  0  8G17G30G 5G 6G23G22G26G10
  21597312.854   -11189314.65449  -8699811.36547  21597313.354    21597326.790
       232.000         200.000
  22297952.130     7716269.02349   6014211.67847  22297952.771    22297966.761
       229.000         194.000
  24384602.496    14630078.85349  11390221.07745  24384603.613    24384618.956
       197.000         134.000
  20442174.945    -9395648.40949  -7310415.00847  20442175.770    20442188.622
       228.000         201.000
  23220098.728   -13380195.43849 -10414693.81446  23220099.779    23220115.059
       217.000         172.000
  24624547.588    -3738454.57349  -2031939.00745  24624547.734    24624563.531
       203.000         141.000
  23100933.742    -9233610.57749  -6754100.67346  23100935.182    23100949.518
       211.000         164.000
  22925734.014     8080106.54949   6296909.91446  22925734.460    22925748.349
       222.000         184.000
 98  6 15 20 35  0.0000000  0  8G17G30G 5G 6G23G22G26G10
  21593033.302   -11211804.75449  -8717336.10547  21593033.449    21593047.186
       232.000         201.000
  22305945.685     7758276.39049   6046944.66147  22305946.847    22305960.664
       229.000         194.000
  24394127.578    14680132.48849  11429223.76945  24394127.209    24394147.448
       195.000         136.000
  20439311.162    -9410699.74849  -7322143.31347  20439311.891    20439324.695
       227.000         202.000
  23210532.069   -13430469.75849 -10453868.55746  23210532.938    23210547.892
       218.000         172.000
  24617231.288    -3776902.93449  -2061898.73545  24617231.073    24617246.181
       202.000         141.000
  23093777.530    -9271219.66949  -6783406.39846  23093778.758    23093793.388
       211.000         164.000
  22933724.566     8122096.39749   6329629.25746  22933724.987    22933739.091
       222.000         184.000
 98  6 15 20 35 15.0000000  0  8G17G30G 5G 6G23G22G26G10
  21588766.839   -11234224.53249  -8734806.05247  21588766.912    21588781.082
       232.000         201.000
  22313954.480     7800362.42749   6079738.95447  22313955.246    22313969.408
       230.000         194.000
  24403655.060    14730198.01749  11468235.74045  24403655.245    24403671.775
       195.000         134.000
  20436465.895    -9425648.55549  -7333791.72847  20436466.485    20436479.492
       227.000         201.000
  23200980.251   -13480666.17549 -10492982.58546  23200980.706    23200996.280
       220.000         173.000
  24609935.768    -3815240.54549  -2091772.17945  24609936.365    24609950.605
       203.000         139.000
  23086636.055    -9308750.54949  -6812651.18446  23086636.699    23086651.321
       213.000         165.000
  22941730.184     8164163.71849   6362408.97246  22941729.557    22941743.794
       221.000         183.000
 98  6 15 20 35 30.0000000  0  8G17G30G 5G 6G23G22G26G10
  21584511.281   -11256586.01449  -8752230.57247  21584511.935    21584525.377
       231.000         201.000
  22321976.139     7842517.51849   6112587.05247  22321977.411    22321991.381
       229.000         194.000
  24413182.180    14780264.02549  11507248.03645  24413182.233    24413201.227
       197.000         136.000
  20433637.942    -9440508.29149  -7345370.74247  20433639.443    20433651.875
       227.000         201.000
  23191440.746   -13530795.79349 -10532044.57646  23191440.937    23191456.525
       220.000         173.000
  24602658.189    -3853482.58449  -2121571.15545  24602657.893    24602674.796
       201.000         139.000
  23079506.247    -9346215.52249  -6841844.62146  23079507.397    23079521.619
       211.000         166.000
  22949747.032     8206297.54249   6395240.49246  22949747.513    22949762.434
       221.000         183.000
 98  6 15 20 35 45.0000000  0  8G17G30G 5G 6G23G22G26G10
  21580264.801   -11278903.59949  -8769620.88847  21580265.276    21580278.802
       232.000         201.000
  22330009.004     7884726.89449   6145477.44447  22330009.683    22330023.572
       229.000         195.000
  24422704.564    14830313.53748  11546247.51745  24422705.967    24422724.797
       192.000         135.000
  20430824.496    -9455296.01949  -7356893.64747  20430825.326    20430837.898
       227.000         201.000
  23181911.518   -13580872.59449 -10571065.40446  23181911.859    23181926.963
       220.000         173.000
  24595396.698    -3891644.05249  -2151307.36245  24595396.766    24595411.577
       203.000         138.000
  23072385.336    -9383631.88249  -6871000.16746  23072387.323    23072401.843
       210.000         167.000
  22957775.066     8248481.15449   6428110.82546  22957775.233    22957789.200
       221.000         183.000
 98  6 15 20 36  0.0000000  0  8G17G30G 5G 6G23G22G26G10
  21576028.599   -11301164.02849  -8786966.66847  21576028.879    21576042.823
       232.000         201.000
  22338053.466     7927003.36849   6178420.12247  22338054.518    22338068.565
       229.000         194.000
  24432228.527    14880357.97349  11585243.05445  24432228.462    24432249.042
       197.000         139.000
  20428026.723    -9469997.93849  -7368349.68047  20428027.217    20428040.151
       227.000         201.000
  23172395.091   -13630885.19049 -10610036.20646  23172394.854    23172409.821
       219.000         174.000
  24588153.300    -3929711.58949  -2180970.34845  24588152.631    24588166.833
       206.000         142.000
  23065277.864    -9420987.41449  -6900108.32746  23065279.040    23065293.251
       213.000         167.000
  22965814.164     8290727.17149   6461029.78246  22965814.726    22965828.420
       221.000         183.000
 98  6 15 20 36 15.0000000  0  8G17G30G 5G 6G23G22G26G10
  21571803.824   -11323366.35249  -8804267.17147  21571804.122    21571817.772
       231.000         201.000
  22346111.160     7969347.97749   6211415.89847  22346112.576    22346126.275
       228.000         194.000
  24441751.241    14930397.87049  11624235.00345  24441752.255    24441771.679
       196.000         140.000
  20425245.910    -9484610.24149  -7379735.88447  20425246.546    20425259.379
       227.000         201.000
  23162889.358   -13680835.39349 -10648958.39446  23162889.593    23162905.013
       219.000         174.000
  24580926.534    -3967685.75249  -2210560.58245  24580927.463    24580941.340
       206.000         145.000
  23058180.813    -9458280.69949  -6929167.97446  23058181.745    23058196.578
       211.000         168.000
  22973865.263     8333037.50249   6493998.84646  22973865.623    22973879.625
       220.000         183.000
 98  6 15 20 36 30.0000000  0  8G17G30G 5G 6G23G22G26G10
  21567590.259   -11345506.05149  -8821518.87847  21567591.091    21567604.699
       232.000         201.000
  22354182.981     8011768.00149   6244470.43547  22354184.489    22354198.545
       228.000         194.000
  24451275.552    14980438.55849  11663227.59945  24451275.182    24451292.623
       201.000         143.000
  20422483.558    -9499126.55349  -7391047.28847  20422484.286    20422496.988
       227.000         201.000
  23153396.360   -13730719.38849 -10687828.99546  23153397.133    23153412.234
       220.000         174.000
  24573718.655    -4005559.88849  -2240072.87145  24573719.655    24573734.742
       205.000         148.000
  23051097.283    -9495505.40849  -6958174.19046  23051098.510    23051112.870
       212.000         167.000
  22981929.483     8375416.87149   6527021.71746  22981930.025    22981944.695
       219.000         182.000
 98  6 15 20 36 45.0000000  0  8G17G30G 5G 6G23G22G26G10
  21563389.029   -11367584.89149  -8838723.16547  21563389.605    21563403.055
       232.000         201.000
  22362271.442     8054270.02249   6277588.85847  22362272.678    22362286.611
       228.000         194.000
  24460798.178    15030483.48849  11702223.50245  24460798.586    24460817.202
       199.000         144.000
  20419739.893    -9513543.85249  -7402281.54547  20419741.102    20419753.790
       227.000         201.000
  23143916.862   -13780533.83849 -10726645.40146  23143917.611    23143932.435
       218.000         173.000
  24566531.585    -4043328.90049  -2269503.25045  24566531.801    24566547.531
       207.000         148.000
  23044027.965    -9532652.41449  -6987119.85546  23044029.209    23044043.704
       211.000         167.000
  22990007.571     8417867.33249   6560099.97046  22990008.026    22990022.457
       219.000         182.000
 98  6 15 20 37  0.0000000  0  8G17G30G 5G 6G23G22G26G10
  21559196.749   -11389617.69849  -8855891.57647  21559196.748    21559210.773
       233.000         201.000
  22370371.468     8096838.26049   6310758.89047  22370372.408    22370386.950
       228.000         193.000
  24470319.472    15080517.46049  11741210.83545  24470319.890    24470338.531
       201.000         147.000
  20417013.275    -9527874.15349  -7413448.00847  20417014.008    20417027.034
       227.000         201.000
  23134448.388   -13830292.78749 -10765418.55546  23134448.651    23134464.263
       219.000         175.000
  24559363.094    -4081003.83349  -2298860.30745  24559363.440    24559378.532
       207.000         147.000
  23036972.434    -9569731.66949  -7016012.72646  23036973.188    23036987.564
       213.000         167.000
  22998096.193     8460372.74149   6593221.04346  22998096.710    22998111.099
       219.000         182.000
 98  6 15 20 37 15.0000000  0  8G17G30G 5G 6G23G22G26G10
  21555018.059   -11411575.18849  -8873001.31047  21555018.491    21555032.138
       232.000         201.000
  22378490.516     8139502.43349   6344003.66347  22378491.653    22378505.470
       228.000         194.000
  24479843.332    15130569.57749  11780212.33745  24479844.184    24479862.726
       203.000         149.000
  20414308.595    -9542086.23749  -7424522.35547  20414309.475    20414322.494
       227.000         201.000
  23124996.025   -13879965.97149 -10804124.88646  23124996.569    23125011.233
       219.000         175.000
  24552217.267    -4118552.98049  -2328119.38145  24552217.618    24552232.483
       209.000         147.000
  23029937.271    -9606705.95349  -7044823.80946  23029937.539    23029952.084
       212.000         168.000
  23006200.521     8502958.86449   6626405.01646  23006200.575    23006214.928
       219.000         182.000
 98  6 15 20 37 30.0000000  0  8G17G30G 5G 6G23G22G26G10
  21550847.858   -11433491.39149  -8890078.86047  21550847.849    21550861.661
       232.000         201.000
  22386621.498     8182229.31149   6377297.31247  22386622.594    22386636.360
       229.000         193.000
  24489364.808    15180606.12749  11819201.69045  24489365.566    24489384.864
       201.000         149.000
  20411620.259    -9556212.46749  -7435529.80447  20411621.548    20411634.358
       227.000         201.000
  23115553.440   -13929585.09549 -10842789.08346  23115554.253    23115569.382
       220.000         176.000
  24545090.240    -4156009.41149  -2357306.20945  24545089.691    24545105.694
       209.000         149.000
  23022914.466    -9643605.57849  -7073576.71146  23022915.701    23022929.669
       213.000         168.000
  23014313.705     8545595.00649   6659627.96546  23014313.947    23014328.484
       219.000         181.000
 98  6 15 20 37 45.0000000  0  8G17G30G 5G 6G23G22G26G10
  21546686.870   -11455355.87049  -8907116.11347  21546687.418    21546700.797
       232.000         202.000
  22394765.573     8225027.19149   6410646.28047  22394766.834    22394780.435
       229.000         194.000
  24498885.548    15230635.73349  11858185.64245  24498886.214    24498904.532
       203.000         149.000
  20408951.261    -9570239.61549  -7446460.05047  20408952.150    20408965.187
       226.000         201.000
  23106123.968   -13979137.96849 -10881401.66446  23106124.935    23106139.912
       219.000         176.000
  24537982.402    -4193359.48949  -2386410.16845  24537982.936    24537997.493
       210.000         151.000
  23015909.400    -9680419.68549  -7102262.97846  23015910.079    23015924.190
       212.000         168.000
  23022438.547     8588294.04849   6692899.92846  23022438.978    23022453.510
       218.000         180.000
 98  6 15 20 38  0.0000000  0  8G17G30G 5G 6G23G22G26G10
  21542536.939   -11477165.23649  -8924110.41947  21542537.436    21542550.776
       233.000         202.000
  22402923.553     8267898.41849   6444052.40247  22402924.864    22402938.174
       229.000         193.000
  24508406.476    15280661.67249  11897166.72145  24508406.307    24508425.280
       205.000         153.000
  20406302.260    -9584158.81249  -7457306.17047  20406303.060    20406316.067
       227.000         201.000
  23096707.268   -14028622.51049 -10919960.99646  23096707.823    23096723.442
       220.000         176.000
  24530896.856    -4230596.63749  -2415426.10845  24530896.973    24530911.236
       212.000         153.000
  23008920.680    -9717141.04649  -7130876.97246  23008922.356    23008936.477
       212.000         168.000
  23030577.554     8631061.29349   6726225.02546  23030577.413    23030592.160
       219.000         181.000
 98  6 15 20 38 15.0000000  0  8G17G30G 5G 6G23G22G26G10
  21538394.020   -11498936.47049  -8941075.01447  21538394.279    21538407.961
       233.000         203.000
  22411092.588     8310827.57749   6477503.65947  22411094.178    22411107.784
       228.000         193.000
  24517923.388    15330670.75949  11936134.68945  24517923.434    24517940.982
       203.000         152.000
  20403672.150    -9597982.27549  -7468077.69747  20403673.004    20403685.688
       227.000         201.000
  23087301.059   -14078054.17649 -10958479.12946  23087301.632    23087316.465
       220.000         177.000
  24523829.238    -4267735.08749  -2444365.13345  24523829.865    24523844.348
       210.000         154.000
  23001949.335    -9753781.57649  -7159427.99246  23001950.015    23001964.508
       214.000         168.000
  23038726.080     8673881.02049   6759591.02846  23038726.099    23038740.373
       219.000         181.000
 98  6 15 20 38 30.0000000  0  8G17G30G 5G 6G23G22G26G10
  21534256.732   -11520679.80549  -8958017.87147  21534256.849    21534270.484
       233.000         203.000
  22419271.935     8353805.79049   6510993.14747  22419272.353    22419286.497
       228.000         193.000
  24527433.813    15380653.52049  11975082.14245  24527434.647    24527453.148
       204.000         152.000
  20401057.569    -9611721.40749  -7478783.50947  20401058.329    20401071.010
       227.000         201.000
  23077903.374   -14127440.12349 -10996961.62946  23077903.549    23077918.534
       220.000         177.000
  24516778.172    -4304784.67149  -2473234.91945  24516778.910    24516794.590
       209.000         154.000
  22994990.530    -9790348.92549  -7187921.98346  22994991.486    22995005.692
       214.000         169.000
  23046881.993     8716741.36349   6792988.67846  23046882.273    23046896.675
       220.000         181.000
 98  6 15 20 38 45.0000000  0  8G17G30G 5G 6G23G22G26G10
  21530128.621   -11542372.61449  -8974921.34747  21530128.682    21530142.093
       233.000         203.000
  22427463.755     8396856.29649   6544538.97547  22427464.698    22427478.112
       229.000         193.000
  24536944.285    15430632.62749  12014026.73445  24536945.348    24536964.830
       201.000         151.000
  20398463.277    -9625354.93249  -7489407.02947  20398464.210    20398476.513
       228.000         201.000
  23068518.031   -14176756.28249 -11035389.75146  23068518.856    23068533.968
       219.000         178.000
  24509748.805    -4341724.07049  -2502018.84345  24509749.075    24509764.826
       209.000         156.000
  22988050.718    -9826819.36649  -7216340.46246  22988051.669    22988065.244
       212.000         170.000
  23055050.154     8759663.00549   6826434.09446  23055049.763    23055063.894
       220.000         181.000
 98  6 15 20 39  0.0000000  0  8G17G30G 5G 6G23G22G26G10
  21526011.053   -11564010.14749  -8991781.75947  21526011.236    21526024.782
       234.000         203.000
  22435669.334     8439979.24949   6578141.24147  22435670.776    22435684.733
       228.000         192.000
  24546455.606    15480612.29949  12052971.76145  24546455.798    24546474.689
       204.000         150.000
  20395889.971    -9638876.57449  -7499943.37647  20395891.064    20395903.488
       227.000         201.000
  23059148.638   -14225996.09549 -11073758.38746  23059148.434    23059164.011
       219.000         178.000
  24502741.609    -4378549.79949  -2530714.20745  24502742.335    24502757.336
       212.000         157.000
  22981128.968    -9863188.72849  -7244680.17646  22981130.721    22981145.130
       212.000         170.000
  23063230.391     8802651.72449   6859931.77746  23063230.775    23063244.382
       220.000         180.000
 98  6 15 20 39 15.0000000  0  8G17G30G 5G 6G23G22G26G10
  21521903.788   -11585593.37249  -9008599.84747  21521903.996    21521917.614
       233.000         203.000
  22443888.383     8483169.88249   6611796.25747  22443889.674    22443903.501
       228.000         192.000
  24555966.580    15530590.31949  12091915.53745  24555966.666    24555985.346
       201.000         150.000
  20393337.737    -9652289.22649  -7510394.78547  20393338.486    20393351.078
       227.000         200.000
  23049791.720   -14275163.46049 -11112070.56546  23049792.147    23049808.125
       219.000         177.000
  24495754.184    -4415266.20149  -2559324.37745  24495755.013    24495769.991
       209.000         158.000
  22974226.270    -9899463.30249  -7272946.03146  22974227.258    22974241.788
       211.000         170.000
  23071423.580     8845708.93849   6893482.84346  23071423.913    23071437.742
       218.000         179.000
